[[{"header":{"parameterUnit":"m.s-1","parameterCategory":1,"la1":30.6,"la2":29.2853,"lo1":-89.7004,"lo2":-87.6739,"dy":0.0162,"dx":0.0183,"nx":112,"ny":82,"refTime":"2023-05-12T12:00:00:Z","depth":0,"parameterNumber":2,"parameterNumberName":"U-component_of_WINDS"},"data":[0.0,0.0,0.0,0.0,0.0,0.0,0.0,0.0,0.0,0.0,0.0,0.0,0.0,0.0,0.0,0.0,0.0,0.0,0.0,0.0,0.0,0.0,0.0,0.0,0.0,0.0,0.0,0.0,0.0,0.0,0.0,0.0,0.0,0.0,0.0,0.0,0.0,0.0,0.0,0.0,0.0,0.0,0.0,0.0,0.0,0.0,0.0,0.0,0.0,0.0,0.0,0.0,0.0,0.0,0.0,0.0,0.0,0.0,0.0,0.0,0.0,0.0,0.0,0.0,0.0,0.0,0.0,0.0,0.0,0.0,0.0,0.0,0.0,0.0,0.0,0.0,0.0,0.0,0.0,0.0,0.0,0.0,0.0,0.0,0.0,0.0,0.0,0.0,0.0,0.0,-2.1101,-2.2002,-2.2689,-2.275,-2.1939,-2.1239,-2.0398,-1.9365,0.0,0.0,0.0,0.0,0.0,0.0,0.0,0.0,0.0,0.0,0.0,0.0,0.0,0.0,0.0,0.0,0.0,0.0,0.0,0.0,0.0,0.0,0.0,0.0,0.0,0.0,0.0,0.0,0.0,0.0,0.0,0.0,0.0,0.0,0.0,0.0,0.0,0.0,0.0,0.0,0.0,0.0,0.0,0.0,0.0,0.0,0.0,0.0,0.0,0.0,0.0,0.0,0.0,0.0,0.0,0.0,0.0,0.0,0.0,0.0,0.0,0.0,0.0,0.0,0.0,0.0,0.0,0.0,0.0,0.0,0.0,0.0,0.0,0.0,0.0,0.0,0.0,0.0,0.0,0.0,0.0,0.0,0.0,0.0,0.0,0.0,0.0,0.0,0.0,0.0,0.0,0.0,0.0,0.0,0.0,0.0,0.0,0.0,0.0,0.0,0.0,0.0,0.0,0.0,-2.2002,-2.2823,-2.3005,-2.275,-2.1939,-2.1753,-2.1037,-1.9431,0.0,0.0,0.0,0.0,0.0,0.0,0.0,0.0,0.0,0.0,0.0,0.0,0.0,0.0,0.0,0.0,0.0,0.0,0.0,0.0,0.0,0.0,0.0,0.0,0.0,0.0,0.0,0.0,0.0,0.0,0.0,0.0,0.0,0.0,0.0,0.0,0.0,0.0,0.0,0.0,0.0,0.0,0.0,0.0,0.0,0.0,0.0,0.0,0.0,0.0,0.0,0.0,0.0,0.0,0.0,0.0,0.0,0.0,0.0,0.0,0.0,0.0,0.0,0.0,0.0,0.0,0.0,0.0,0.0,0.0,0.0,0.0,0.0,0.0,0.0,0.0,0.0,0.0,0.0,0.0,0.0,0.0,0.0,0.0,0.0,0.0,0.0,0.0,0.0,0.0,0.0,0.0,0.0,0.0,0.0,0.0,0.0,0.0,0.0,0.0,0.0,0.0,0.0,-2.2919,-2.316,-2.3138,-2.3484,-2.3412,-2.2628,-2.2125,-2.1565,-2.0782,-1.9431,0.0,0.0,0.0,0.0,0.0,0.0,0.0,0.0,0.0,0.0,0.0,0.0,0.0,0.0,0.0,0.0,0.0,0.0,0.0,0.0,0.0,0.0,0.0,0.0,0.0,0.0,0.0,0.0,0.0,0.0,0.0,0.0,0.0,0.0,0.0,0.0,0.0,0.0,0.0,0.0,0.0,0.0,0.0,0.0,0.0,0.0,0.0,0.0,0.0,0.0,0.0,0.0,0.0,0.0,0.0,0.0,0.0,0.0,0.0,0.0,0.0,0.0,0.0,0.0,0.0,0.0,0.0,0.0,0.0,0.0,0.0,0.0,0.0,0.0,0.0,0.0,0.0,0.0,0.0,0.0,0.0,0.0,0.0,0.0,0.0,0.0,0.0,0.0,0.0,0.0,0.0,0.0,0.0,0.0,0.0,0.0,0.0,0.0,0.0,0.0,0.0,0.0,-2.3662,-2.3826,-2.3424,-2.3767,-2.3826,-2.3424,-2.2628,-2.2125,-2.1877,-2.0655,0.0,0.0,0.0,0.0,0.0,0.0,0.0,0.0,0.0,0.0,0.0,0.0,0.0,0.0,0.0,0.0,0.0,0.0,0.0,0.0,0.0,0.0,0.0,0.0,0.0,0.0,0.0,0.0,0.0,0.0,0.0,0.0,0.0,0.0,0.0,0.0,0.0,0.0,0.0,0.0,0.0,0.0,0.0,0.0,0.0,0.0,0.0,0.0,0.0,0.0,0.0,0.0,0.0,0.0,0.0,0.0,0.0,0.0,0.0,0.0,0.0,0.0,0.0,0.0,0.0,0.0,0.0,0.0,0.0,0.0,0.0,0.0,0.0,0.0,0.0,0.0,0.0,0.0,0.0,0.0,0.0,0.0,0.0,0.0,0.0,0.0,0.0,0.0,0.0,0.0,0.0,0.0,0.0,0.0,0.0,0.0,0.0,0.0,0.0,0.0,0.0,0.0,-2.3125,-2.3424,-2.4118,-2.359,-2.3484,-2.4176,-2.3471,-2.2702,-2.1939,-2.1815,0.0,0.0,0.0,0.0,0.0,0.0,0.0,0.0,0.0,0.0,0.0,0.0,0.0,0.0,0.0,0.0,0.0,0.0,0.0,0.0,0.0,0.0,0.0,0.0,0.0,0.0,0.0,0.0,0.0,0.0,0.0,0.0,0.0,0.0,0.0,0.0,0.0,0.0,0.0,0.0,0.0,0.0,0.0,0.0,0.0,0.0,0.0,0.0,0.0,0.0,0.0,0.0,0.0,0.0,0.0,0.0,0.0,0.0,0.0,0.0,0.0,0.0,0.0,0.0,0.0,0.0,0.0,0.0,0.0,0.0,0.0,0.0,0.0,0.0,0.0,0.0,0.0,0.0,0.0,0.0,0.0,0.0,0.0,0.0,0.0,0.0,0.0,0.0,0.0,0.0,0.0,0.0,0.0,0.0,0.0,0.0,0.0,0.0,0.0,0.0,0.0,0.0,-2.3543,-2.3767,-2.3603,-2.3708,-2.3767,-2.3603,-2.3245,-2.2944,-2.2689,0.0,0.0,0.0,0.0,0.0,0.0,0.0,0.0,0.0,0.0,0.0,0.0,0.0,0.0,0.0,0.0,0.0,0.0,0.0,0.0,0.0,0.0,0.0,0.0,0.0,0.0,0.0,0.0,0.0,0.0,0.0,0.0,0.0,0.0,0.0,0.0,0.0,0.0,0.0,0.0,0.0,0.0,0.0,0.0,0.0,0.0,0.0,0.0,0.0,0.0,0.0,0.0,0.0,0.0,0.0,0.0,0.0,0.0,0.0,0.0,0.0,0.0,0.0,0.0,0.0,0.0,0.0,0.0,0.0,0.0,0.0,0.0,0.0,0.0,0.0,0.0,0.0,0.0,0.0,0.0,0.0,0.0,0.0,0.0,0.0,0.0,0.0,0.0,0.0,0.0,0.0,0.0,0.0,0.0,0.0,0.0,0.0,0.0,0.0,0.0,0.0,0.0,-2.3078,-2.3603,-2.3826,-2.3543,-2.3767,-2.3826,-2.3484,-2.3258,-2.3078,-2.3078,0.0,0.0,0.0,0.0,0.0,0.0,0.0,0.0,0.0,0.0,0.0,0.0,0.0,0.0,0.0,0.0,0.0,0.0,0.0,0.0,0.0,0.0,0.0,0.0,0.0,0.0,0.0,0.0,0.0,0.0,0.0,0.0,0.0,0.0,0.0,0.0,0.0,0.0,0.0,0.0,0.0,0.0,0.0,0.0,0.0,0.0,0.0,0.0,0.0,0.0,0.0,0.0,0.0,0.0,0.0,0.0,0.0,0.0,0.0,0.0,0.0,0.0,0.0,0.0,0.0,0.0,0.0,0.0,0.0,0.0,0.0,0.0,0.0,0.0,0.0,0.0,0.0,0.0,0.0,0.0,0.0,0.0,0.0,0.0,0.0,0.0,0.0,0.0,0.0,0.0,0.0,0.0,0.0,0.0,0.0,0.0,0.0,0.0,0.0,0.0,0.0,0.0,-2.3078,-2.3078,-2.3424,-2.4176,-2.359,-2.3424,-2.4234,-2.3543,-2.3078,0.0,0.0,0.0,0.0,0.0,0.0,0.0,0.0,0.0,0.0,0.0,0.0,0.0,0.0,0.0,0.0,0.0,0.0,0.0,0.0,0.0,0.0,0.0,0.0,0.0,0.0,0.0,0.0,0.0,0.0,0.0,0.0,0.0,0.0,0.0,0.0,0.0,0.0,0.0,0.0,0.0,0.0,0.0,0.0,0.0,0.0,0.0,0.0,0.0,0.0,0.0,0.0,0.0,0.0,0.0,0.0,0.0,0.0,0.0,0.0,0.0,0.0,0.0,0.0,0.0,0.0,0.0,0.0,0.0,0.0,0.0,0.0,0.0,0.0,0.0,0.0,0.0,0.0,0.0,0.0,0.0,0.0,0.0,0.0,0.0,0.0,0.0,0.0,0.0,0.0,0.0,0.0,0.0,0.0,0.0,0.0,0.0,0.0,0.0,0.0,0.0,0.0,0.0,-2.3078,-2.3078,-2.3198,-2.3424,-2.3245,-2.3198,-2.3424,-2.3245,-2.3078,-2.3078,0.0,0.0,0.0,0.0,0.0,0.0,0.0,0.0,0.0,0.0,0.0,0.0,0.0,0.0,0.0,0.0,0.0,0.0,0.0,0.0,0.0,0.0,0.0,0.0,0.0,0.0,0.0,0.0,0.0,0.0,0.0,0.0,0.0,0.0,0.0,0.0,0.0,0.0,0.0,0.0,0.0,0.0,0.0,0.0,0.0,0.0,0.0,0.0,0.0,0.0,0.0,0.0,0.0,0.0,0.0,0.0,0.0,0.0,0.0,0.0,0.0,0.0,0.0,0.0,0.0,0.0,0.0,0.0,0.0,0.0,0.0,0.0,0.0,0.0,0.0,0.0,0.0,0.0,0.0,0.0,0.0,0.0,0.0,0.0,0.0,0.0,0.0,0.0,0.0,0.0,0.0,0.0,0.0,0.0,0.0,0.0,0.0,0.0,0.0,0.0,0.0,0.0,-2.3078,-2.3078,-2.3078,-2.3078,-2.3078,-2.3078,-2.3078,-2.3078,-2.3078,-2.3078,0.0,0.0,0.0,0.0,0.0,0.0,0.0,0.0,0.0,0.0,0.0,0.0,0.0,0.0,0.0,0.0,0.0,0.0,0.0,0.0,0.0,0.0,0.0,0.0,0.0,0.0,0.0,0.0,0.0,0.0,0.0,0.0,0.0,0.0,0.0,0.0,0.0,0.0,0.0,0.0,0.0,0.0,0.0,0.0,0.0,0.0,0.0,0.0,0.0,0.0,0.0,0.0,0.0,0.0,0.0,0.0,0.0,0.0,0.0,0.0,0.0,0.0,0.0,0.0,0.0,0.0,0.0,0.0,0.0,0.0,0.0,0.0,0.0,0.0,0.0,0.0,0.0,0.0,0.0,0.0,0.0,0.0,0.0,0.0,0.0,0.0,0.0,0.0,0.0,0.0,0.0,0.0,0.0,0.0,0.0,0.0,0.0,0.0,0.0,0.0,0.0,0.0,-2.3078,-2.3078,-2.3078,-2.3078,-2.3078,-2.3078,-2.3078,-2.3078,-2.3078,-2.3078,0.0,0.0,0.0,0.0,0.0,0.0,0.0,0.0,0.0,0.0,0.0,0.0,0.0,0.0,0.0,0.0,0.0,0.0,0.0,0.0,0.0,0.0,0.0,0.0,0.0,0.0,0.0,0.0,0.0,0.0,0.0,0.0,0.0,0.0,0.0,0.0,0.0,0.0,0.0,0.0,0.0,0.0,0.0,0.0,0.0,0.0,0.0,0.0,0.0,0.0,0.0,0.0,0.0,0.0,0.0,0.0,0.0,0.0,0.0,0.0,-2.4707,0.0,0.0,0.0,0.0,0.0,0.0,0.0,0.0,0.0,0.0,0.0,0.0,0.0,0.0,0.0,0.0,0.0,0.0,0.0,0.0,0.0,0.0,0.0,0.0,0.0,0.0,0.0,0.0,0.0,0.0,0.0,0.0,0.0,0.0,0.0,0.0,0.0,0.0,0.0,0.0,0.0,-2.3078,-2.3078,-2.3078,-2.3078,-2.3078,-2.3078,-2.3078,-2.3078,-2.3078,-2.3078,-2.3078,0.0,0.0,0.0,0.0,0.0,0.0,0.0,0.0,0.0,0.0,0.0,0.0,0.0,0.0,0.0,0.0,0.0,0.0,0.0,0.0,0.0,0.0,0.0,0.0,0.0,0.0,0.0,0.0,0.0,0.0,0.0,0.0,0.0,0.0,0.0,0.0,0.0,0.0,0.0,0.0,0.0,0.0,0.0,0.0,0.0,0.0,0.0,0.0,0.0,0.0,0.0,0.0,0.0,0.0,0.0,0.0,0.0,0.0,0.0,0.0,-2.485,0.0,0.0,0.0,0.0,0.0,0.0,0.0,0.0,0.0,0.0,0.0,0.0,0.0,0.0,0.0,0.0,0.0,0.0,0.0,0.0,0.0,0.0,0.0,0.0,0.0,0.0,0.0,0.0,0.0,0.0,0.0,0.0,0.0,0.0,0.0,0.0,0.0,0.0,0.0,0.0,-2.3078,-2.3078,-2.3078,-2.3078,-2.3078,-2.3078,-2.3078,-2.3078,-2.3078,-2.3078,-2.2763,0.0,0.0,0.0,0.0,0.0,0.0,0.0,0.0,0.0,0.0,0.0,0.0,0.0,0.0,0.0,0.0,0.0,0.0,0.0,0.0,0.0,0.0,0.0,0.0,0.0,0.0,0.0,0.0,0.0,0.0,0.0,0.0,0.0,0.0,0.0,0.0,0.0,0.0,0.0,0.0,0.0,0.0,0.0,0.0,0.0,0.0,0.0,0.0,0.0,0.0,0.0,0.0,0.0,-2.6533,-2.6533,-2.6533,-2.6533,-2.6533,-2.6533,-2.6533,-2.5569,-2.4108,-2.4933,0.0,0.0,0.0,0.0,0.0,0.0,0.0,0.0,0.0,0.0,0.0,0.0,0.0,0.0,0.0,0.0,0.0,0.0,0.0,0.0,0.0,0.0,0.0,0.0,-2.149,-2.2457,-2.2421,0.0,0.0,0.0,0.0,0.0,0.0,0.0,0.0,0.0,0.0,0.0,-2.3078,-2.3078,-2.3078,-2.3078,-2.3078,-2.3078,-2.3078,-2.3078,-2.3065,-2.2884,-2.2261,-2.1815,0.0,0.0,0.0,0.0,0.0,0.0,0.0,0.0,0.0,0.0,0.0,0.0,0.0,0.0,0.0,0.0,0.0,0.0,0.0,0.0,0.0,0.0,0.0,0.0,0.0,0.0,0.0,0.0,0.0,0.0,0.0,0.0,-2.3356,-2.448,0.0,0.0,0.0,0.0,0.0,0.0,0.0,0.0,0.0,0.0,0.0,0.0,0.0,-2.6559,-2.6634,-2.6559,-2.6533,-2.6533,-2.6533,-2.6533,-2.6533,-2.6533,-2.6533,-2.6533,-2.6533,0.0,-2.6082,-2.6233,0.0,0.0,0.0,0.0,0.0,0.0,0.0,0.0,0.0,0.0,0.0,0.0,0.0,0.0,0.0,0.0,0.0,0.0,0.0,0.0,0.0,0.0,-2.0469,-2.0088,-2.0744,-2.1403,0.0,-2.3011,-2.4397,-2.4054,-2.4004,0.0,0.0,0.0,0.0,0.0,0.0,0.0,-2.3078,-2.3078,-2.3078,-2.3078,-2.3078,-2.3078,-2.3078,-2.3078,-2.2823,-2.2125,-2.1951,-2.1553,-2.0782,-1.9814,0.0,0.0,0.0,0.0,0.0,0.0,0.0,0.0,0.0,0.0,0.0,0.0,0.0,0.0,0.0,0.0,0.0,0.0,0.0,0.0,0.0,0.0,0.0,0.0,0.0,0.0,0.0,0.0,0.0,-2.4169,-2.5134,-2.5004,-2.5511,-2.622,0.0,0.0,0.0,0.0,0.0,0.0,0.0,0.0,0.0,-2.6521,-2.6905,-2.6973,-2.6533,-2.6533,-2.6533,-2.6533,-2.6533,-2.6533,-2.6533,-2.6533,-2.6533,-2.6533,-2.6533,-2.6533,-2.6533,-2.6533,-2.6245,-2.5804,0.0,0.0,0.0,0.0,-2.2478,-2.1952,-2.1517,-2.1001,-2.0566,-2.0566,0.0,0.0,0.0,0.0,0.0,0.0,0.0,0.0,0.0,0.0,-2.0663,-2.0979,-2.1534,-2.2166,-2.2731,-2.3893,-2.4556,0.0,-2.3778,-2.3916,-2.3665,0.0,0.0,0.0,0.0,-2.3078,-2.3078,-2.3078,-2.3078,-2.3078,-2.3078,-2.3078,-2.3078,-2.3078,-2.2763,-2.1939,-2.1428,-2.0782,-1.9879,-1.9044,-1.8596,0.0,0.0,0.0,0.0,0.0,0.0,0.0,0.0,0.0,0.0,0.0,0.0,0.0,0.0,0.0,0.0,0.0,0.0,0.0,0.0,0.0,0.0,0.0,0.0,0.0,0.0,0.0,0.0,-2.5569,-2.6302,-2.5767,-2.6151,-2.685,0.0,0.0,0.0,0.0,0.0,0.0,-2.8363,-2.9002,-2.8556,-2.685,-2.7417,-2.7284,-2.6533,-2.6533,-2.6533,-2.6533,-2.6533,-2.6533,-2.6533,-2.6533,-2.6533,-2.6533,-2.6533,-2.6533,-2.6533,-2.6533,-2.6533,-2.6452,-2.5664,-2.537,-2.5288,-2.4253,-2.322,-2.2328,-2.2103,-2.1375,-2.0566,-2.0566,-2.0566,-2.0566,-2.0566,0.0,0.0,0.0,0.0,-2.0566,-2.0566,-2.0566,-2.0837,-2.1665,-2.2247,-2.2965,-2.3836,-2.4523,-2.4732,0.0,-2.3916,-2.4205,-2.4205,0.0,0.0,0.0,-2.3841,-2.3514,-2.3376,-2.3364,-2.3301,-2.309,-2.3078,-2.3078,-2.3078,-2.3078,-2.2689,-2.1616,-2.0974,-2.0139,-1.8977,-1.8327,-1.8008,-1.8008,0.0,0.0,0.0,0.0,0.0,0.0,0.0,0.0,0.0,0.0,0.0,0.0,0.0,0.0,0.0,0.0,0.0,0.0,0.0,0.0,0.0,0.0,0.0,0.0,0.0,0.0,0.0,0.0,0.0,-2.7471,-2.6905,0.0,0.0,0.0,0.0,-2.8939,-2.9752,-3.0147,-3.0147,-3.0208,-2.9442,-2.767,-2.767,-2.7284,-2.6533,-2.6533,-2.6533,-2.6533,-2.6533,-2.6533,-2.6533,-2.6533,-2.6533,-2.6533,-2.6533,-2.6533,-2.6533,-2.6533,-2.6533,-2.6452,-2.6452,-2.6383,-2.6314,-2.53,-2.4264,-2.3294,-2.2328,-2.1375,-2.0566,-2.0566,-2.0566,-2.0566,-2.0566,-2.0566,0.0,0.0,-2.0566,-2.0566,-2.0566,-2.0566,-2.0757,-2.1281,-2.2093,-2.2863,-2.3443,-2.459,-2.5398,0.0,-2.4757,-2.4782,-2.4782,0.0,-2.4745,-2.477,-2.4757,-2.4544,-2.4017,-2.3954,-2.3753,-2.3128,-2.3078,-2.3078,-2.3078,-2.3078,-2.2372,-2.0782,-2.0655,-1.9824,-1.8144,-1.8008,-1.8008,-1.8008,-1.8008,0.0,0.0,0.0,0.0,0.0,0.0,0.0,0.0,0.0,0.0,0.0,0.0,0.0,0.0,0.0,0.0,0.0,0.0,0.0,0.0,0.0,0.0,0.0,0.0,0.0,0.0,0.0,0.0,-2.6905,-2.6658,0.0,-2.8427,-2.8051,-2.8492,-3.045,-3.0389,-3.0329,-3.0329,-3.0777,-3.0269,-2.862,-2.8556,-2.8117,-2.7297,-2.6782,-2.6533,-2.6533,-2.6533,-2.6533,-2.6533,-2.6533,-2.6533,-2.6533,-2.6533,-2.6533,-2.6533,-2.6533,-2.6533,-2.6465,-2.5804,-2.5511,-2.5441,-2.4409,-2.3368,-2.2478,-2.2103,-2.1375,-2.0566,-2.0566,-2.0566,-2.0566,-2.0566,-2.0566,-2.0566,-2.0566,-2.0566,-2.0566,-2.0566,-2.1078,-2.1704,-2.257,-2.3485,-2.4378,-2.5264,-2.5797,-2.5952,-2.5059,-2.516,-2.5322,-2.5322,-2.5046,-2.4933,-2.5272,-2.5034,-2.4745,-2.4556,-2.4519,-2.4443,-2.4243,-2.3366,-2.2832,-2.2832,-2.1993,-2.0974,-1.9824,-1.9748,-1.9243,-1.8076,-1.8008,-1.8008,-1.8008,-1.8008,-1.8008,0.0,0.0,0.0,0.0,0.0,0.0,0.0,0.0,0.0,0.0,0.0,0.0,0.0,0.0,0.0,0.0,0.0,0.0,0.0,0.0,0.0,0.0,0.0,0.0,0.0,-2.605,-2.6299,-2.6624,-2.6544,-2.7162,-2.8812,-2.8492,-2.8939,-3.097,-3.0837,-3.0703,-3.0703,-3.1219,-3.0896,-2.9504,-2.9442,-2.8876,-2.7736,-2.7162,-2.6782,-2.6533,-2.6533,-2.6533,-2.6533,-2.6533,-2.6533,-2.6533,-2.6533,-2.6533,-2.6533,-2.6533,-2.6314,-2.5955,-2.5229,-2.4791,-2.4409,-2.3745,-2.285,-2.1952,-2.1669,-2.1155,-2.0566,-2.0566,-2.0566,-2.0566,-2.0566,-2.0566,-2.0566,-2.0566,-2.0566,-2.0566,-2.0566,-2.1078,-2.1821,-2.2776,-2.3514,-2.4253,-2.5276,-2.5499,-2.5276,-2.4624,-2.4987,-2.5388,-2.5388,-2.5105,-2.5073,-2.5837,-2.5319,-2.4821,-2.4637,-2.4323,-2.405,-2.3869,-2.2994,-2.2441,-2.2441,-2.1604,-2.0621,-1.954,-1.953,-1.9075,-1.8018,-1.8008,-1.8008,-1.8008,-1.8144,-1.8291,-1.8437,0.0,0.0,0.0,0.0,0.0,0.0,0.0,0.0,0.0,0.0,0.0,0.0,0.0,0.0,0.0,0.0,0.0,0.0,0.0,0.0,0.0,0.0,0.0,-2.4678,-2.5259,-2.5892,-2.6711,-2.6588,-2.7111,-2.8757,-2.8933,-2.9324,-3.024,-3.1058,-3.1452,-3.1482,-3.1482,-3.1161,-3.0329,-3.0269,-2.9442,-2.7736,-2.767,-2.7297,-2.6533,-2.6533,-2.6533,-2.6533,-2.6533,-2.6533,-2.6533,-2.6533,-2.6533,-2.6533,-2.6452,-2.5873,-2.4933,-2.4933,-2.4337,-2.3441,-2.3441,-2.2776,-2.1811,-2.0934,-2.0566,-2.0566,-2.0566,-2.0566,-2.0566,-2.0566,-2.0566,-2.0566,-2.0566,-2.0566,-2.0566,-2.0566,-2.0644,-2.0857,-2.1811,-2.2027,-2.2328,-2.3294,-2.3514,-2.3514,-2.3441,-2.4264,-2.4933,-2.4933,-2.4933,-2.53,-2.6233,-2.5581,0.0,-2.4246,-2.3315,-2.2559,-2.2009,-2.1874,-2.1862,-2.1862,-2.1851,-2.1228,-1.9954,-1.9854,-1.9336,-1.8066,-1.8047,-1.8047,-1.8047,-1.8447,-1.8867,-1.9307,0.0,0.0,0.0,0.0,0.0,0.0,0.0,0.0,0.0,0.0,0.0,0.0,0.0,0.0,0.0,0.0,0.0,0.0,0.0,0.0,0.0,-2.1818,-2.2911,-2.4578,-2.4946,-2.5099,-2.5345,-2.5302,-2.5872,-2.7509,-2.769,-2.8471,-3.0319,-3.0663,-3.1001,-3.1452,-3.1482,-3.1409,-3.1161,-3.0011,-2.9129,-2.862,-2.7417,-2.6714,-2.6533,-2.6533,-2.6533,-2.6533,-2.6533,-2.6533,-2.6533,-2.6533,-2.6533,-2.6452,-2.5734,-2.485,-2.3891,-2.3891,-2.3294,-2.2328,-2.1669,-2.1231,-2.0934,-2.0722,-2.0566,-2.0566,-2.0566,-2.0566,-2.0566,-2.0566,-2.0566,-2.0566,-2.0566,-2.0566,-2.0566,-2.0566,-2.1078,-2.1669,-2.1952,-2.2553,-2.3147,-2.3441,-2.3514,-2.3294,-2.2553,-2.2627,-2.3073,-2.3818,-2.3891,-2.4036,-2.4253,-2.4108,0.0,-2.3697,-2.3469,-2.3184,-2.3061,-2.2154,-2.1528,-2.1528,-2.0586,-1.9858,-1.9461,-1.9451,-1.933,-1.8945,-1.8936,-1.8936,-1.8936,-1.9043,-1.9316,0.0,0.0,0.0,0.0,0.0,0.0,0.0,0.0,0.0,0.0,0.0,0.0,0.0,0.0,0.0,0.0,0.0,0.0,0.0,0.0,0.0,0.0,-2.1239,-2.2028,-2.3829,-2.4318,-2.4469,-2.4469,-2.4682,-2.5421,-2.7028,-2.7428,-2.8434,-3.035,-3.0776,-3.1106,-3.1452,-3.1482,-3.1351,-3.1029,-3.0072,-2.9192,-2.8427,-2.7484,-2.685,-2.6533,-2.6533,-2.6533,-2.6533,-2.6533,-2.6533,-2.6533,-2.6533,-2.6245,-2.5804,-2.5229,-2.4192,0.0,0.0,0.0,0.0,0.0,-2.0566,-2.0566,-2.0566,-2.0566,-2.0566,-2.0566,-2.0566,-2.0566,-2.0566,-2.0566,-2.0566,-2.0566,-2.0566,-2.0566,-2.0566,-2.1001,-2.1451,-2.1451,-2.1897,-2.2264,-2.2264,-2.2264,-2.2113,-2.1517,-2.1451,0.0,-2.2188,-2.2627,-2.2999,-2.3441,-2.3147,-2.285,-2.285,-2.2553,-2.2264,-2.2264,-2.1582,-2.1063,-2.1063,-2.0327,0.0,0.0,0.0,-1.9473,-1.9297,-1.9287,0.0,0.0,0.0,-1.9756,-2.0185,0.0,0.0,0.0,-2.0185,-2.0322,0.0,0.0,0.0,0.0,0.0,0.0,0.0,0.0,0.0,0.0,0.0,0.0,0.0,0.0,0.0,0.0,-2.0974,-2.1037,-2.275,-2.3454,-2.3767,-2.3904,-2.433,-2.5253,-2.6799,-2.752,-2.8482,-3.0068,-3.076,-3.1145,-3.1219,0.0,0.0,0.0,0.0,-2.9254,-2.7736,-2.7604,-2.7229,-2.6533,-2.6533,-2.6533,-2.6533,-2.6533,-2.6465,-2.6314,-2.6314,-2.5734,-2.4791,-2.4707,-2.3526,-2.1811,-2.1811,-2.1298,-2.0566,-2.0566,-2.0566,-2.0566,-2.0566,0.0,0.0,-2.0566,-2.0566,-2.0566,-2.0566,-2.0566,-2.0566,-2.0566,-2.0566,-2.0566,-2.0566,-2.0566,-2.0566,-2.0566,-2.0566,-2.0566,-2.0566,-2.0566,-2.0566,-2.0566,-2.0566,-2.0566,-2.0566,-2.1298,-2.2103,-2.2999,-2.2403,-2.1811,-2.1811,-2.1155,-2.0566,-2.0566,0.0,0.0,-2.0566,-2.0566,-2.04,-2.0019,-1.999,-1.9824,-1.9453,-1.9434,-1.9609,-1.998,-1.9829,-2.0023,-2.0401,-2.0401,-2.0401,-2.0401,-2.0566,-2.0566,0.0,0.0,0.0,0.0,0.0,0.0,0.0,0.0,0.0,0.0,0.0,0.0,0.0,0.0,0.0,-1.9628,-1.9694,-2.0139,-2.1877,-2.2221,-2.2542,-2.318,-2.3401,-2.3981,-2.5389,-2.5595,-2.6458,-2.8326,-2.8568,-2.8923,-2.9476,-2.9504,-2.938,-2.9254,-2.8556,-2.8051,-2.767,-2.704,-2.6658,-2.6533,0.0,0.0,-2.6533,-2.6533,-2.6094,-2.53,-2.53,-2.4707,-2.3745,-2.2925,-2.1886,-2.0857,-2.0857,-2.0789,-2.0566,-2.0566,-2.0566,-2.0566,-2.0566,-2.0566,-2.0566,-2.0566,-2.0566,-2.0566,-2.0566,-2.0566,0.0,-2.0566,-2.0566,-2.0566,-2.0566,-2.0566,-2.0566,-2.0566,-2.0566,-2.0566,-2.0566,-2.0566,-2.0566,-2.0566,-2.0566,-2.0566,-2.0566,-2.0789,-2.0934,-2.1155,-2.1011,-2.0857,-2.0857,-2.0712,-2.0566,-2.0566,-2.0566,-2.0566,-2.0566,-2.0566,-2.0527,-2.0449,-2.0439,-2.04,-2.0322,-2.0312,-2.0361,-2.0439,-1.9634,-1.9201,-1.9283,-1.9283,-1.9283,-1.9353,-2.0167,-2.0566,0.0,0.0,0.0,0.0,0.0,0.0,0.0,0.0,0.0,0.0,0.0,-1.8008,-1.8008,0.0,-1.8269,-1.9177,-1.9299,-1.9879,-2.1616,-2.1877,-2.2199,-2.3005,-2.3389,-2.3959,-2.5004,-2.5678,-2.6556,-2.7865,-2.8319,-2.8622,-2.8989,-2.9002,-2.8812,-2.8363,-2.792,-2.7484,-2.7095,-2.6714,-2.6533,-2.6533,-2.6533,-2.6245,-2.5734,-2.5734,-2.5217,-2.4264,-2.4264,-2.3672,-2.2702,-2.1669,-2.1011,-2.0566,-2.0566,-2.0566,-2.0566,-2.0566,-2.0566,-2.0566,-2.0566,-2.0566,-2.0566,-2.0566,-2.0566,-2.0566,-2.0566,-2.0566,-2.0566,-2.0566,-2.0566,-2.0566,-2.0566,-2.0566,-2.0566,-2.0566,-2.0566,-2.0566,-2.0566,-2.0566,-2.0566,-2.0566,-2.0566,-2.0566,-2.0566,-2.0566,-2.0566,-2.0566,-2.0566,-2.0566,-2.0566,-2.0566,-2.0566,-2.0566,-2.0566,-2.0566,-2.0566,-2.0566,-2.0566,-2.0566,-2.0079,-1.9766,-1.9766,-1.9274,-1.8948,-1.8948,-1.839,-1.8149,-1.8149,-1.8718,-1.9036,-1.9045,-2.0079,-2.0566,0.0,0.0,0.0,0.0,0.0,0.0,0.0,-1.5092,-1.5658,-1.7364,-1.7862,-1.8008,-1.8008,-1.8008,-1.8202,-1.8911,-1.9044,-1.9628,-2.1164,-2.1553,-2.1975,-2.2911,-2.3579,-2.4265,-2.4957,-2.602,-2.6905,-2.7647,-2.822,-2.8492,-2.8492,-2.8492,-2.8182,-2.7484,-2.7484,-2.7162,-2.6533,-2.6533,-2.6383,-2.6233,-2.6233,-2.5652,-2.4707,-2.4707,-2.4192,-2.322,-2.2999,-2.2489,-2.1669,-2.0934,-2.0566,-2.0566,-2.0566,-2.0566,-2.0566,-2.0566,-2.0566,-2.0566,-2.0566,-2.0566,-2.0566,-2.0566,-2.0566,-2.0566,-2.0566,-2.0566,-2.0566,-2.0566,-2.0566,-2.0566,-2.0566,-2.0566,-2.0566,-2.0566,-2.0566,-2.0566,-2.0566,-2.0566,-2.0566,-2.0566,-2.0566,-2.0566,-2.0566,-2.0566,-2.0566,-2.0566,-2.0566,-2.0566,-2.0566,-2.0566,-2.0566,-2.0566,-2.0566,-2.0566,-2.0566,-2.0401,-2.0323,-2.0323,-1.9274,-1.8638,-1.8638,-1.7827,-1.7342,-1.7342,-1.709,-1.7009,-1.7009,-1.79,-1.847,-1.8718,-1.9766,-2.0401,-0.9221,-1.0115,-1.0858,-1.0932,-1.162,-1.2592,0.0,-1.4522,-1.5517,-1.6567,-1.7432,-1.8008,-1.8008,-1.8008,-1.8008,-1.8144,-1.8144,-1.8462,-1.9431,-2.0268,-2.1273,-2.2583,-2.349,-2.4255,-2.481,-2.5378,-2.6,-2.6655,-2.6744,-2.6782,-2.6782,-2.6782,-2.6714,-2.6658,-2.6658,-2.6589,-2.6533,-2.6533,-2.6025,-2.5158,-2.5158,-2.4636,-2.3672,-2.3672,-2.3147,-2.2103,-2.1308,-2.0867,-2.0789,-2.0644,-2.0566,-2.0566,-2.0566,-2.0566,-2.0566,-2.0566,-2.0566,-2.0566,-2.0566,-2.0566,-2.0566,-2.0566,-2.0566,-2.0566,-2.0566,-2.0566,-2.0566,-2.0566,-2.0566,-2.0566,-2.0566,-2.0566,-2.0566,-2.0566,-2.0566,-2.0566,-2.0566,-2.0566,-2.0566,-2.0566,-2.0566,-2.0566,-2.0566,-2.0566,-2.0566,-2.0566,-2.0566,-2.0566,-2.0566,-2.0566,-2.0566,-2.0566,-2.0566,-2.0566,-2.0566,-1.9766,-1.9195,-1.9195,-1.8149,-1.7496,-1.7496,-1.7342,-1.7342,-1.7342,-1.6355,-1.5861,-1.5861,-1.6026,-1.6601,-1.7504,-1.863,-1.9687,-0.8161,-0.9588,-1.0783,-1.0783,-1.1545,-1.2519,-1.3455,-1.4027,-1.4736,-1.628,-1.6922,-1.7354,-1.7862,-1.8008,-1.8008,-1.8008,-1.8008,-1.8269,-1.9177,-1.9617,-2.0575,-2.2462,-2.3337,-2.414,-2.5156,-2.5774,-2.6201,-2.6508,-2.6533,-2.6533,-2.6533,-2.6533,-2.6533,-2.6533,-2.6533,-2.6533,-2.6533,-2.5955,-2.5441,-2.5004,-2.442,-2.3588,-2.2627,-2.2627,-2.2113,-2.1155,-2.0789,-2.0566,-2.0557,-1.9923,-1.9687,-1.9599,-1.8948,-1.9107,-1.9756,-2.0401,-2.0566,-2.0479,-1.9923,-2.0079,-2.0489,-1.9844,-2.0079,-2.0566,-2.0566,-2.0566,-2.0566,-2.0566,-2.0566,-2.0566,-2.0566,-2.0566,-2.0566,-2.0566,-2.0566,-2.0566,-2.0566,-2.0566,-2.0566,-2.0566,-2.0566,-2.0566,-2.0566,-2.0079,-1.9844,-2.0489,-2.0566,-2.0566,-2.0566,-2.0566,-2.0566,-2.0566,-2.0001,-1.9687,-1.9687,-1.863,-1.7989,-1.7989,-1.7009,-1.6355,-1.6355,-1.5794,-1.547,-1.547,-1.4985,-1.4734,-1.4734,-1.5379,-1.5944,-1.6437,-1.8149,-1.9283,-0.7173,-0.8685,-0.9959,-0.9959,-1.0938,-1.2063,-1.2785,-1.3302,-1.4099,-1.5508,-1.621,-1.6784,-1.7501,-1.7862,-1.8008,-1.8008,-1.8008,-1.8202,-1.8854,-1.9177,-2.004,-2.193,-2.2721,-2.3617,-2.4901,-2.5915,-2.6533,-2.6533,-2.6533,-2.6533,-2.6533,-2.6533,-2.6533,-2.6533,-2.6245,-2.6094,-2.6094,-2.5075,-2.442,-2.4192,-2.3441,-2.2553,-2.1593,-2.1593,-2.1221,-2.0566,-2.0566,-2.0401,-2.0079,-1.9362,-1.8798,-1.847,-1.7585,-1.7819,-1.863,-1.9432,-1.9923,-2.0001,-1.8877,-1.9036,-1.9599,-1.8789,-1.9036,-1.9678,-1.9678,-1.9678,-1.9678,-1.9678,-1.9678,-1.9678,-1.9678,-1.9678,-1.9678,-1.9678,-1.9678,-1.9678,-1.9678,-1.9678,-1.9678,-1.9678,-1.9678,-1.9678,-1.9678,-1.9036,-1.8789,-1.959,-1.9678,-1.9913,-2.0489,-2.0323,-2.0001,-1.9756,-1.8957,-1.855,-1.855,-1.7496,-1.6846,-1.6846,-1.5869,-1.5296,-1.5296,-1.4489,-1.4088,-1.4088,-1.4088,-1.4088,-1.4088,-1.4894,-1.5372,-1.5779,-1.7326,-1.8221,-0.6338,-0.7099,-0.7855,-0.7855,-0.9362,-1.0858,-1.0858,-1.2338,-1.3745,-1.3818,-1.5296,-1.6636,-1.6636,-1.7354,-1.8008,-1.8008,-1.8008,-1.8008,-1.8008,-1.8787,-1.9712,-2.0769,-2.1563,-2.2428,-2.3475,-2.5346,-2.6533,-2.6533,-2.6533,-2.6533,-2.6533,-2.6533,-2.6533,-2.6533,-2.5581,-2.5087,-2.5087,-2.4036,-2.3073,-2.2103,-2.2027,-2.1517,-2.0644,-2.0644,-2.0644,-2.0566,-2.0566,-2.0001,-1.9045,-1.9036,-1.831,-1.7342,-1.7334,-1.7334,-1.7334,-1.7423,-1.8069,-1.8877,-1.7747,-1.7342,-1.7415,-1.7334,-1.7334,-1.7415,-1.7415,-1.7415,-1.7415,-1.7415,-1.7415,-1.7415,-1.7415,-1.7415,-1.7415,-1.7415,-1.7415,-1.7415,-1.7415,-1.7415,-1.7415,-1.7415,-1.7415,-1.7415,-1.7415,-1.7334,-1.7334,-1.7415,-1.7415,-1.8149,-2.0323,-1.9678,-1.863,-1.7504,-1.7342,-1.7342,-1.7342,-1.6355,-1.5779,-1.5779,-1.4734,-1.4173,-1.4173,-1.4088,-1.4088,-1.4088,-1.4088,-1.4088,-1.4088,-1.4166,-1.465,-1.5696,-1.5779,-1.6355,-0.6274,-0.703,-0.7783,-0.7783,-0.8836,-0.9965,-1.0634,-1.1304,-1.2117,-1.3448,-1.4235,-1.4871,-1.5579,-1.6428,-1.707,-1.707,-1.7569,-1.8008,-1.8008,-1.8269,-1.9056,-2.0579,-2.1026,-2.1816,-2.3352,-2.4108,-2.4541,-2.4541,-2.4541,-2.4541,-2.4541,-2.4541,-2.4541,-2.4541,-2.4181,-2.4036,-2.4036,-2.2999,-2.2328,-2.1952,-2.1375,-2.0537,-1.952,-1.952,-1.9116,-1.8381,-1.8381,-1.8221,-1.7819,-1.7082,-1.6593,-1.6191,-1.547,-1.5628,-1.6108,-1.547,-1.5876,-1.6756,-1.6355,-1.6683,-1.7172,-1.6437,-1.6683,-1.7342,-1.7342,-1.7342,-1.7342,-1.7342,-1.7342,-1.7342,-1.7342,-1.7342,-1.7342,-1.7342,-1.7342,-1.7342,-1.7342,-1.7342,-1.7342,-1.7342,-1.7342,-1.7342,-1.7342,-1.6683,-1.6273,-1.6273,-1.6846,-1.7577,-1.8301,-1.8069,-1.7747,-1.7334,-1.6683,-1.6273,-1.6273,-1.522,-1.4657,-1.4657,-1.4334,-1.4088,-1.4088,-1.4088,-1.4088,-1.4088,-1.4088,-1.4088,-1.4088,-1.4088,-1.425,-1.465,-1.5379,-1.5861,-0.6122,-0.6732,-0.7257,-0.7257,-0.8012,-0.8917,-0.9588,-1.026,-1.1156,-1.2412,-1.323,-1.389,-1.4522,-1.5438,-1.6219,-1.6567,-1.7139,-1.7647,-1.794,-1.8008,-1.8528,-2.0093,-2.0267,-2.0834,-2.2318,-2.2489,-2.2787,-2.3452,-2.3514,-2.3514,-2.3514,-2.3514,-2.3514,-2.3514,-2.3147,-2.2925,-2.2925,-2.1962,-2.1278,-2.0961,-1.9885,-1.9027,-1.839,-1.839,-1.798,-1.7342,-1.7342,-1.709,-1.6683,-1.5944,-1.5455,-1.5054,-1.4328,-1.4489,-1.5054,-1.4328,-1.4573,-1.5137,-1.5137,-1.5545,-1.6041,-1.5387,-1.5628,-1.6124,-1.6124,-1.6124,-1.6124,-1.6124,-1.6124,-1.6124,-1.6124,-1.6124,-1.6124,-1.6124,-1.6124,-1.6124,-1.6124,-1.6124,-1.6124,-1.6124,-1.6124,-1.6124,-1.6124,-1.5545,-1.5137,-1.5137,-1.5711,-1.6281,-1.6683,-1.6764,-1.6601,-1.6206,-1.5545,-1.5137,-1.5137,-1.4393,-1.3928,-1.3928,-1.3828,-1.3774,-1.3774,-1.3874,-1.3928,-1.3928,-1.4035,-1.4088,-1.4088,-1.4088,-1.4088,-1.4088,-1.4817,-1.5137,-0.5416,-0.6048,-0.6197,-0.6278,-0.7034,-0.7706,-0.7783,-0.9286,-1.0634,-1.0708,-1.2265,-1.352,-1.352,-1.4378,-1.5438,-1.628,-1.6489,-1.6853,-1.7725,-1.7872,-1.8182,-1.9035,-1.9204,-1.9545,-2.0401,-2.0566,-2.1385,-2.322,0.0,-2.3368,-2.3368,-2.3368,-2.3368,-2.3368,-2.2403,-2.1962,-2.1962,-2.1001,-2.0001,-1.8966,-1.7819,-1.7253,-1.7261,-1.7261,-1.7172,-1.718,-1.718,-1.6519,-1.5621,-1.5621,-1.5061,-1.4088,-1.4088,-1.4088,-1.4088,-1.4088,-1.4088,-1.4088,-1.4088,-1.4088,-1.4088,-1.4088,-1.4088,-1.4088,-1.4088,-1.4088,-1.4088,-1.4088,-1.4088,-1.4088,-1.4088,-1.4088,-1.4088,-1.4088,-1.4088,-1.4088,-1.4088,-1.4088,-1.4088,-1.4088,-1.4088,-1.4088,-1.4088,-1.4088,-1.4088,-1.4088,-1.4088,-1.4496,-1.5462,-1.5621,-1.522,-1.4166,-1.4088,-1.4082,-1.4068,-1.3808,-1.3552,-1.3539,-1.336,-1.3213,-1.3213,-1.3474,-1.3539,-1.3539,-1.3915,-1.4062,-1.4062,-1.4082,-1.4088,-1.4088,-1.4088,-1.4088,-0.1487,-0.2735,-0.43,-0.5879,-0.6507,-0.6883,-0.7633,-0.8232,-0.8761,-0.9518,-1.0634,-1.1527,-1.1527,-1.2924,-1.4171,-1.4378,-1.5092,-1.5658,-1.5869,-1.5948,-1.6145,-1.6897,-1.7757,-1.8554,-1.9358,-2.0157,-2.0789,-2.1308,-2.1308,-2.1308,-2.1308,-2.1308,-2.1308,-2.1308,-2.1088,-2.0934,-2.0934,-1.9913,-1.9274,-1.8966,-1.7819,-1.6846,-1.6108,-1.6108,-1.5711,-1.4901,-1.4901,-1.4741,-1.4496,-1.4496,-1.4334,-1.4088,-1.4088,-1.4088,-1.4088,-1.4088,-1.4088,-1.4088,-1.4088,-1.4088,-1.4088,-1.4088,-1.4088,-1.4088,-1.4088,-1.4088,-1.4088,-1.4088,-1.4088,-1.4088,-1.4088,-1.4088,-1.4088,-1.4088,-1.4088,-1.4088,-1.4088,-1.4088,-1.4088,-1.4088,-1.4088,-1.4088,-1.4088,-1.4088,-1.4088,-1.4088,-1.4088,-1.4166,-1.4489,-1.4496,-1.4412,-1.4173,-1.4088,-1.4001,-1.3774,-1.3687,-1.3547,-1.3333,-1.3253,-1.3213,-1.3213,-1.328,-1.332,-1.332,-1.3607,-1.3761,-1.3761,-1.3981,-1.4088,-1.4088,-1.4088,-1.4088,-0.0,-0.0861,-0.2266,-0.438,-0.564,-0.6426,-0.7026,-0.748,-0.7936,-0.8542,-0.9442,-1.0265,-1.0714,-1.1668,-1.2705,-1.3528,-1.4171,-1.4673,-1.5163,-1.5234,-1.5427,-1.6137,-1.7234,-1.8167,-1.8964,-2.0001,-2.0566,-2.0566,-2.0566,-2.0566,-2.0566,-2.0566,-2.0401,-1.9923,-1.9923,-1.9678,-1.9195,-1.806,-1.7568,-1.7568,-1.6445,-1.5553,-1.4977,-1.4977,-1.4657,-1.4088,0.0,-1.4088,-1.4088,-1.4088,-1.4088,-1.4088,-1.4088,-1.4088,-1.4088,-1.4088,-1.4088,-1.3997,-1.347,-1.3646,-1.4088,-1.4088,-1.4088,-1.4088,-1.4088,-1.4088,-1.4088,-1.4088,-1.4088,-1.4088,-1.4088,-1.4088,-1.4088,-1.4088,-1.4088,-1.4088,-1.4088,-1.4088,-1.4088,-1.4088,-1.4088,-1.4088,-1.4088,-1.4088,-1.4088,-1.4088,-1.4088,-1.4088,-1.4088,-1.4088,-1.4088,-1.4088,-1.3968,-1.3821,-1.3661,-1.34,-1.318,-1.3019,-1.2886,-1.2812,-1.2812,-1.2939,-1.3006,-1.3006,-1.33,-1.3514,-1.3559,-1.3808,-1.3961,-1.4088,-1.4088,-1.4088,-0.0,-0.0,-0.047,-0.2265,-0.4538,-0.6278,-0.6268,-0.6949,-0.7629,-0.7629,-0.8542,-0.9593,-1.0415,-1.0789,-1.1533,-1.323,-1.3528,-1.381,-1.4665,-1.4807,-1.5065,-1.5691,-1.6774,-1.7778,-1.8479,-1.9511,-2.0157,-2.0157,-2.0157,-2.0235,-2.0401,-2.0235,-1.9756,-1.8798,-1.8798,-1.831,-1.7342,-1.6273,-1.5696,-1.5703,-1.4566,-1.4088,-1.4088,-1.4088,-1.4088,-1.4088,-1.4088,-1.4088,-1.4088,-1.4088,-1.4088,-1.4088,-1.4088,-1.4088,-1.4088,-1.3913,-1.3822,-1.373,-1.2504,-1.2766,-1.3652,-1.3822,-1.3997,-1.4088,-1.4088,-1.4088,-1.4088,-1.4088,-1.4088,-1.4088,-1.4088,-1.4088,-1.4088,-1.4088,-1.4088,-1.4088,-1.4088,-1.4088,-1.4088,-1.4088,-1.4088,-1.4088,-1.4088,-1.4088,-1.4088,-1.4088,-1.4088,-1.4088,-1.4088,-1.4088,-1.4075,-1.4035,-1.3801,-1.3614,-1.3534,-1.3046,-1.2802,-1.2768,-1.2445,-1.2305,-1.2305,-1.2552,-1.2761,-1.2761,-1.2993,-1.3273,-1.3527,-1.3567,-1.3734,-1.4028,-1.4028,-1.4048,-0.0,-0.0,-0.0078,-0.047,-0.3444,-0.6291,-0.6278,-0.6419,-0.6567,-0.6567,-0.8008,-0.9372,-0.9518,-1.095,-1.2144,-1.2519,-1.2519,-1.2592,-1.2806,-1.2799,-1.3035,-1.3669,-1.4654,-1.5599,-1.6203,-1.7245,-1.79,-1.79,-1.79,-1.831,-1.9195,-1.839,-1.7827,-1.7585,-1.7577,-1.7504,-1.7342,-1.6273,-1.5696,-1.5703,-1.4566,-1.4088,-1.4088,-1.4088,-1.4088,-1.4088,-1.4088,0.0,-1.4088,-1.4088,-1.4088,-1.4088,-1.4088,-1.4088,-1.3997,-1.2942,-1.2589,-1.2419,-1.1295,-1.1042,-1.1386,-1.2334,-1.3294,-1.4088,-1.4088,-1.4088,-1.4088,-1.4088,-1.4088,-1.4088,-1.4088,-1.4088,-1.4088,-1.4088,-1.4088,-1.4088,-1.4088,-1.4088,-1.4088,-1.4088,-1.4088,-1.4088,-1.4088,-1.4088,-1.4088,-1.4088,-1.4088,-1.4088,-1.4088,-1.4088,-1.3995,-1.3748,-1.3592,-1.344,-1.2946,-1.2882,-1.2721,-1.2392,-1.2331,-1.2305,-1.2305,-1.2351,-1.2378,-1.2378,-1.2672,-1.2929,-1.2906,-1.316,-1.3434,-1.3721,-1.3721,-1.3854,-0.0,-0.0,-0.0,-0.0,-0.1487,-0.3602,-0.5802,-0.6274,-0.6268,-0.6264,-0.748,-0.8694,-0.9226,-1.0496,-1.1694,-1.2224,-1.2305,-1.2305,-1.2305,-1.2305,-1.2465,-1.2919,-1.4086,-1.499,-1.5478,-1.6579,-1.7342,-1.7342,-1.6764,-1.6927,-1.8069,-1.709,-1.6437,-1.6437,-1.5959,-1.5636,-1.5636,-1.5137,-1.4901,-1.4894,-1.4334,-1.4088,-1.4088,-1.4088,-1.3737,-1.3118,-1.3118,-1.2863,-1.226,-1.226,-1.226,-1.226,-1.226,-1.226,-1.2169,-1.1643,-1.1381,-1.1209,-1.0091,-1.0096,-1.0611,-1.0524,-1.1305,-1.226,-1.226,-1.226,-1.226,-1.226,-1.226,-1.226,-1.226,-1.226,-1.226,-1.226,-1.2687,-1.3118,-1.3118,-1.3646,-1.4088,-1.4088,-1.4088,-1.4088,-1.4088,-1.4088,-1.4088,-1.4088,-1.4088,-1.4035,-1.3874,-1.3854,-1.3801,-1.3661,-1.336,-1.306,-1.2849,-1.2605,-1.2452,-1.2311,-1.2305,-1.2305,-1.2305,-1.2305,-1.2305,-1.2305,-1.2445,-1.2667,-1.2822,-1.2899,-1.312,-1.3427,-1.3492,-1.3721,-0.0,-0.0,-0.0,-0.0,-0.0,-0.1017,-0.4774,-0.596,-0.6274,-0.6264,-0.7249,-0.8389,-0.9145,-1.0271,-1.1391,-1.215,-1.2305,-1.2305,-1.2305,-1.2305,-1.2412,-1.2788,-1.3705,-1.4513,-1.4844,-1.5898,-1.6498,-1.6498,-1.5509,-1.5457,-1.6519,-1.5786,-1.5379,-1.5379,-1.4573,-1.4088,-1.4088,-1.3822,-1.373,-1.373,-1.3476,-1.336,-1.3296,-1.3296,-1.2747,-1.1826,-1.1826,-1.1319,-1.0469,-1.0469,-1.0469,-1.0469,-1.0469,-1.0469,-1.0469,-1.0213,-1.0157,-1.0029,-0.8913,-0.9113,-0.9744,-0.8798,-0.9492,-1.0611,-1.0611,-1.0611,-1.0611,-1.0611,-1.0611,-1.0611,-1.0611,-1.0611,-1.0697,-1.0869,-1.1815,-1.2674,-1.2674,-1.347,-1.4088,-1.4088,-1.4088,-1.4088,-1.4088,-1.4088,-1.4068,-1.4001,-1.3988,-1.3888,-1.3587,-1.3494,-1.3447,-1.3447,-1.3026,-1.2795,-1.2735,-1.2438,-1.2305,-1.2305,-1.2305,-1.2305,-1.2305,-1.2305,-1.2305,-1.2305,-1.2305,-1.2418,-1.2728,-1.2728,-1.2806,-1.312,-1.3347,-1.3487,-0.0,-0.0,-0.0,-0.0,-0.0,-0.0626,-0.289,-0.4929,-0.6274,-0.6264,-0.7859,-0.9221,-0.9296,-1.0875,-1.2224,-1.2298,-1.2305,-1.2305,-1.2305,-1.2305,-1.2412,-1.2788,-1.2919,-1.306,-1.3371,-1.375,-1.392,-1.392,-1.2997,-1.3022,-1.4314,-1.4334,-1.425,-1.425,-1.4166,-1.4088,-1.4088,-1.3027,-1.2498,-1.2413,-1.1386,-1.0846,-1.0726,-1.0726,-1.0616,-1.0421,-1.0421,-1.0345,0.0,-1.0264,-1.0264,-1.0264,-1.0264,-1.0264,-1.0096,-0.9028,-0.873,-0.8717,-0.7539,-0.7205,-0.7401,-0.7312,-0.879,-1.0611,-1.0611,-1.0611,-1.0611,-1.0611,-1.0611,-1.0611,-1.0611,-1.0611,-1.0864,-1.1895,-1.3033,-1.3913,-1.3913,-1.3997,-1.4088,-1.4088,-1.4088,-1.4088,-1.4088,-1.4088,-1.3995,-1.3728,-1.3687,-1.3581,-1.3287,-1.3006,-1.2903,-1.2903,-1.2856,-1.2714,-1.2365,-1.2318,-1.2305,-1.2305,-1.2305,-1.2305,-1.2305,-1.2305,-1.2305,-1.2305,-1.2305,-1.2318,-1.2345,-1.2345,-1.2498,-1.2869,-1.2896,-1.2979,-0.0,-0.0,-0.0,-0.0,-0.1884,-0.369,-0.3205,-0.4771,-0.6274,-0.6264,-0.7936,-0.9296,-0.9296,-1.095,-1.2305,0.0,0.0,-1.2305,-1.2305,-1.2305,-1.2345,-1.2465,-1.2714,-1.2876,-1.2919,-1.3206,-1.3387,-1.3387,-1.2395,-1.2107,-1.2631,-1.2638,-1.2638,-1.2638,-1.3222,-1.3561,-1.3561,-1.2468,-1.1964,-1.1964,-1.088,-1.0336,-1.0249,-1.0249,-0.9871,-0.9136,-0.9136,-0.8733,0.0,-0.8086,-0.8086,-0.8086,-0.8086,-0.8086,-0.8004,-0.7596,-0.739,-0.745,-0.6958,-0.6827,-0.6875,-0.6875,-0.7462,-0.8256,-0.8467,-0.8532,-0.8532,-0.8532,-0.8532,-0.8532,-0.8532,-0.8532,-0.8615,-0.9043,-1.0091,-1.0966,-1.0966,-1.1483,-1.1997,-1.1997,-1.1997,-1.2169,-1.2857,-1.2379,-1.2242,-1.3408,-1.2913,-1.2616,-1.2888,-1.2896,-1.2755,-1.2498,-1.2478,-1.2432,-1.2311,-1.2305,-1.2305,-1.2305,-1.2305,-1.2305,-1.2305,-1.2305,-1.2305,-1.2305,-1.2305,-1.2305,-1.2305,-1.2305,-1.2365,-1.2485,-1.2735,-1.2889,-0.0,-0.0,-0.0,-0.0,-0.3146,-0.5921,-0.4387,-0.5249,-0.6274,-0.6264,-0.7936,-0.9296,-0.9296,-1.095,-1.2305,0.0,0.0,-1.2305,-1.2305,-1.2305,-1.2305,-1.2305,-1.2485,-1.2619,-1.2619,-1.266,-1.2384,-1.1816,-1.1107,-1.0503,-1.0178,-1.0433,-1.0784,-1.1255,-1.1908,-1.2313,-1.2313,-1.1249,-1.0681,-1.0681,-0.9629,-0.9113,-0.9133,-0.9133,-0.8617,-0.7761,-0.7761,-0.7285,0.0,-0.6569,-0.6569,-0.6569,-0.6569,-0.6569,-0.6569,-0.6569,-0.6597,-0.6634,-0.6634,-0.6661,-0.6702,-0.6702,-0.6702,-0.6739,-0.6946,-0.701,-0.701,-0.701,-0.701,-0.7021,-0.7065,-0.7334,-0.7603,-0.7654,-0.8536,-0.9405,-0.9405,-1.0009,-1.059,-1.0525,-1.0509,-1.0745,-1.1522,-1.095,-1.0821,-1.2239,-1.1662,-1.1292,-1.1725,-1.1764,-1.169,-1.1422,-1.1403,-1.1552,-1.1848,-1.1848,-1.17,-1.1397,-1.1403,-1.1403,-1.1403,-1.1403,-1.1403,-1.1403,-1.1403,-1.1403,-1.1403,-1.17,-1.1848,-1.1848,-1.2362,-1.2735,-0.0,-0.0,-0.0,-0.0,-0.3146,-0.6322,-0.6298,-0.6285,-0.6274,-0.6264,-0.7936,-0.9296,-0.9296,-1.095,-1.2305,-1.2305,-1.2305,0.0,-1.2305,-1.2305,-1.2305,-1.2305,-1.2305,-1.2305,-1.2305,-1.1657,-1.0426,-0.8629,-0.8315,0.0,-0.6635,-0.7344,-0.8576,-1.0186,-1.0201,-1.0201,-1.0201,-0.9055,-0.8397,-0.8401,-0.7267,-0.6702,-0.6555,-0.6555,-0.6476,-0.6342,-0.6342,-0.6342,0.0,-0.6268,-0.6268,-0.6268,-0.6268,-0.6268,-0.6268,-0.6268,-0.6356,-0.6474,-0.6474,-0.6573,-0.6702,-0.6702,-0.6702,-0.6702,-0.6705,-0.6705,-0.6705,-0.6705,-0.6705,-0.6739,-0.6892,-0.7773,-0.8743,-0.8848,-0.9753,-1.0611,-1.0611,-1.0611,-1.0545,-1.0401,-1.0439,-1.0377,-1.0243,-1.0207,-1.0129,-0.9823,-0.9708,-0.9627,-0.9408,-0.9301,-0.9301,-0.9296,-0.9296,-0.9744,-1.0708,-1.0789,-1.0415,-0.9372,-0.9296,-0.9296,-0.9296,-0.9296,-0.9296,-0.9296,-0.9296,-0.9296,-0.9296,-1.034,-1.0789,-1.0858,-1.1848,-1.2465,-0.0,-0.0,-0.0703,-0.3604,-0.4231,-0.446,-0.5964,-0.681,-0.733,-0.7326,-0.8908,-1.034,-1.034,-1.1397,-1.2305,-1.2305,-1.2305,-1.2305,-1.2305,-1.2305,-1.207,-1.1391,-1.0645,-1.0276,-1.0276,-1.0041,-0.9658,-0.9029,-0.8362,-0.7794,-0.7406,-0.6976,-0.7301,-0.8498,-0.9199,-0.9586,-0.9586,-0.8498,-0.7952,-0.7952,-0.6946,-0.6376,-0.6329,-0.6329,-0.6302,-0.6338,-0.6338,-0.6338,0.0,-0.6338,-0.6338,-0.6338,-0.6338,-0.6338,-0.6338,-0.6338,-0.6288,-0.6329,-0.6329,-0.6359,-0.64,-0.64,-0.64,-0.64,-0.64,-0.6539,-0.6702,-0.6702,-0.6702,-0.6712,-0.6759,-0.7017,-0.7362,-0.7414,-0.7674,-0.7922,-0.7922,-0.7922,-0.7903,-0.7852,-0.7836,-0.8065,-0.8823,-0.8218,-0.8121,-0.9478,-0.8956,-0.8611,-0.9231,-0.9296,-0.9296,-0.9296,-0.9296,-0.9448,-0.9744,-0.9744,-0.9669,-0.9296,-0.9296,-0.9296,-0.9296,-0.9296,-0.9296,-0.9296,-0.9296,-0.9296,-0.9296,-0.9593,-0.9744,-0.982,-1.0121,-1.0692,-0.2341,-0.234,-0.3044,-0.5655,-0.5326,-0.4841,-0.6976,-0.7658,-0.7936,-0.8313,-0.9664,-1.0783,-1.0783,-1.162,-1.2305,-1.2305,-1.2305,-1.2305,-1.2305,-1.1996,-1.1391,-1.034,-0.9669,-0.9145,-0.8765,-0.877,-0.8542,-0.8161,-0.7557,-0.7249,-0.7249,-0.6644,-0.6567,-0.7253,-0.7859,-0.8161,-0.8161,-0.7557,-0.7249,-0.7249,-0.6567,-0.6338,-0.6338,-0.6338,-0.6338,-0.6338,-0.6338,-0.6338,0.0,-0.6338,-0.6338,-0.6338,-0.6338,-0.6338,-0.6338,-0.6338,-0.6338,-0.6338,-0.6338,-0.6338,-0.6338,-0.6338,-0.6338,-0.6338,-0.6338,-0.639,-0.6536,-0.6536,-0.6536,-0.6549,-0.66,-0.6614,-0.6627,-0.6685,-0.6702,-0.6702,-0.6702,-0.6702,-0.6681,-0.6624,-0.6614,-0.6838,-0.7492,-0.6925,-0.686,-0.8186,-0.7777,-0.748,-0.8084,-0.8161,-0.8161,-0.8161,-0.8161,-0.8161,-0.8161,-0.8542,-0.8537,-0.8161,-0.8161,-0.8161,-0.8161,-0.8161,-0.8161,-0.8161,-0.8161,-0.8161,-0.8161,-0.8542,-0.8917,-0.9296,-0.9296,-0.9669,0.0,-0.6295,-0.6295,-0.6295,-0.644,-0.6979,-0.8789,-0.8593,0.0,0.0,0.0,-1.0938,-1.0938,-1.1694,-1.2305,-1.2305,-1.2305,-1.2305,-1.2305,-1.1465,-1.0415,-0.9523,-0.9296,-0.8846,-0.7859,-0.7706,-0.7326,-0.6338,-0.6338,-0.6338,-0.6338,-0.6338,-0.6338,-0.6338,-0.6338,-0.6338,-0.6338,-0.6338,-0.6338,-0.6338,-0.6338,-0.6338,-0.6338,-0.6338,-0.6338,0.0,-0.6338,-0.6338,0.0,-0.6338,-0.6338,-0.6338,-0.6338,-0.6338,-0.6338,-0.6338,-0.6338,-0.6338,-0.6338,-0.6338,-0.6338,-0.6338,-0.6338,-0.6338,-0.6338,-0.6338,-0.6338,-0.6338,-0.6338,-0.6291,-0.6424,-0.6458,-0.6491,-0.6634,-0.6668,-0.6668,-0.6668,-0.6668,-0.6627,-0.6485,-0.6458,-0.6417,-0.6285,-0.6338,-0.6338,-0.6338,-0.6338,-0.6338,-0.6338,-0.6338,-0.6338,-0.6338,-0.6338,-0.6338,-0.6338,-0.7176,-0.7326,-0.6338,-0.6338,-0.6338,-0.6338,-0.6338,-0.6338,-0.6338,-0.6338,-0.6338,-0.6338,-0.7249,-0.8161,-0.9074,-0.9074,-0.915,-0.6268,0.0,-0.6271,-0.6271,-0.7439,-0.8611,0.0,0.0,0.0,0.0,0.0,0.0,0.0,-1.215,-1.2305,-1.2305,-1.2305,-1.2305,-1.2305,-1.1465,-1.0708,-1.049,-0.9064,-0.8084,-0.7859,-0.7099,-0.6567,-0.6338,-0.6338,-0.6338,-0.6338,-0.6338,-0.6338,-0.6338,-0.6338,-0.6338,-0.6338,-0.6338,-0.6338,-0.6338,-0.6338,-0.6338,-0.6338,-0.6338,-0.6338,-0.6338,-0.6338,0.0,-0.6338,-0.6338,-0.6338,-0.6338,-0.6338,-0.6338,-0.6338,-0.6338,-0.6338,-0.6338,-0.6338,-0.6338,-0.6338,-0.6338,-0.6338,-0.6338,-0.6338,-0.6338,-0.6338,-0.6338,-0.6338,-0.6345,-0.6302,-0.6312,-0.6318,-0.6356,-0.6366,-0.6366,-0.6366,-0.6366,-0.6352,-0.6318,-0.6312,-0.6298,-0.6345,-0.6338,-0.6338,-0.6338,-0.6338,-0.6338,-0.6338,-0.6338,-0.6338,-0.6338,-0.6338,-0.6338,-0.6338,-0.649,-0.6567,-0.6338,-0.6338,-0.6338,-0.6338,-0.6338,-0.6338,-0.6338,-0.6338,-0.6338,-0.6338,-0.6567,-0.6795,-0.7022,-0.7022,-0.7403,-0.628,-0.6304,-0.6331,-0.6311,-0.7808,-0.9469,-1.0046,0.0,0.0,0.0,0.0,0.0,0.0,-1.2305,-1.2305,-1.2305,-1.2305,-1.215,-1.1694,-1.1162,-1.064,-1.019,-0.8765,-0.7783,0.0,-0.6868,-0.6338,-0.6338,-0.6338,-0.6338,-0.6338,-0.6338,-0.6338,-0.6338,-0.6338,-0.6338,-0.6338,-0.6338,-0.6338,-0.6338,-0.6268,-0.6271,-0.6271,-0.6274,-0.6278,-0.6278,-0.6278,0.0,-0.6278,-0.6278,-0.6278,-0.6278,-0.6278,-0.6278,-0.6278,-0.6278,-0.6278,-0.6278,-0.6278,-0.6278,-0.6278,-0.6278,-0.6278,-0.6278,-0.6271,-0.6271,-0.6268,-0.6264,-0.6338,-0.6338,-0.6338,-0.6338,-0.6338,-0.6338,-0.6338,-0.6338,-0.6338,-0.6338,-0.6338,-0.6338,-0.6338,-0.6338,-0.6338,-0.6338,-0.6338,-0.6338,-0.6338,-0.6338,-0.6338,-0.6338,-0.6338,-0.6338,-0.6338,-0.6338,-0.6338,-0.6338,-0.6338,-0.6338,-0.6338,-0.6338,-0.6338,-0.6338,-0.6338,-0.6338,-0.6338,-0.6338,-0.6338,-0.6338,-0.6338,-0.6338,-0.6338,-0.6567,-0.7231,-0.7214,-0.7038,-0.643,-0.808,-1.0231,-1.1902,0.0,0.0,0.0,0.0,0.0,0.0,-1.2372,-1.2305,-1.2305,-1.2305,-1.1996,-1.1162,-1.1013,-1.0714,-0.9825,-0.8841,-0.8237,-0.8008,-0.7099,-0.649,-0.6338,-0.6338,-0.6338,-0.6338,-0.6338,-0.6338,-0.6338,-0.6338,-0.6338,-0.6338,-0.6338,-0.6338,-0.6338,-0.6274,-0.6278,-0.6278,-0.597,-0.5814,-0.5814,0.0,0.0,-0.5814,-0.5814,-0.5814,-0.5814,-0.5814,-0.5814,-0.5814,-0.5814,-0.5814,-0.5814,-0.5814,-0.5814,-0.5814,-0.5814,-0.5814,-0.5811,-0.5802,-0.6041,-0.6278,-0.6268,-0.6264,-0.6338,-0.6338,-0.6338,-0.6338,-0.6338,-0.6338,-0.6338,-0.6338,-0.6338,-0.6338,-0.6338,-0.6338,-0.6338,-0.6338,-0.6338,-0.6338,-0.6338,-0.6338,-0.6338,-0.6338,-0.6338,-0.6338,-0.6338,-0.6338,-0.6338,-0.6338,-0.6338,-0.6338,-0.6338,-0.6338,-0.6338,-0.6338,-0.6338,-0.6338,-0.6338,-0.6338,-0.6338,-0.6338,-0.6338,-0.6338,-0.6338,-0.6338,-0.6338,-1.1362,-1.1353,-1.0565,-0.7163,-0.9095,-1.1902,-1.2208,0.0,0.0,0.0,0.0,0.0,0.0,-1.2806,-1.2305,-1.2305,-1.2305,-1.2224,-1.2077,-1.207,-1.1996,-1.1848,-1.0938,-1.004,-0.9145,-0.8161,-0.7253,-0.6338,-0.6338,-0.6338,-0.6338,-0.6338,-0.6338,-0.6338,-0.6338,-0.6338,-0.6338,-0.6338,-0.6338,-0.6338,-0.6274,-0.6278,-0.6274,-0.438,-0.3595,-0.3595,0.0,-0.3595,-0.3595,-0.3595,-0.3595,-0.3595,-0.3595,-0.3595,-0.3595,-0.3595,-0.3595,-0.3595,-0.3595,-0.3595,-0.3595,-0.3595,-0.3595,-0.3595,-0.3595,-0.4857,-0.6291,-0.6278,-0.6268,-0.6338,-0.6338,-0.6338,-0.6338,-0.6338,-0.6338,-0.6338,-0.6338,-0.6338,-0.6338,-0.6338,-0.6338,-0.6338,-0.6338,-0.6338,-0.6338,-0.6338,-0.6338,-0.6338,-0.6338,-0.6338,-0.6338,-0.6338,-0.6338,-0.6338,-0.6338,-0.6338,-0.6338,-0.6338,-0.6338,-0.6338,-0.6338,-0.6338,-0.6338,-0.6338,-0.6338,-0.6338,-0.6338,-0.6338,-0.6338,-0.6338,-0.6338,-0.6338,-1.2296,-1.2315,-1.1334,-0.7281,-0.936,-1.2267,0.0,0.0,0.0,0.0,0.0,0.0,0.0,-1.2592,-1.2305,-1.2305,-1.2305,-1.2305,-1.2305,-1.2305,-1.2305,0.0,0.0,-1.0415,-0.9372,-0.8389,-0.7403,-0.6416,-0.6338,-0.6338,-0.6338,-0.6338,-0.6338,-0.6338,-0.6338,-0.6338,-0.6338,-0.6338,-0.6338,-0.6338,-0.6278,-0.5724,-0.4535,-0.2425,-0.1409,-0.1409,0.0,-0.1409,-0.1409,-0.1409,-0.1409,-0.1409,-0.1409,-0.1409,-0.1409,-0.1409,-0.1409,-0.1409,-0.1409,-0.1409,-0.1409,-0.1409,-0.1409,-0.1644,-0.274,-0.4636,-0.6149,-0.5404,-0.5715,-0.6271,-0.6264,-0.6338,-0.6338,-0.6338,-0.6338,-0.6338,-0.6338,-0.6338,-0.6338,-0.6338,-0.6338,-0.6338,-0.6338,-0.6338,-0.6338,-0.6338,-0.6338,-0.6338,-0.6338,-0.6338,-0.6338,-0.6338,-0.6338,-0.6338,-0.6338,-0.6338,-0.6338,-0.6338,-0.6338,-0.6338,-0.6338,-0.6338,-0.6338,-0.6338,-0.6338,-0.6338,-0.6338,-0.6338,-0.6338,-0.6338,-0.6338,-0.6338,-1.2285,-1.2271,-1.1531,-0.8441,-0.9994,0.0,0.0,0.0,0.0,0.0,0.0,0.0,0.0,-1.2806,-1.2666,-1.2666,-1.2445,-1.2305,-1.2305,-1.2305,-1.2305,-1.2305,-1.162,-1.064,-0.9448,-0.8618,-0.7629,-0.6416,-0.6338,-0.6338,-0.6338,-0.6338,-0.6338,-0.6338,-0.6338,-0.6338,-0.6338,-0.6264,-0.6264,-0.6338,-0.6285,-0.5176,-0.3046,-0.094,-0.0,-0.0,-0.0,-0.0,-0.0,-0.0,-0.0,-0.0,-0.0,-0.0,-0.0,-0.0,-0.0,-0.0,-0.0,-0.0,-0.0,-0.0,-0.0,-0.0314,-0.1884,-0.3538,-0.4726,-0.4307,-0.5251,-0.6285,-0.6268,-0.6264,-0.6264,-0.6338,-0.6338,-0.6338,-0.6338,-0.6338,-0.6338,-0.6338,-0.6338,-0.6338,-0.6338,-0.6338,-0.6338,-0.6338,-0.6338,-0.6338,-0.6338,-0.6338,-0.6338,-0.6338,-0.6338,-0.6338,-0.6338,-0.6338,-0.6338,-0.6338,-0.6338,-0.6338,-0.6338,-0.6338,-0.6338,-0.6338,-0.6338,-0.6338,-0.6338,-0.6338,-0.6338,-0.6338,-0.6338,-0.6338,-1.2303,-1.2324,-1.2257,-1.1924,-1.2091,0.0,-1.2305,-1.2305,0.0,-1.2297,0.0,0.0,0.0,-1.4243,-1.36,-1.36,-1.2879,-1.2305,-1.2305,0.0,-1.2305,-1.2305,-1.2224,-1.1397,-0.9523,-0.9221,-0.8389,-0.6412,-0.6338,-0.6338,-0.6338,-0.6338,-0.6338,-0.6338,-0.6338,-0.6338,-0.6338,-0.6271,-0.6271,-0.6338,-0.6285,-0.5176,-0.3046,-0.094,-0.0,-0.0,-0.0,-0.0,-0.0,-0.0,-0.0,-0.0,-0.0,-0.0,-0.0,-0.0,-0.0,-0.0,-0.0,-0.0,-0.0,-0.0,-0.0,-0.0,-0.0157,-0.0314,-0.0942,-0.3458,-0.5202,-0.6315,-0.6274,-0.6271,-0.6274,-0.6264,-0.6338,-0.6338,-0.6338,-0.6338,-0.6338,-0.6338,-0.6338,-0.6338,-0.6338,-0.6338,-0.6338,-0.6338,-0.6338,-0.6338,-0.6338,-0.6338,-0.6338,-0.6338,-0.6338,-0.6338,-0.6338,-0.6338,-0.6338,-0.6338,-0.6338,-0.6338,-0.6338,-0.6338,-0.6338,-0.6338,-0.6338,-0.6338,-0.6338,-0.6338,-0.6338,-0.6338,-0.6338,-0.6338,-1.229,-1.4033,-1.5821,-1.5862,-1.5821,0.0,0.0,-1.2328,-1.2676,-1.3825,-1.3128,0.0,0.0,-1.445,-1.4665,-1.4665,-1.381,-1.3171,-1.3171,-1.2659,-1.2305,-1.2305,-1.2305,-1.1774,-1.034,-0.9669,-0.8689,-0.7326,-0.6644,-0.6338,-0.6338,-0.6338,-0.6338,-0.6338,-0.6338,-0.6338,-0.6338,-0.6274,-0.6278,-0.6271,-0.6302,-0.5911,-0.4956,-0.1569,-0.0,-0.0,-0.0,-0.0,-0.0,-0.0,-0.0,-0.0,-0.0,-0.0,-0.0,-0.0,-0.0,-0.0,-0.0,-0.0,-0.0,-0.0,-0.0,-0.0,-0.0,-0.0,-0.0236,-0.1254,-0.3855,-0.6009,-0.4618,-0.5326,-0.6288,-0.6285,-0.6278,-0.6271,-0.6271,-0.6268,-0.6338,-0.6338,-0.6338,-0.6338,-0.6338,-0.6338,-0.6338,-0.6338,-0.6338,-0.6338,-0.6338,-0.6338,-0.6338,-0.6338,-0.6338,-0.6338,-0.6338,-0.6338,-0.6338,-0.6338,-0.6338,-0.6338,-0.6338,-0.6338,-0.6338,-0.6338,-0.6338,-0.6338,-0.6338,-0.6338,-0.6338,-0.6338,-0.6338,-0.6338,-1.2305,-1.5073,-1.7733,-1.6466,0.0,0.0,-1.4665,-1.3177,-1.3006,-1.553,-1.48,-1.3825,-1.4498,0.0,0.0,0.0,-1.4807,-1.4027,-1.3745,-1.3171,-1.2666,-1.2372,-1.2305,-1.1922,-1.0932,-0.9895,-0.8917,-0.7859,-0.6872,-0.6338,-0.6338,-0.6338,-0.6338,-0.6338,-0.6338,-0.6338,-0.6338,-0.6278,-0.5964,-0.5323,-0.5996,-0.6332,-0.6169,-0.1963,-0.0,-0.0,-0.0,-0.0,-0.0,-0.0,-0.0,-0.0,-0.0,-0.0,-0.0,-0.0,-0.0,-0.0,-0.0,-0.0,-0.0,-0.0,-0.0,-0.0,-0.0,-0.0,-0.0,-0.0,-0.212,-0.4099,-0.3292,-0.3682,-0.447,-0.5098,-0.5329,-0.5485,-0.6122,-0.6274,-0.6268,-0.6268,-0.6264,-0.6338,-0.6338,-0.6338,-0.6338,-0.6338,-0.6338,-0.6338,-0.6338,-0.6338,-0.6338,-0.6338,-0.6338,-0.6338,-0.6338,-0.6338,-0.6338,-0.6338,-0.6338,-0.6338,-0.6338,-0.6338,-0.6338,-0.6338,-0.6338,-0.6338,-0.6338,-0.6338,-0.6338,-0.6338,-0.6338,-0.6338,-1.2305,-1.5076,-1.7085,0.0,0.0,0.0,-1.8016,-1.5076,-1.3454,-1.7195,-1.7259,-1.6636,-1.6636,-1.6636,0.0,-1.6627,-1.579,-1.4879,-1.3818,-1.3673,-1.331,-1.2445,-1.2305,-1.1922,-1.0938,-0.9895,-0.8917,-0.7859,-0.6872,-0.6338,-0.6338,-0.6338,-0.6338,-0.6338,-0.6338,-0.6338,-0.6338,-0.6285,-0.5254,-0.3124,-0.5207,-0.626,-0.6087,-0.1885,-0.0,-0.0,-0.0,-0.0,-0.0,-0.0,-0.0,-0.0,-0.0,-0.0,-0.0,-0.0,-0.0,-0.0,-0.0,-0.0,-0.0,-0.0,-0.0,-0.0,-0.0,-0.0,-0.0,-0.0,-0.0,-0.0471,-0.2518,-0.1569,-0.0548,-0.2577,-0.3046,-0.3673,-0.5814,-0.6285,-0.6278,-0.6278,-0.6271,-0.6338,-0.6338,-0.6338,-0.6338,-0.6338,-0.6338,-0.6338,-0.6338,-0.6338,-0.6338,-0.6338,-0.6338,-0.6338,-0.6338,-0.6338,-0.6338,-0.6338,-0.6338,-0.6338,-0.6338,-0.6338,-0.6338,-0.6338,-0.6338,-0.6338,-0.6338,-0.6338,-0.6338,-0.6338,-0.6338,-0.6338,-1.3005,-1.5076,0.0,-1.6611,0.0,0.0,0.0,-1.7101,0.0,0.0,-1.7751,-1.7354,-1.6706,-1.7139,0.0,-1.7579,-1.6228,-1.5092,-1.4807,-1.3593,-1.2592,-1.2305,-1.2305,-1.215,-1.1848,-1.0346,-0.9145,-0.8841,-0.7249,-0.6338,-0.6338,-0.6338,-0.6338,-0.6338,-0.6338,-0.6264,-0.6274,-0.6288,-0.5983,-0.5355,-0.2987,-0.1886,-0.1806,-0.055,-0.0,-0.0,-0.0,-0.0,-0.0,-0.0,-0.0,-0.0,-0.0,-0.0,-0.0,-0.0,-0.0,-0.0,-0.0,-0.0,-0.0,-0.0,-0.0,-0.0,-0.0,-0.0,-0.0,-0.0,-0.0,-0.0157,-0.0786,-0.0471,-0.0157,-0.0784,-0.0939,-0.1095,-0.1721,-0.3049,-0.446,-0.597,-0.6288,-0.6285,-0.6285,-0.6285,-0.6281,-0.6274,-0.6274,-0.6271,-0.6264,-0.6338,-0.6338,-0.6338,-0.6338,-0.6338,-0.6338,-0.6338,-0.6338,-0.6338,-0.6338,-0.6338,-0.6338,-0.6338,-0.6338,-0.6338,-0.6338,-0.6338,-0.6338,-0.6338,-0.6338,-0.6338,-0.6338,-0.6338,-1.5202,-1.6228,0.0,-1.8036,-1.8007,-1.8007,-1.7969,0.0,0.0,0.0,-1.8018,-1.7862,-1.7285,-1.7647,0.0,-1.8008,-1.6724,-1.5658,-1.5234,-1.3882,-1.2732,-1.2372,-1.2305,-1.215,-1.1768,-1.0271,-0.9145,-0.877,-0.7176,-0.6338,-0.6338,-0.6338,-0.6338,-0.6338,-0.6338,-0.6268,-0.6278,-0.5491,-0.5427,-0.625,-0.2043,-0.0,-0.0,-0.0,-0.0,-0.0,-0.0,-0.0,-0.0,-0.0,-0.0,-0.0,-0.0,-0.0,-0.0,-0.0,-0.0,-0.0,-0.0,-0.0,-0.0,-0.0,-0.0,-0.0,-0.0,-0.0,-0.0,-0.0,-0.0,-0.0,-0.0,-0.0,-0.0,-0.0,-0.0,-0.0,-0.0,-0.1017,-0.2267,-0.3524,-0.4467,-0.5018,-0.5018,-0.5018,-0.5015,-0.501,-0.5724,-0.6285,-0.6274,-0.6274,-0.6274,-0.6274,-0.6271,-0.6268,-0.6268,-0.6264,-0.6338,-0.6338,-0.6338,-0.6338,-0.6338,-0.6338,-0.6338,-0.6338,-0.6338,-0.6338,-0.6338,-0.6338,-0.6338,-0.6338,-0.6338,-0.6338,-1.7975,-1.777,-1.7593,-1.7877,-1.7988,0.0,-1.8008,-1.8008,-1.8008,-1.8008,0.0,-1.8008,-1.8008,-1.8008,-1.8008,-1.8008,-1.7139,-1.614,-1.5305,-1.4243,-1.3237,-1.2372,-1.2305,-1.1922,-1.0932,-0.9895,-0.8917,-0.7859,-0.6872,-0.6338,-0.6338,-0.6338,-0.6338,-0.6338,-0.6264,-0.6268,-0.6281,-0.438,-0.4155,-0.5686,-0.1806,-0.0,-0.0,-0.0,-0.0,-0.0,-0.0,-0.0,-0.0,-0.0,-0.0,-0.0,-0.0,-0.0,-0.0,-0.0,-0.0,-0.0,-0.0,-0.0,-0.0,-0.0,-0.0,-0.0,-0.0,-0.0,-0.0,-0.0,-0.0,-0.0,-0.0,-0.0,-0.0,-0.0,-0.0,-0.0,-0.0,-0.0,-0.0,-0.0,-0.1563,-0.2812,-0.2812,-0.2812,-0.2812,-0.2812,-0.4623,-0.5977,-0.5977,-0.5977,-0.5977,-0.5977,-0.6045,-0.6119,-0.6278,-0.6271,-0.6264,-0.6264,-0.6338,-0.6338,-0.6338,-0.6338,-0.6338,-0.6338,-0.6338,-0.6338,-0.6338,-0.6338,-0.6338,-0.6338,-0.6338,-0.6338,-1.7998,-1.5797,0.0,-1.7269,-1.7969,-1.8008,-1.8008,-1.8008,-1.8008,-1.8008,-1.8008,-1.8008,-1.8008,-1.8008,-1.8008,-1.8008,-1.6585,-1.5438,-1.5234,-1.3665,-1.2519,-1.2298,-1.2305,-1.1922,-1.0932,-0.9895,-0.8917,-0.7859,-0.6872,-0.6338,-0.6338,-0.6338,-0.6338,-0.6338,-0.6271,-0.6281,-0.6291,-0.583,-0.4169,0.0,-0.0471,-0.0,-0.0,-0.0,-0.0,-0.0,-0.0,-0.0,-0.0,-0.0,-0.0,-0.0,-0.0,-0.0,-0.0,-0.0,-0.0,-0.0,-0.0,-0.0,-0.0,-0.0,-0.0,-0.0,-0.0,-0.0,-0.0,-0.0,-0.0,-0.0,-0.0,-0.0,-0.0,-0.0,-0.0,-0.0,-0.0,-0.0,-0.0,-0.0,-0.0392,-0.0706,-0.0706,-0.0706,-0.0705,-0.0704,-0.2423,-0.3752,-0.3752,-0.3752,-0.3752,-0.3752,-0.3752,-0.446,-0.6132,-0.6281,-0.6274,-0.6274,-0.6268,-0.6338,-0.6338,-0.6338,-0.6338,-0.6338,-0.6338,-0.6338,-0.6338,-0.6338,-0.6338,-0.6338,-0.6338,-0.6338,-1.7968,0.0,0.0,-1.7483,0.0,-1.8008,-1.8008,-1.8008,-1.8027,-1.7978,-1.7998,-1.8008,-1.8008,-1.8008,-1.7862,-1.7432,-1.6158,-1.5021,-1.4522,-1.3237,-1.2305,-1.2305,-1.2305,-1.17,-1.0196,-0.9599,-0.8689,-0.7176,-0.6567,-0.6338,-0.6338,-0.6338,-0.6264,-0.6271,-0.6274,-0.6288,-0.6312,-0.6325,-0.4173,-0.0,-0.0,-0.0,-0.0,-0.0,-0.0,-0.0,-0.0,-0.0,-0.0,-0.0,-0.0,-0.0,-0.0,-0.0,-0.0,-0.0,-0.0,-0.0,-0.0,-0.0,-0.0,-0.0,-0.0,-0.0,-0.0,-0.0,-0.0,-0.0,-0.0,-0.0,-0.0,-0.0,-0.0,-0.0,-0.0,-0.0,-0.0,-0.0,-0.0,-0.0,-0.0,-0.0,-0.0,-0.0,-0.0,-0.0,-0.094,-0.1643,-0.1643,-0.1643,-0.1643,-0.1643,-0.1641,-0.2033,-0.321,-0.4224,-0.5171,-0.6207,-0.6281,-0.6278,-0.6278,-0.6271,-0.6268,-0.6338,-0.6338,-0.6338,-0.6338,-0.6338,-0.6338,-0.6338,-0.6338,-0.6338,-1.7977,0.0,-1.8008,-1.8008,-1.8008,0.0,-1.8008,-1.8027,-1.8027,-1.8035,-1.8017,-1.7998,-1.8037,-1.8008,-1.7695,-1.6673,-1.5737,-1.4879,-1.381,-1.2879,-1.2305,-1.2305,-1.215,-1.1323,-0.9448,-0.9145,-0.8313,-0.6412,-0.6338,-0.6338,-0.6338,-0.6264,-0.6268,-0.6278,-0.6285,-0.6302,-0.6329,-0.5608,-0.3461,-0.0,-0.0,-0.0,-0.0,-0.0,-0.0,-0.0,-0.0,-0.0,-0.0,-0.0,-0.0,-0.0,-0.0,-0.0,-0.0,-0.0,-0.0,-0.0,-0.0,-0.0,-0.0,-0.0,-0.0,-0.0,-0.0,-0.0,-0.0,-0.0,-0.0,-0.0,-0.0,-0.0,-0.0,-0.0,-0.0,-0.0,-0.0,-0.0,-0.0,-0.0,-0.0,-0.0,-0.0,-0.0,-0.0,-0.0,-0.0,-0.0,-0.0,-0.0,-0.0,-0.0,-0.0,-0.0,-0.0,-0.1563,-0.3283,-0.5101,-0.5575,-0.5733,-0.5733,-0.5883,-0.6032,-0.6264,-0.6264,-0.6338,-0.6338,-0.6338,-0.6338,-0.6338,-0.6338,-0.6338,-1.7969,0.0,-1.8008,0.0,-1.8008,-1.8008,0.0,0.0,-1.7966,0.0,-1.7975,-1.8014,-1.7976,-1.8002,-1.7581,-1.6378,-1.5647,-1.4879,-1.381,-1.2879,-1.2305,-1.2305,-1.1545,-1.0565,-0.9448,-0.8542,-0.7553,-0.6416,-0.6338,-0.6338,-0.6338,-0.6271,-0.6278,-0.6278,-0.6308,-0.6325,-0.6329,-0.2672,-0.055,-0.0,-0.0,-0.0,-0.0,-0.0,-0.0,-0.0,-0.0,-0.0,-0.0,-0.0,-0.0,-0.0,-0.0,-0.0,-0.0,-0.0,-0.0,-0.0,-0.0,-0.0,-0.0,-0.0,-0.0,-0.0,-0.0,-0.0,-0.0,-0.0,-0.0,-0.0,-0.0,-0.0,-0.0,-0.0,-0.0,-0.0,-0.0,-0.0,-0.0,-0.0,-0.0,-0.0,-0.0,-0.0,-0.0,-0.0,-0.0,-0.0,-0.0,-0.0,-0.0,-0.0,-0.0,-0.0,-0.0,-0.0235,-0.0548,-0.0861,-0.25,-0.3517,-0.3517,-0.4139,-0.5082,-0.6274,-0.6268,-0.6338,-0.6338,-0.6338,-0.6338,-0.6338,-0.6338,-0.6338,-1.8008,-1.8008,-1.8008,0.0,-1.8008,-1.8008,-1.8008,-1.8007,-1.7394,-1.5242,-1.4844,-1.4838,-1.4814,-1.482,-1.5089,-1.5931,-1.5152,-1.4027,-1.3025,-1.2063,-1.1465,-1.1465,-1.0565,-0.9593,-0.8542,-0.8084,-0.7407,-0.6345,-0.6271,-0.6274,-0.6281,-0.6285,-0.6295,-0.6308,-0.6322,-0.5129,-0.283,-0.0942,0.1178,0.354,0.1099,0.0627,0.1721,0.0549,-0.0,-0.0,-0.0,-0.0,-0.0,-0.0,-0.0,-0.0,-0.0,-0.0,-0.0,-0.0,-0.0,-0.0,-0.0,-0.0,-0.0,-0.0,-0.0,-0.0,-0.0,-0.0,-0.0,-0.0,-0.0,-0.0,-0.0,-0.0,-0.0,-0.0,-0.0,-0.0,-0.0,-0.0,-0.0,-0.0,-0.0,-0.0,-0.0,-0.0,-0.0,-0.0,-0.0,-0.0,-0.0,-0.0,-0.0,-0.0,-0.0,-0.0,-0.0,-0.0,-0.0,-0.0,-0.0862,-0.1331,-0.1331,-0.321,-0.4867,-0.6305,-0.6278,-0.6338,-0.6338,-0.6338,-0.6338,-0.6338,-0.6338,-0.6338,-1.8008,0.0,-1.8008,-1.8008,-1.8008,-1.8008,0.0,0.0,-1.6888,0.0,-1.2319,-1.227,-1.2298,-1.2322,-1.2928,-1.4816,-1.4141,-1.3004,-1.207,-1.1019,-1.0415,-1.0415,-0.9518,-0.8623,-0.8021,-0.7638,-0.7111,-0.6359,-0.5802,-0.5488,-0.5494,-0.598,-0.6312,-0.6329,-0.4249,-0.1568,0.157,0.1098,0.2353,0.5439,0.2826,0.2115,0.3046,0.2038,0.102,-0.0,-0.0,-0.0,-0.0,-0.0,-0.0,-0.0,-0.0,-0.0,-0.0,-0.0,-0.0,-0.0,-0.0,-0.0,-0.0,-0.0,-0.0,-0.0,-0.0,-0.0,-0.0,-0.0,-0.0,-0.0,-0.0,-0.0,-0.0,-0.0,-0.0,-0.0,-0.0,-0.0,-0.0,-0.0,-0.0,-0.0,-0.0,-0.0,-0.0,-0.0,-0.0,-0.0,-0.0,-0.0,-0.0,-0.0,-0.0,-0.0,-0.0,-0.0,-0.0,-0.0,-0.0,-0.0,-0.0,-0.2041,-0.4169,-0.625,-0.573,-0.5789,-0.6271,-0.6268,-0.6268,-0.6268,-0.6264,-0.6338,-1.8008,-1.8008,0.0,-1.8008,-1.8008,-1.8008,0.0,0.0,-1.691,-1.3119,-1.2322,-1.2291,-1.2285,-1.2324,-1.2362,-1.2512,-1.2338,-1.1944,-1.1007,-1.004,-0.9372,-0.9372,-0.8461,-0.7949,-0.8286,-0.7126,-0.6359,-0.6295,-0.4382,-0.3279,-0.3279,-0.5193,-0.6329,-0.6329,0.1489,0.5767,0.6009,0.3919,0.3046,0.3281,0.5098,0.494,0.3202,0.5115,0.3775,-0.0,-0.0,-0.0,-0.0,-0.0,-0.0,-0.0,-0.0,-0.0,-0.0,-0.0,-0.0,-0.0,-0.0,-0.0,-0.0,-0.0,-0.0,-0.0,-0.0,-0.0,-0.0,-0.0,-0.0,-0.0,-0.0,-0.0,-0.0,-0.0,-0.0,-0.0,-0.0,-0.0,-0.0,-0.0,-0.0,-0.0,-0.0,-0.0,-0.0,-0.0,-0.0,-0.0,-0.0,-0.0,-0.0,-0.0,-0.0,-0.0,-0.0,-0.0,-0.0,-0.0,-0.0,-0.0,-0.0,-0.0157,-0.2117,-0.6247,-0.4311,-0.4302,-0.6295,-0.6285,-0.6278,-0.6278,-0.6268,-0.6338,-1.8008,0.0,0.0,-1.8008,-1.8008,-1.7969,-1.8017,-1.7961,-1.6884,-1.3114,-1.2291,-1.2291,-1.2311,-1.2265,-1.1851,-1.0564,-1.0724,-1.0673,-0.9965,-0.9165,-0.8651,-0.8651,-0.7585,-0.6898,-0.6987,-0.5323,-0.4781,-0.6234,-0.5596,-0.2821,0.2668,0.2196,0.1803,0.1803,0.337,0.487,0.6305,0.5578,0.5174,0.5168,0.597,0.5886,0.516,0.5977,0.4709,0.1954,0.0548,-0.0,-0.0,-0.0,-0.0,-0.0,-0.0,-0.0,-0.0,-0.0,-0.0,-0.0,-0.0,-0.0,-0.0,-0.0,-0.0,-0.0,-0.0,-0.0,-0.0,-0.0,-0.0,-0.0,-0.0,-0.0,-0.0,-0.0,-0.0,-0.0,-0.0,-0.0,-0.0,-0.0,-0.0,-0.0,-0.0,-0.0,-0.0,-0.0,-0.0,-0.0,-0.0,-0.0,-0.0,-0.0,-0.0,-0.0,-0.0,-0.0,-0.0,-0.0,-0.0,-0.0,-0.0,-0.0,-0.0706,-0.22,-0.2827,-0.345,-0.4226,-0.4224,-0.4932,-0.6288,-0.6285,-0.6285,-1.8008,0.0,0.0,0.0,-1.8008,-1.7969,-1.8017,-1.7046,-1.5371,-1.2799,-1.2298,-1.1887,-1.0541,-1.1354,-1.1868,-1.053,-1.0104,-0.9841,-0.9337,-0.8358,-0.7358,-0.6637,-0.5789,-0.5497,-0.6224,-0.5026,-0.3604,-0.2195,-0.2038,0.0,0.4967,0.5199,0.5593,0.6312,0.494,0.4854,0.6281,0.6285,0.6281,0.6274,0.6281,0.6278,0.6338,0.6281,0.5491,0.4064,0.1954,0.0627,-0.0,-0.0,-0.0,-0.0,-0.0,-0.0,-0.0,-0.0,-0.0,-0.0,-0.0,-0.0,-0.0,-0.0,-0.0,-0.0,-0.0,-0.0,-0.0,-0.0,-0.0,-0.0,-0.0,-0.0,-0.0,-0.0,-0.0,-0.0,-0.0,-0.0,-0.0,-0.0,-0.0,-0.0,-0.0,-0.0,-0.0,-0.0,-0.0,-0.0,-0.0,-0.0,-0.0,-0.0,-0.0,-0.0,-0.0,-0.0,-0.0,-0.0,-0.0,-0.0,-0.0,-0.0,-0.0,-0.0,-0.1336,-0.2041,-0.2033,-0.2032,-0.313,-0.5188,-0.5257,-0.5254,0.0,0.0,0.0,-1.8008,-1.8008,-1.8008,-1.8018,0.0,-1.2466,-1.2317,-1.2328,-1.1089,-0.7178,-0.9569,-1.212,-1.212,-1.0464,-0.9187,-0.9106,-0.7463,-0.5494,-0.3439,-0.3046,-0.3837,-0.5924,-0.6009,-0.2511,0.5686,0.6329,0.5358,0.3281,0.3202,0.4144,0.6197,0.6278,0.6274,0.6338,0.6338,0.6338,0.6338,0.6338,0.6338,0.6338,0.6274,0.6278,0.6197,0.4064,0.2033,0.0157,0.0079,-0.0,-0.0,-0.0,-0.0,-0.0,-0.0,-0.0,-0.0,-0.0,-0.0,-0.0,-0.0,-0.0,-0.0,-0.0,-0.0,-0.0,-0.0,-0.0,-0.0,-0.0,-0.0,-0.0,-0.0,-0.0,-0.0,-0.0,-0.0,-0.0,-0.0,-0.0,-0.0,-0.0,-0.0,-0.0,-0.0,-0.0,-0.0,-0.0,-0.0,-0.0,-0.0,-0.0,-0.0,-0.0,-0.0,-0.0,-0.0,-0.0,-0.0,-0.0,-0.0,-0.0,-0.0,-0.0,-0.0,-0.0,-0.0,-0.1019,-0.2984,-0.2973,-0.3046,-1.8008,0.0,0.0,0.0,0.0,0.0,-1.8036,0.0,-1.5615,-1.2863,-1.2303,-1.1937,-1.0843,-0.9145,-0.7951,-0.7983,-0.7495,-0.6605,-0.5063,-0.4373,-0.4309,-0.5274,-0.2746,-0.1097,-0.1649,0.1019,0.3773,0.0,0.6315,0.6061,0.5416,0.5407,0.5718,0.6264,0.6268,0.6264,0.6338,0.6338,0.6338,0.6338,0.6338,0.6338,0.6338,0.6264,0.6271,0.6278,0.5643,0.5096,0.4316,0.1254,-0.0,-0.0,-0.0,-0.0,-0.0,-0.0,-0.0,-0.0,-0.0,-0.0,-0.0,-0.0,-0.0,-0.0,-0.0,-0.0,-0.0,-0.0,-0.0,-0.0,-0.0,-0.0,-0.0,-0.0,-0.0,-0.0,-0.0,-0.0,-0.0,-0.0,-0.0,-0.0,-0.0,-0.0,-0.0,-0.0,-0.0,-0.0,-0.0,-0.0,-0.0,-0.0,-0.0,-0.0,-0.0,-0.0,-0.0,-0.0,-0.0,-0.0,-0.0,-0.0,-0.0,-0.0,-0.0,-0.0,-0.0,-0.0,-0.0314,-0.0863,-0.0862,-0.0862,-1.8008,-1.8008,-1.8008,-1.8008,0.0,0.0,-1.8025,-1.7992,-1.7361,0.0,-1.3433,-1.2285,-1.2271,-1.0385,-0.8223,-0.6543,-0.6266,-0.5838,-0.4608,-0.289,-0.227,-0.3538,-0.1492,-0.0,-0.0,0.3855,0.6325,0.6315,0.6298,0.6288,0.6281,0.6274,0.6268,0.6338,0.6338,0.6338,0.6338,0.6338,0.6338,0.6338,0.6338,0.6338,0.6338,0.6338,0.6264,0.6271,0.6271,0.6278,0.6126,0.3677,0.1565,-0.0,-0.0,-0.0,-0.0,-0.0,-0.0,-0.0,-0.0,-0.0,-0.0,-0.0,-0.0,-0.0,-0.0,-0.0,-0.0,-0.0,-0.0,-0.0,-0.0,-0.0,-0.0,-0.0,-0.0,-0.0,-0.0,-0.0,-0.0,-0.0,-0.0,-0.0,-0.0,-0.0,-0.0,-0.0,-0.0,-0.0,-0.0,-0.0,-0.0,-0.0,-0.0,-0.0,-0.0,-0.0,-0.0,-0.0,-0.0,-0.0,-0.0,-0.0,-0.0,-0.0,-0.0,-0.0,-0.0,-0.0,-0.0,-0.0,-0.0,-0.0,-1.8008,-1.8008,-1.8008,-1.8008,-1.8008,0.0,-1.7996,-1.7675,-1.7374,0.0,-1.4694,-1.2291,-1.2324,-1.2273,-1.1117,-0.7512,-0.6615,-0.6264,-0.6291,-0.2896,-0.0235,-0.0,-0.0,0.0079,0.0314,0.3777,0.6074,0.6295,0.6285,0.6271,0.6338,0.6338,0.6338,0.6338,0.6412,0.6416,0.6338,0.6412,0.6412,0.6338,0.6338,0.6338,0.6338,0.6338,0.6338,0.6338,0.6338,0.6268,0.6278,0.6278,0.4068,0.0626,0.0157,-0.0,-0.0,-0.0,-0.0,-0.0,-0.0,-0.0,-0.0,-0.0,-0.0,-0.0,-0.0,-0.0,-0.0,-0.0,-0.0,-0.0,-0.0,-0.0,-0.0,-0.0,-0.0,-0.0,-0.0,-0.0,-0.0,-0.0,-0.0,-0.0,-0.0,-0.0,-0.0,-0.0,-0.0,-0.0,-0.0,-0.0,-0.0,-0.0,-0.0,-0.0,-0.0,-0.0,-0.0,-0.0,-0.0,-0.0,-0.0,-0.0,-0.0,-0.0,-0.0,-0.0,-0.0,-0.0,-0.0,-0.0,-0.0,-0.0,-1.8008,-1.8008,-1.8008,-1.8008,-1.8008,0.0,-1.7988,-1.5643,-1.3439,0.0,-1.2799,-1.2326,-1.2285,-1.233,-1.2065,-1.1253,-0.8443,-0.63,-0.6274,-0.4066,-0.1875,-0.0235,-0.0,0.0629,0.2359,0.3214,0.4465,0.6136,0.6278,0.6264,0.6338,0.6338,0.6338,0.6338,0.7099,0.7099,0.6338,0.7099,0.7099,0.6338,0.6338,0.6338,0.6338,0.6338,0.6338,0.6338,0.6338,0.6264,0.6264,0.6264,0.5799,0.4706,0.133,-0.0,-0.0,-0.0,-0.0,-0.0,-0.0,-0.0,-0.0,-0.0,-0.0,-0.0,-0.0,-0.0,-0.0,-0.0,-0.0,-0.0,-0.0,-0.0,-0.0,-0.0,-0.0,-0.0,-0.0,-0.0,-0.0,-0.0,-0.0,-0.0,-0.0,-0.0,-0.0,-0.0,-0.0,-0.0,-0.0,-0.0,-0.0,-0.0,-0.0,-0.0,-0.0,-0.0,-0.0,-0.0,-0.0,-0.0,-0.0,-0.0,-0.0,-0.0,-0.0,-0.0,-0.0,-0.0,-0.0,-0.0,-0.0,-0.0,-1.8008,-1.8008,-1.8008,-1.8008,-1.8008,0.0,0.0,-1.6491,-1.5118,-1.5168,-1.3622,-1.2326,-1.2324,-1.2325,-1.2282,-1.2282,-0.9787,-0.7714,-0.735,-0.5789,-0.3521,-0.0391,-0.0,0.0786,0.2912,0.3134,0.3986,0.6119,0.6268,0.6338,0.6338,0.6338,0.6567,0.7022,0.7557,0.7783,0.7783,0.8313,0.8313,0.7783,0.7783,0.7783,0.7783,0.7249,0.7022,0.7022,0.649,0.6338,0.6338,0.6338,0.6268,0.6119,0.399,0.1877,-0.0,-0.0,-0.0,-0.0,-0.0,-0.0,-0.0,-0.0,-0.0,-0.0,-0.0,-0.0,-0.0,-0.0,-0.0,-0.0,-0.0,-0.0,-0.0,-0.0,-0.0,-0.0,-0.0,-0.0,-0.0,-0.0,-0.0,-0.0,-0.0,-0.0,-0.0,-0.0,-0.0,-0.0,-0.0,-0.0,-0.0,-0.0,-0.0,-0.0,-0.0,-0.0,-0.0,-0.0,-0.0,-0.0,-0.0,-0.0,-0.0,-0.0,-0.0,-0.0,-0.0,-0.0,-0.0,-0.0,-0.0,-0.0,-1.8008,-1.8008,-1.8008,-1.8008,-1.8008,-1.7979,0.0,0.0,0.0,-1.7986,-1.5581,-1.3165,-1.2408,-1.2325,0.0,-1.233,0.0,0.0,0.0,-0.7196,0.0,-0.1251,-0.0313,0.0785,0.291,0.3448,0.4455,0.618,0.6338,0.6338,0.6338,0.649,0.6945,0.7783,0.8161,0.8689,0.9296,0.9523,0.9523,0.9296,0.9296,0.9296,0.9296,0.8466,0.8012,0.7783,0.6945,0.649,0.6338,0.6338,0.6338,0.6264,0.6274,0.4226,0.1096,0.0313,-0.0,-0.0,-0.0,-0.0,-0.0,-0.0,-0.0,-0.0,-0.0,-0.0,-0.0,-0.0,-0.0,-0.0,-0.0,-0.0,-0.0,-0.0,-0.0,-0.0,-0.0,-0.0,-0.0,-0.0,-0.0,-0.0,-0.0,-0.0,-0.0,-0.0,-0.0,-0.0,-0.0,-0.0,-0.0,-0.0,-0.0,-0.0,-0.0,-0.0,-0.0,-0.0,-0.0,-0.0,-0.0,-0.0,-0.0,-0.0,-0.0,-0.0,-0.0,-0.0,-0.0,-0.0,-0.0,-0.0,-1.8008,-1.8008,-1.8008,-1.8008,-1.8008,-1.8018,-1.7969,0.0,-1.8018,-1.7995,0.0,-1.6325,-1.2934,0.0,0.0,0.0,-1.2081,-1.1346,-0.9458,-0.7528,-0.5678,-0.39,-0.1485,0.0784,0.2906,0.4789,0.6045,0.6261,0.6338,0.6338,0.6338,0.7176,0.7706,0.7783,0.9513,1.0115,0.9296,1.019,1.019,0.9296,0.9296,0.9296,0.9296,0.9145,0.8618,0.7783,0.7706,0.7099,0.6338,0.6338,0.6338,0.6264,0.6274,0.6045,0.5104,0.1409,-0.0,-0.0,-0.0,-0.0,-0.0,-0.0,-0.0,-0.0,-0.0,-0.0,-0.0,-0.0,-0.0,-0.0,-0.0,-0.0,-0.0,-0.0,-0.0,-0.0,-0.0,-0.0,-0.0,-0.0,-0.0,-0.0,-0.0,-0.0,-0.0,-0.0,-0.0,-0.0,-0.0,-0.0,-0.0,-0.0,-0.0,-0.0,-0.0,-0.0,-0.0,-0.0,-0.0,-0.0,-0.0,-0.0,-0.0,-0.0,-0.0,-0.0,-0.0,-0.0,-0.0,-0.0,-0.0,-0.0,-1.8008,-1.8008,-1.8008,-1.8008,-1.8008,-1.8008,-1.8008,-1.8008,-1.8027,-1.7968,0.0,0.0,0.0,0.0,0.0,0.0,-1.1639,-1.0881,0.0,0.0,-0.6773,-0.5553,0.0,0.0,0.094,0.4323,0.6302,0.6274,0.6271,0.6268,0.6338,0.6718,0.7176,0.7783,0.9216,1.004,1.019,1.1168,1.1471,1.1025,1.1025,1.072,1.0115,0.9593,0.877,0.7783,0.7173,0.6721,0.6338,0.6338,0.6338,0.6338,0.6268,0.6274,0.5964,0.2891,0.1017,-0.0,-0.0,-0.0,-0.0,-0.0,-0.0,-0.0,-0.0,-0.0,-0.0,-0.0,-0.0,-0.0,-0.0,-0.0,-0.0,-0.0,-0.0,-0.0,-0.0,-0.0,-0.0,-0.0,-0.0,-0.0,-0.0,-0.0,-0.0,-0.0,-0.0,-0.0,-0.0,-0.0,-0.0,-0.0,-0.0,-0.0,-0.0,-0.0,-0.0,-0.0,-0.0,-0.0,-0.0,-0.0,-0.0,-0.0,-0.0,-0.0,-0.0,-0.0,-0.0,-0.0,-0.0,-0.0,-1.8008,0.0,0.0,0.0,0.0,0.0,-1.8008,-1.8008,-1.8008,-1.8008,-1.7968,0.0,0.0,0.0,-1.2322,-1.2271,0.0,-1.084,-1.0783,-0.9286,-0.7863,-0.6806,0.0,0.0,0.0,0.2746,0.4875,0.5643,0.6116,0.6274,0.6338,0.6567,0.7022,0.7783,0.877,0.9669,1.0415,1.1093,1.1477,1.1477,1.1477,1.1099,1.034,0.9593,0.877,0.7783,0.7022,0.6567,0.6338,0.6338,0.6338,0.6338,0.6338,0.6268,0.6112,0.4538,0.2268,-0.0,-0.0,-0.0,-0.0,-0.0,-0.0,-0.0,-0.0,-0.0,-0.0,-0.0,-0.0,-0.0,-0.0,-0.0,-0.0,-0.0,-0.0,-0.0,-0.0,-0.0,-0.0,-0.0,-0.0,-0.0,-0.0,-0.0,-0.0,-0.0,-0.0,-0.0,-0.0,-0.0,-0.0,-0.0,-0.0,-0.0,-0.0,-0.0,-0.0,-0.0,-0.0,-0.0,-0.0,-0.0,-0.0,-0.0,-0.0,-0.0,-0.0,-0.0,-0.0,-0.0,-0.0,-0.0,0.0,0.0,0.0,-1.8008,0.0,0.0,0.0,0.0,-1.8008,-1.8008,-1.8018,-1.684,-1.3153,-1.2395,0.0,0.0,-1.2224,0.0,0.0,-0.9895,-0.8841,-0.7859,-0.5063,0.0,0.0,0.0156,0.1329,0.0,0.5559,0.6274,0.6338,0.7249,0.7783,0.7783,0.877,0.9296,0.9372,0.9372,0.9372,0.9372,0.9372,0.9372,0.9372,0.9301,0.877,0.7783,0.7783,0.7176,0.6338,0.6338,0.6338,0.6338,0.6338,0.6338,0.6264,0.6207,0.353,-0.0,-0.0,-0.0,-0.0,-0.0,-0.0,-0.0,-0.0,-0.0,-0.0,-0.0,-0.0,-0.0,-0.0,-0.0,-0.0,-0.0,-0.0,-0.0,-0.0,-0.0,-0.0,-0.0,-0.0,-0.0,-0.0,-0.0,-0.0,-0.0,-0.0,-0.0,-0.0,-0.0,-0.0,-0.0,-0.0,-0.0,-0.0,-0.0,-0.0,-0.0,-0.0,-0.0,-0.0,-0.0,-0.0,-0.0,-0.0,-0.0,-0.0,-0.0,-0.0,-0.0,-0.0,-0.0,0.0,0.0,-1.8008,-1.8008,0.0,0.0,0.0,0.0,0.0,0.0,-1.8008,-1.7257,-1.4662,0.0,0.0,0.0,0.0,-1.215,0.0,-1.0346,-0.8917,-0.7936,-0.6247,-0.383,0.0,0.0,0.0,0.0,0.4465,0.0,0.6274,0.6648,0.6795,0.6795,0.7783,0.8313,0.8313,0.8993,0.9296,0.9296,0.9296,0.8917,0.8313,0.8313,0.7783,0.6795,0.6795,0.6644,0.6338,0.6338,0.6338,0.6338,0.6338,0.6268,0.6116,0.4696,0.3285,0.1877,0.0471,-0.0,-0.0,-0.0,-0.0,-0.0,-0.0,-0.0,-0.0,-0.0,-0.0,-0.0,-0.0,-0.0,-0.0,-0.0,-0.0,-0.0,-0.0,-0.0,-0.0,-0.0,-0.0,-0.0,-0.0,-0.0,-0.0,-0.0,-0.0,-0.0,-0.0,-0.0,-0.0,-0.0,-0.0,-0.0,-0.0,-0.0,-0.0,-0.0,-0.0,-0.0,-0.0,-0.0,-0.0,-0.0,-0.0,-0.0,-0.0,-0.0,-0.0,-0.0,-0.0,-0.0,-1.8008,-1.8008,0.0,-1.8008,-1.8008,0.0,-1.8008,0.0,-1.759,0.0,0.0,-1.7207,-1.4664,0.0,0.0,0.0,0.0,-1.215,0.0,-1.0346,-0.8917,-0.7936,-0.6883,-0.5249,-0.2504,-0.0861,-0.0,-0.0,0.2506,0.4704,0.0,0.0,0.6268,0.6268,0.6949,0.7249,0.7249,0.7936,0.8237,0.8237,0.8237,0.7859,0.7249,0.7249,0.6949,0.6338,0.6338,0.6338,0.6338,0.6338,0.6264,0.6268,0.6268,0.6274,0.6126,0.4776,0.3285,0.18,0.0471,-0.0,-0.0,-0.0,-0.0,-0.0,-0.0,-0.0,-0.0,-0.0,-0.0,-0.0,-0.0,-0.0,-0.0,-0.0,-0.0,-0.0,-0.0,-0.0,-0.0,-0.0,-0.0,-0.0,-0.0,-0.0,-0.0,-0.0,-0.0,-0.0,-0.0,-0.0,-0.0,-0.0,-0.0,-0.0,-0.0,-0.0,-0.0,-0.0,-0.0,-0.0,-0.0,-0.0,-0.0,-0.0,-0.0,-0.0,-0.0,-0.0,-0.0,-0.0,-0.0,-0.0]},{"header":{"parameterUnit":"m.s-1","parameterCategory":1,"la1":30.6,"la2":29.2853,"lo1":-89.7004,"lo2":-87.6739,"dy":0.0162,"dx":0.0183,"nx":112,"ny":82,"refTime":"2023-05-12T12:00:00:Z","depth":0,"parameterNumber":3,"parameterNumberName":"V-component_of_WINDS"},"data":[0.0,0.0,0.0,0.0,0.0,0.0,0.0,0.0,0.0,0.0,0.0,0.0,0.0,0.0,0.0,0.0,0.0,0.0,0.0,0.0,0.0,0.0,0.0,0.0,0.0,0.0,0.0,0.0,0.0,0.0,0.0,0.0,0.0,0.0,0.0,0.0,0.0,0.0,0.0,0.0,0.0,0.0,0.0,0.0,0.0,0.0,0.0,0.0,0.0,0.0,0.0,0.0,0.0,0.0,0.0,0.0,0.0,0.0,0.0,0.0,0.0,0.0,0.0,0.0,0.0,0.0,0.0,0.0,0.0,0.0,0.0,0.0,0.0,0.0,0.0,0.0,0.0,0.0,0.0,0.0,0.0,0.0,0.0,0.0,0.0,0.0,0.0,0.0,0.0,0.0,-2.9042,-2.8415,-2.7894,-2.7845,-2.8463,-2.8966,-2.954,-3.0251,0.0,0.0,0.0,0.0,0.0,0.0,0.0,0.0,0.0,0.0,0.0,0.0,0.0,0.0,0.0,0.0,0.0,0.0,0.0,0.0,0.0,0.0,0.0,0.0,0.0,0.0,0.0,0.0,0.0,0.0,0.0,0.0,0.0,0.0,0.0,0.0,0.0,0.0,0.0,0.0,0.0,0.0,0.0,0.0,0.0,0.0,0.0,0.0,0.0,0.0,0.0,0.0,0.0,0.0,0.0,0.0,0.0,0.0,0.0,0.0,0.0,0.0,0.0,0.0,0.0,0.0,0.0,0.0,0.0,0.0,0.0,0.0,0.0,0.0,0.0,0.0,0.0,0.0,0.0,0.0,0.0,0.0,0.0,0.0,0.0,0.0,0.0,0.0,0.0,0.0,0.0,0.0,0.0,0.0,0.0,0.0,0.0,0.0,0.0,0.0,0.0,0.0,0.0,0.0,-2.8415,-2.781,-2.766,-2.7845,-2.8463,-2.8606,-2.9088,-3.0208,0.0,0.0,0.0,0.0,0.0,0.0,0.0,0.0,0.0,0.0,0.0,0.0,0.0,0.0,0.0,0.0,0.0,0.0,0.0,0.0,0.0,0.0,0.0,0.0,0.0,0.0,0.0,0.0,0.0,0.0,0.0,0.0,0.0,0.0,0.0,0.0,0.0,0.0,0.0,0.0,0.0,0.0,0.0,0.0,0.0,0.0,0.0,0.0,0.0,0.0,0.0,0.0,0.0,0.0,0.0,0.0,0.0,0.0,0.0,0.0,0.0,0.0,0.0,0.0,0.0,0.0,0.0,0.0,0.0,0.0,0.0,0.0,0.0,0.0,0.0,0.0,0.0,0.0,0.0,0.0,0.0,0.0,0.0,0.0,0.0,0.0,0.0,0.0,0.0,0.0,0.0,0.0,0.0,0.0,0.0,0.0,0.0,0.0,0.0,0.0,0.0,0.0,0.0,-2.768,-2.7479,-2.7575,-2.7255,-2.7291,-2.7944,-2.8319,-2.8748,-2.9271,-3.0208,0.0,0.0,0.0,0.0,0.0,0.0,0.0,0.0,0.0,0.0,0.0,0.0,0.0,0.0,0.0,0.0,0.0,0.0,0.0,0.0,0.0,0.0,0.0,0.0,0.0,0.0,0.0,0.0,0.0,0.0,0.0,0.0,0.0,0.0,0.0,0.0,0.0,0.0,0.0,0.0,0.0,0.0,0.0,0.0,0.0,0.0,0.0,0.0,0.0,0.0,0.0,0.0,0.0,0.0,0.0,0.0,0.0,0.0,0.0,0.0,0.0,0.0,0.0,0.0,0.0,0.0,0.0,0.0,0.0,0.0,0.0,0.0,0.0,0.0,0.0,0.0,0.0,0.0,0.0,0.0,0.0,0.0,0.0,0.0,0.0,0.0,0.0,0.0,0.0,0.0,0.0,0.0,0.0,0.0,0.0,0.0,0.0,0.0,0.0,0.0,0.0,0.0,-2.71,-2.693,-2.7306,-2.6982,-2.693,-2.7306,-2.7944,-2.8319,-2.8511,-2.9361,0.0,0.0,0.0,0.0,0.0,0.0,0.0,0.0,0.0,0.0,0.0,0.0,0.0,0.0,0.0,0.0,0.0,0.0,0.0,0.0,0.0,0.0,0.0,0.0,0.0,0.0,0.0,0.0,0.0,0.0,0.0,0.0,0.0,0.0,0.0,0.0,0.0,0.0,0.0,0.0,0.0,0.0,0.0,0.0,0.0,0.0,0.0,0.0,0.0,0.0,0.0,0.0,0.0,0.0,0.0,0.0,0.0,0.0,0.0,0.0,0.0,0.0,0.0,0.0,0.0,0.0,0.0,0.0,0.0,0.0,0.0,0.0,0.0,0.0,0.0,0.0,0.0,0.0,0.0,0.0,0.0,0.0,0.0,0.0,0.0,0.0,0.0,0.0,0.0,0.0,0.0,0.0,0.0,0.0,0.0,0.0,0.0,0.0,0.0,0.0,0.0,0.0,-2.756,-2.7306,-2.6669,-2.7137,-2.7255,-2.6616,-2.724,-2.791,-2.8463,-2.8559,0.0,0.0,0.0,0.0,0.0,0.0,0.0,0.0,0.0,0.0,0.0,0.0,0.0,0.0,0.0,0.0,0.0,0.0,0.0,0.0,0.0,0.0,0.0,0.0,0.0,0.0,0.0,0.0,0.0,0.0,0.0,0.0,0.0,0.0,0.0,0.0,0.0,0.0,0.0,0.0,0.0,0.0,0.0,0.0,0.0,0.0,0.0,0.0,0.0,0.0,0.0,0.0,0.0,0.0,0.0,0.0,0.0,0.0,0.0,0.0,0.0,0.0,0.0,0.0,0.0,0.0,0.0,0.0,0.0,0.0,0.0,0.0,0.0,0.0,0.0,0.0,0.0,0.0,0.0,0.0,0.0,0.0,0.0,0.0,0.0,0.0,0.0,0.0,0.0,0.0,0.0,0.0,0.0,0.0,0.0,0.0,0.0,0.0,0.0,0.0,0.0,0.0,-2.7203,-2.6982,-2.7152,-2.7034,-2.6982,-2.7152,-2.7458,-2.771,-2.7894,0.0,0.0,0.0,0.0,0.0,0.0,0.0,0.0,0.0,0.0,0.0,0.0,0.0,0.0,0.0,0.0,0.0,0.0,0.0,0.0,0.0,0.0,0.0,0.0,0.0,0.0,0.0,0.0,0.0,0.0,0.0,0.0,0.0,0.0,0.0,0.0,0.0,0.0,0.0,0.0,0.0,0.0,0.0,0.0,0.0,0.0,0.0,0.0,0.0,0.0,0.0,0.0,0.0,0.0,0.0,0.0,0.0,0.0,0.0,0.0,0.0,0.0,0.0,0.0,0.0,0.0,0.0,0.0,0.0,0.0,0.0,0.0,0.0,0.0,0.0,0.0,0.0,0.0,0.0,0.0,0.0,0.0,0.0,0.0,0.0,0.0,0.0,0.0,0.0,0.0,0.0,0.0,0.0,0.0,0.0,0.0,0.0,0.0,0.0,0.0,0.0,0.0,-2.7625,-2.7152,-2.693,-2.7203,-2.6982,-2.693,-2.7255,-2.7473,-2.7625,-2.7625,0.0,0.0,0.0,0.0,0.0,0.0,0.0,0.0,0.0,0.0,0.0,0.0,0.0,0.0,0.0,0.0,0.0,0.0,0.0,0.0,0.0,0.0,0.0,0.0,0.0,0.0,0.0,0.0,0.0,0.0,0.0,0.0,0.0,0.0,0.0,0.0,0.0,0.0,0.0,0.0,0.0,0.0,0.0,0.0,0.0,0.0,0.0,0.0,0.0,0.0,0.0,0.0,0.0,0.0,0.0,0.0,0.0,0.0,0.0,0.0,0.0,0.0,0.0,0.0,0.0,0.0,0.0,0.0,0.0,0.0,0.0,0.0,0.0,0.0,0.0,0.0,0.0,0.0,0.0,0.0,0.0,0.0,0.0,0.0,0.0,0.0,0.0,0.0,0.0,0.0,0.0,0.0,0.0,0.0,0.0,0.0,0.0,0.0,0.0,0.0,0.0,0.0,-2.7625,-2.7625,-2.7306,-2.6616,-2.7137,-2.7306,-2.6563,-2.7203,-2.7625,0.0,0.0,0.0,0.0,0.0,0.0,0.0,0.0,0.0,0.0,0.0,0.0,0.0,0.0,0.0,0.0,0.0,0.0,0.0,0.0,0.0,0.0,0.0,0.0,0.0,0.0,0.0,0.0,0.0,0.0,0.0,0.0,0.0,0.0,0.0,0.0,0.0,0.0,0.0,0.0,0.0,0.0,0.0,0.0,0.0,0.0,0.0,0.0,0.0,0.0,0.0,0.0,0.0,0.0,0.0,0.0,0.0,0.0,0.0,0.0,0.0,0.0,0.0,0.0,0.0,0.0,0.0,0.0,0.0,0.0,0.0,0.0,0.0,0.0,0.0,0.0,0.0,0.0,0.0,0.0,0.0,0.0,0.0,0.0,0.0,0.0,0.0,0.0,0.0,0.0,0.0,0.0,0.0,0.0,0.0,0.0,0.0,0.0,0.0,0.0,0.0,0.0,0.0,-2.7625,-2.7625,-2.7524,-2.7306,-2.7458,-2.7524,-2.7306,-2.7458,-2.7625,-2.7625,0.0,0.0,0.0,0.0,0.0,0.0,0.0,0.0,0.0,0.0,0.0,0.0,0.0,0.0,0.0,0.0,0.0,0.0,0.0,0.0,0.0,0.0,0.0,0.0,0.0,0.0,0.0,0.0,0.0,0.0,0.0,0.0,0.0,0.0,0.0,0.0,0.0,0.0,0.0,0.0,0.0,0.0,0.0,0.0,0.0,0.0,0.0,0.0,0.0,0.0,0.0,0.0,0.0,0.0,0.0,0.0,0.0,0.0,0.0,0.0,0.0,0.0,0.0,0.0,0.0,0.0,0.0,0.0,0.0,0.0,0.0,0.0,0.0,0.0,0.0,0.0,0.0,0.0,0.0,0.0,0.0,0.0,0.0,0.0,0.0,0.0,0.0,0.0,0.0,0.0,0.0,0.0,0.0,0.0,0.0,0.0,0.0,0.0,0.0,0.0,0.0,0.0,-2.7625,-2.7625,-2.7625,-2.7625,-2.7625,-2.7625,-2.7625,-2.7625,-2.7625,-2.7625,0.0,0.0,0.0,0.0,0.0,0.0,0.0,0.0,0.0,0.0,0.0,0.0,0.0,0.0,0.0,0.0,0.0,0.0,0.0,0.0,0.0,0.0,0.0,0.0,0.0,0.0,0.0,0.0,0.0,0.0,0.0,0.0,0.0,0.0,0.0,0.0,0.0,0.0,0.0,0.0,0.0,0.0,0.0,0.0,0.0,0.0,0.0,0.0,0.0,0.0,0.0,0.0,0.0,0.0,0.0,0.0,0.0,0.0,0.0,0.0,0.0,0.0,0.0,0.0,0.0,0.0,0.0,0.0,0.0,0.0,0.0,0.0,0.0,0.0,0.0,0.0,0.0,0.0,0.0,0.0,0.0,0.0,0.0,0.0,0.0,0.0,0.0,0.0,0.0,0.0,0.0,0.0,0.0,0.0,0.0,0.0,0.0,0.0,0.0,0.0,0.0,0.0,-2.7625,-2.7625,-2.7625,-2.7625,-2.7625,-2.7625,-2.7625,-2.7625,-2.7625,-2.7625,0.0,0.0,0.0,0.0,0.0,0.0,0.0,0.0,0.0,0.0,0.0,0.0,0.0,0.0,0.0,0.0,0.0,0.0,0.0,0.0,0.0,0.0,0.0,0.0,0.0,0.0,0.0,0.0,0.0,0.0,0.0,0.0,0.0,0.0,0.0,0.0,0.0,0.0,0.0,0.0,0.0,0.0,0.0,0.0,0.0,0.0,0.0,0.0,0.0,0.0,0.0,0.0,0.0,0.0,0.0,0.0,0.0,0.0,0.0,0.0,-3.2788,0.0,0.0,0.0,0.0,0.0,0.0,0.0,0.0,0.0,0.0,0.0,0.0,0.0,0.0,0.0,0.0,0.0,0.0,0.0,0.0,0.0,0.0,0.0,0.0,0.0,0.0,0.0,0.0,0.0,0.0,0.0,0.0,0.0,0.0,0.0,0.0,0.0,0.0,0.0,0.0,0.0,-2.7625,-2.7625,-2.7625,-2.7625,-2.7625,-2.7625,-2.7625,-2.7625,-2.7625,-2.7625,-2.7625,0.0,0.0,0.0,0.0,0.0,0.0,0.0,0.0,0.0,0.0,0.0,0.0,0.0,0.0,0.0,0.0,0.0,0.0,0.0,0.0,0.0,0.0,0.0,0.0,0.0,0.0,0.0,0.0,0.0,0.0,0.0,0.0,0.0,0.0,0.0,0.0,0.0,0.0,0.0,0.0,0.0,0.0,0.0,0.0,0.0,0.0,0.0,0.0,0.0,0.0,0.0,0.0,0.0,0.0,0.0,0.0,0.0,0.0,0.0,0.0,-3.268,0.0,0.0,0.0,0.0,0.0,0.0,0.0,0.0,0.0,0.0,0.0,0.0,0.0,0.0,0.0,0.0,0.0,0.0,0.0,0.0,0.0,0.0,0.0,0.0,0.0,0.0,0.0,0.0,0.0,0.0,0.0,0.0,0.0,0.0,0.0,0.0,0.0,0.0,0.0,0.0,-2.7625,-2.7625,-2.7625,-2.7625,-2.7625,-2.7625,-2.7625,-2.7625,-2.7625,-2.7625,-2.786,0.0,0.0,0.0,0.0,0.0,0.0,0.0,0.0,0.0,0.0,0.0,0.0,0.0,0.0,0.0,0.0,0.0,0.0,0.0,0.0,0.0,0.0,0.0,0.0,0.0,0.0,0.0,0.0,0.0,0.0,0.0,0.0,0.0,0.0,0.0,0.0,0.0,0.0,0.0,0.0,0.0,0.0,0.0,0.0,0.0,0.0,0.0,0.0,0.0,0.0,0.0,0.0,0.0,-3.1482,-3.1482,-3.1482,-3.1482,-3.1482,-3.1482,-3.1482,-3.2145,-3.3182,-3.2641,0.0,0.0,0.0,0.0,0.0,0.0,0.0,0.0,0.0,0.0,0.0,0.0,0.0,0.0,0.0,0.0,0.0,0.0,0.0,0.0,0.0,0.0,0.0,0.0,-3.406,-3.2675,-3.232,0.0,0.0,0.0,0.0,0.0,0.0,0.0,0.0,0.0,0.0,0.0,-2.7625,-2.7625,-2.7625,-2.7625,-2.7625,-2.7625,-2.7625,-2.7625,-2.761,-2.776,-2.8238,-2.8559,0.0,0.0,0.0,0.0,0.0,0.0,0.0,0.0,0.0,0.0,0.0,0.0,0.0,0.0,0.0,0.0,0.0,0.0,0.0,0.0,0.0,0.0,0.0,0.0,0.0,0.0,0.0,0.0,0.0,0.0,0.0,0.0,-3.3668,-3.2933,0.0,0.0,0.0,0.0,0.0,0.0,0.0,0.0,0.0,0.0,0.0,0.0,0.0,-3.1511,-3.1601,-3.1511,-3.1482,-3.1482,-3.1482,-3.1482,-3.1482,-3.1482,-3.1482,-3.1482,-3.1482,0.0,-3.1781,-3.1682,0.0,0.0,0.0,0.0,0.0,0.0,0.0,0.0,0.0,0.0,0.0,0.0,0.0,0.0,0.0,0.0,0.0,0.0,0.0,0.0,0.0,0.0,-3.5453,-3.4793,-3.4018,-3.2957,0.0,-3.0398,-2.9728,-2.8794,-2.8607,0.0,0.0,0.0,0.0,0.0,0.0,0.0,-2.7625,-2.7625,-2.7625,-2.7625,-2.7625,-2.7625,-2.7625,-2.7625,-2.781,-2.8319,-2.8479,-2.8732,-2.9271,-2.9935,0.0,0.0,0.0,0.0,0.0,0.0,0.0,0.0,0.0,0.0,0.0,0.0,0.0,0.0,0.0,0.0,0.0,0.0,0.0,0.0,0.0,0.0,0.0,0.0,0.0,0.0,0.0,0.0,0.0,-3.3114,-3.2461,-3.2586,-3.2216,-3.1667,0.0,0.0,0.0,0.0,0.0,0.0,0.0,0.0,0.0,-3.1467,-3.1087,-3.1029,-3.1482,-3.1482,-3.1482,-3.1482,-3.1482,-3.1482,-3.1482,-3.1482,-3.1482,-3.1482,-3.1482,-3.1482,-3.1482,-3.1482,-3.1697,-3.2007,0.0,0.0,0.0,0.0,-3.4284,-3.4624,-3.4941,-3.5299,-3.5622,-3.5622,0.0,0.0,0.0,0.0,0.0,0.0,0.0,0.0,0.0,0.0,-3.5431,-3.4743,-3.3801,-3.2708,-3.1431,-3.0308,-2.9265,0.0,-2.8338,-2.8502,-2.8203,0.0,0.0,0.0,0.0,-2.7625,-2.7625,-2.7625,-2.7625,-2.7625,-2.7625,-2.7625,-2.7625,-2.7625,-2.786,-2.8463,-2.8826,-2.9271,-2.9892,-3.0477,-3.0797,0.0,0.0,0.0,0.0,0.0,0.0,0.0,0.0,0.0,0.0,0.0,0.0,0.0,0.0,0.0,0.0,0.0,0.0,0.0,0.0,0.0,0.0,0.0,0.0,0.0,0.0,0.0,0.0,-3.2145,-3.1625,-3.1962,-3.1724,-3.1161,0.0,0.0,0.0,0.0,0.0,0.0,-2.9628,-2.9002,-2.9442,-3.1161,-3.0584,-3.0703,-3.1482,-3.1482,-3.1482,-3.1482,-3.1482,-3.1482,-3.1482,-3.1482,-3.1482,-3.1482,-3.1482,-3.1482,-3.1482,-3.1482,-3.1482,-3.1524,-3.212,-3.2327,-3.2367,-3.3077,-3.3786,-3.4382,-3.4528,-3.5052,-3.5622,-3.5622,-3.5622,-3.5622,-3.5622,0.0,0.0,0.0,0.0,-3.5622,-3.5622,-3.5622,-3.5374,-3.4504,-3.3453,-3.2344,-3.1488,-3.0556,-2.9475,0.0,-2.8502,-2.8846,-2.8846,0.0,0.0,0.0,-2.8412,-2.8023,-2.7859,-2.7844,-2.7769,-2.764,-2.7625,-2.7625,-2.7625,-2.7625,-2.7894,-2.8685,-2.9134,-2.9717,-3.0518,-3.0958,-3.119,-3.119,0.0,0.0,0.0,0.0,0.0,0.0,0.0,0.0,0.0,0.0,0.0,0.0,0.0,0.0,0.0,0.0,0.0,0.0,0.0,0.0,0.0,0.0,0.0,0.0,0.0,0.0,0.0,0.0,0.0,-3.051,-3.1087,0.0,0.0,0.0,0.0,-2.9066,-2.8233,-2.7868,-2.7868,-2.7802,-2.8556,-3.0329,-3.0329,-3.0703,-3.1482,-3.1482,-3.1482,-3.1482,-3.1482,-3.1482,-3.1482,-3.1482,-3.1482,-3.1482,-3.1482,-3.1482,-3.1482,-3.1482,-3.1482,-3.1524,-3.1524,-3.1582,-3.164,-3.2382,-3.3093,-3.3735,-3.4382,-3.5052,-3.5622,-3.5622,-3.5622,-3.5622,-3.5622,-3.5622,0.0,0.0,-3.5622,-3.5622,-3.5622,-3.5622,-3.5239,-3.3892,-3.3064,-3.2201,-3.0829,-3.0502,-3.0268,0.0,-2.9505,-2.9535,-2.9535,0.0,-2.949,-2.952,-2.9505,-2.925,-2.8622,-2.8547,-2.8308,-2.7685,-2.7625,-2.7625,-2.7625,-2.7625,-2.8125,-2.9271,-2.9361,-2.9951,-3.1112,-3.119,-3.119,-3.119,-3.119,0.0,0.0,0.0,0.0,0.0,0.0,0.0,0.0,0.0,0.0,0.0,0.0,0.0,0.0,0.0,0.0,0.0,0.0,0.0,0.0,0.0,0.0,0.0,0.0,0.0,0.0,0.0,0.0,-3.1087,-3.1351,0.0,-2.9566,-2.995,-2.9504,-2.7537,-2.7604,-2.767,-2.767,-2.7229,-2.7736,-2.938,-2.9442,-2.9889,-3.0718,-3.1219,-3.1482,-3.1482,-3.1482,-3.1482,-3.1482,-3.1482,-3.1482,-3.1482,-3.1482,-3.1482,-3.1482,-3.1482,-3.1482,-3.1539,-3.2007,-3.2216,-3.2272,-3.2986,-3.3684,-3.4284,-3.4528,-3.5052,-3.5622,-3.5622,-3.5622,-3.5622,-3.5622,-3.5622,-3.5622,-3.5622,-3.5622,-3.5622,-3.5622,-3.5253,-3.4733,-3.3778,-3.3077,-3.2351,-3.1338,-3.1155,-3.1204,-3.1503,-3.0794,-3.0178,-3.0178,-2.9849,-2.9714,-3.0118,-2.9834,-2.949,-2.9265,-2.922,-2.9131,-2.8891,-2.8855,-2.8832,-2.8832,-2.8792,-2.9134,-2.9951,-2.9978,-3.0351,-3.1151,-3.119,-3.119,-3.119,-3.119,-3.119,0.0,0.0,0.0,0.0,0.0,0.0,0.0,0.0,0.0,0.0,0.0,0.0,0.0,0.0,0.0,0.0,0.0,0.0,0.0,0.0,0.0,0.0,0.0,0.0,0.0,-3.1046,-3.1066,-3.0762,-3.1217,-3.0837,-2.9192,-2.9504,-2.9066,-2.704,-2.7162,-2.7284,-2.7284,-2.6782,-2.7095,-2.8492,-2.8556,-2.9129,-3.0269,-3.0837,-3.1219,-3.1482,-3.1482,-3.1482,-3.1482,-3.1482,-3.1482,-3.1482,-3.1482,-3.1482,-3.1482,-3.1482,-3.164,-3.191,-3.2437,-3.2749,-3.2986,-3.3443,-3.4037,-3.4624,-3.4847,-3.5207,-3.5622,-3.5622,-3.5622,-3.5622,-3.5622,-3.5622,-3.5622,-3.5622,-3.5622,-3.5622,-3.5622,-3.5253,-3.4752,-3.4087,-3.3582,-3.3077,-3.2351,-3.2201,-3.2351,-3.2826,-3.1982,-3.1213,-3.1213,-3.0864,-3.0688,-3.0791,-3.0714,-3.0516,-3.0288,-3.0441,-3.0508,-3.0278,-3.0239,-3.019,-3.019,-3.0148,-3.0287,-3.0672,-3.0655,-3.0825,-3.1207,-3.119,-3.119,-3.119,-3.1427,-3.1681,-3.1935,0.0,0.0,0.0,0.0,0.0,0.0,0.0,0.0,0.0,0.0,0.0,0.0,0.0,0.0,0.0,0.0,0.0,0.0,0.0,0.0,0.0,0.0,0.0,-2.9672,-3.0103,-3.0182,-2.9406,-3.0586,-3.0778,-2.9136,-2.8933,-2.8566,-2.771,-2.6879,-2.6508,-2.6533,-2.6533,-2.685,-2.767,-2.7736,-2.8556,-3.0269,-3.0329,-3.0718,-3.1482,-3.1482,-3.1482,-3.1482,-3.1482,-3.1482,-3.1482,-3.1482,-3.1482,-3.1482,-3.1524,-3.1951,-3.2641,-3.2641,-3.3039,-3.3633,-3.3633,-3.4087,-3.4736,-3.5362,-3.5622,-3.5622,-3.5622,-3.5622,-3.5622,-3.5622,-3.5622,-3.5622,-3.5622,-3.5622,-3.5622,-3.5622,-3.5577,-3.5407,-3.4736,-3.4576,-3.4382,-3.3735,-3.3582,-3.3582,-3.3633,-3.3093,-3.2641,-3.2641,-3.2641,-3.2382,-3.1682,-3.216,0.0,-3.1741,-3.2238,-3.2367,-3.1726,-3.1678,-3.1662,-3.1662,-3.1646,-3.1621,-3.1473,-3.1467,-3.1399,-3.1292,-3.1258,-3.1258,-3.1258,-3.1952,-3.2679,-3.344,0.0,0.0,0.0,0.0,0.0,0.0,0.0,0.0,0.0,0.0,0.0,0.0,0.0,0.0,0.0,0.0,0.0,0.0,0.0,0.0,0.0,-2.9218,-2.9193,-2.9552,-2.9729,-2.9779,-2.9544,-2.9888,-2.9501,-2.7871,-2.769,-2.7255,-2.624,-2.5958,-2.6013,-2.6508,-2.6533,-2.6589,-2.685,-2.7986,-2.8876,-2.938,-3.0584,-3.1278,-3.1482,-3.1482,-3.1482,-3.1482,-3.1482,-3.1482,-3.1482,-3.1482,-3.1482,-3.1524,-3.2064,-3.268,-3.3339,-3.3339,-3.3735,-3.4382,-3.4847,-3.5161,-3.5362,-3.5532,-3.5622,-3.5622,-3.5622,-3.5622,-3.5622,-3.5622,-3.5622,-3.5622,-3.5622,-3.5622,-3.5622,-3.5622,-3.5253,-3.4847,-3.4624,-3.4235,-3.3836,-3.3633,-3.3582,-3.3735,-3.4235,-3.4186,-3.3887,-3.3391,-3.3339,-3.3235,-3.3077,-3.3182,0.0,-3.3069,-3.3208,-3.3265,-3.3088,-3.2999,-3.2992,-3.2992,-3.2945,-3.2887,-3.2874,-3.2858,-3.2816,-3.2814,-3.2797,-3.2797,-3.2797,-3.2983,-3.3457,0.0,0.0,0.0,0.0,0.0,0.0,0.0,0.0,0.0,0.0,0.0,0.0,0.0,0.0,0.0,0.0,0.0,0.0,0.0,0.0,0.0,0.0,-2.8966,-2.8838,-2.8778,-2.8981,-2.916,-2.916,-2.9415,-2.8987,-2.7384,-2.7428,-2.6983,-2.5693,-2.5824,-2.6101,-2.6508,-2.6533,-2.6658,-2.6973,-2.792,-2.8812,-2.9566,-3.0524,-3.1161,-3.1482,-3.1482,-3.1482,-3.1482,-3.1482,-3.1482,-3.1482,-3.1482,-3.1697,-3.2007,-3.2437,-3.3145,0.0,0.0,0.0,0.0,0.0,-3.5622,-3.5622,-3.5622,-3.5622,-3.5622,-3.5622,-3.5622,-3.5622,-3.5622,-3.5622,-3.5622,-3.5622,-3.5622,-3.5622,-3.5622,-3.5299,-3.5005,-3.5005,-3.4704,-3.4447,-3.4447,-3.4447,-3.4544,-3.4941,-3.5005,0.0,-3.4496,-3.4186,-3.3937,-3.3633,-3.3836,-3.4037,-3.4037,-3.4235,-3.4447,-3.4447,-3.4372,-3.4372,-3.4372,-3.4337,0.0,0.0,0.0,-3.3728,-3.3423,-3.3406,0.0,0.0,0.0,-3.4218,-3.4962,0.0,0.0,0.0,-3.4962,-3.5199,0.0,0.0,0.0,0.0,0.0,0.0,0.0,0.0,0.0,0.0,0.0,0.0,0.0,0.0,0.0,0.0,-2.9134,-2.9088,-2.7845,-2.8201,-2.8576,-2.8487,-2.8996,-2.8796,-2.739,-2.764,-2.7385,-2.6023,-2.6388,-2.6718,-2.6782,0.0,0.0,0.0,0.0,-2.8748,-3.0269,-3.0389,-3.0777,-3.1482,-3.1482,-3.1482,-3.1482,-3.1482,-3.1539,-3.164,-3.164,-3.2064,-3.2749,-3.2788,-3.3598,-3.4736,-3.4736,-3.5098,-3.5622,-3.5622,-3.5622,-3.5622,-3.5622,0.0,0.0,-3.5622,-3.5622,-3.5622,-3.5622,-3.5622,-3.5622,-3.5622,-3.5622,-3.5622,-3.5622,-3.5622,-3.5622,-3.5622,-3.5622,-3.5622,-3.5622,-3.5622,-3.5622,-3.5622,-3.5622,-3.5622,-3.5622,-3.5098,-3.4528,-3.3937,-3.4333,-3.4736,-3.4736,-3.5207,-3.5622,-3.5622,0.0,0.0,-3.5622,-3.5622,-3.5334,-3.4675,-3.4624,-3.4336,-3.3694,-3.366,-3.3964,-3.4607,-3.4694,-3.5033,-3.5694,-3.5694,-3.5694,-3.5694,-3.5622,-3.5622,0.0,0.0,0.0,0.0,0.0,0.0,0.0,0.0,0.0,0.0,0.0,0.0,0.0,0.0,0.0,-3.0081,-3.0038,-2.9717,-2.8511,-2.8442,-2.8339,-2.787,-2.7889,-2.7832,-2.7465,-2.7567,-2.7639,-2.7714,-2.783,-2.8053,-2.8465,-2.8492,-2.862,-2.8748,-2.9442,-2.995,-3.0329,-3.097,-3.1351,-3.1482,0.0,0.0,-3.1482,-3.1482,-3.1796,-3.2382,-3.2382,-3.2788,-3.3443,-3.3987,-3.4688,-3.5407,-3.5407,-3.547,-3.5622,-3.5622,-3.5622,-3.5622,-3.5622,-3.5622,-3.5622,-3.5622,-3.5622,-3.5622,-3.5622,-3.5622,0.0,-3.5622,-3.5622,-3.5622,-3.5622,-3.5622,-3.5622,-3.5622,-3.5622,-3.5622,-3.5622,-3.5622,-3.5622,-3.5622,-3.5622,-3.5622,-3.5622,-3.547,-3.5362,-3.5207,-3.5316,-3.5407,-3.5407,-3.5515,-3.5622,-3.5622,-3.5622,-3.5622,-3.5622,-3.5622,-3.5554,-3.5419,-3.5402,-3.5334,-3.5199,-3.5182,-3.5267,-3.5402,-3.5788,-3.6111,-3.6266,-3.6266,-3.6266,-3.6207,-3.5827,-3.5622,0.0,0.0,0.0,0.0,0.0,0.0,0.0,0.0,0.0,0.0,0.0,-3.119,-3.119,0.0,-3.1015,-3.0393,-3.0293,-2.9892,-2.8685,-2.8511,-2.8286,-2.766,-2.7874,-2.7928,-2.7527,-2.8022,-2.8353,-2.8232,-2.8443,-2.8747,-2.8989,-2.9002,-2.9192,-2.9628,-3.0072,-3.0524,-3.0896,-3.1278,-3.1482,-3.1482,-3.1482,-3.1697,-3.2064,-3.2064,-3.2422,-3.3093,-3.3093,-3.3495,-3.4137,-3.4847,-3.5316,-3.5622,-3.5622,-3.5622,-3.5622,-3.5622,-3.5622,-3.5622,-3.5622,-3.5622,-3.5622,-3.5622,-3.5622,-3.5622,-3.5622,-3.5622,-3.5622,-3.5622,-3.5622,-3.5622,-3.5622,-3.5622,-3.5622,-3.5622,-3.5622,-3.5622,-3.5622,-3.5622,-3.5622,-3.5622,-3.5622,-3.5622,-3.5622,-3.5622,-3.5622,-3.5622,-3.5622,-3.5622,-3.5622,-3.5622,-3.5622,-3.5622,-3.5622,-3.5622,-3.5622,-3.5622,-3.5622,-3.5622,-3.5854,-3.6028,-3.6028,-3.6249,-3.6399,-3.6399,-3.6684,-3.6803,-3.6803,-3.6539,-3.6374,-3.6392,-3.5854,-3.5622,0.0,0.0,0.0,0.0,0.0,0.0,0.0,-3.255,-3.2282,-3.1487,-3.1252,-3.119,-3.119,-3.119,-3.1055,-3.0559,-3.0477,-3.0081,-2.8996,-2.8732,-2.851,-2.8041,-2.8351,-2.8411,-2.7963,-2.8898,-2.9361,-2.888,-2.9223,-2.9504,-2.9504,-2.9504,-2.9827,-3.0524,-3.0524,-3.0837,-3.1482,-3.1482,-3.1582,-3.1682,-3.1682,-3.2104,-3.2788,-3.2788,-3.3145,-3.3786,-3.3937,-3.4301,-3.4847,-3.5362,-3.5622,-3.5622,-3.5622,-3.5622,-3.5622,-3.5622,-3.5622,-3.5622,-3.5622,-3.5622,-3.5622,-3.5622,-3.5622,-3.5622,-3.5622,-3.5622,-3.5622,-3.5622,-3.5622,-3.5622,-3.5622,-3.5622,-3.5622,-3.5622,-3.5622,-3.5622,-3.5622,-3.5622,-3.5622,-3.5622,-3.5622,-3.5622,-3.5622,-3.5622,-3.5622,-3.5622,-3.5622,-3.5622,-3.5622,-3.5622,-3.5622,-3.5622,-3.5622,-3.5622,-3.5622,-3.5694,-3.5739,-3.5739,-3.6249,-3.658,-3.658,-3.696,-3.719,-3.719,-3.7285,-3.7323,-3.7323,-3.6904,-3.6643,-3.6539,-3.6028,-3.5694,-3.4714,-3.4423,-3.4176,-3.4152,-3.3986,-3.368,0.0,-3.2809,-3.235,-3.1825,-3.1449,-3.119,-3.119,-3.119,-3.119,-3.1112,-3.1112,-3.0878,-3.0208,-2.9629,-2.9279,-2.9299,-2.8879,-2.8778,-2.9307,-2.9978,-3.0577,-3.1071,-3.1175,-3.1219,-3.1219,-3.1219,-3.1278,-3.1351,-3.1351,-3.1409,-3.1482,-3.1482,-3.1853,-3.2492,-3.2492,-3.2841,-3.3495,-3.3495,-3.3836,-3.4528,-3.5115,-3.5424,-3.547,-3.5577,-3.5622,-3.5622,-3.5622,-3.5622,-3.5622,-3.5622,-3.5622,-3.5622,-3.5622,-3.5622,-3.5622,-3.5622,-3.5622,-3.5622,-3.5622,-3.5622,-3.5622,-3.5622,-3.5622,-3.5622,-3.5622,-3.5622,-3.5622,-3.5622,-3.5622,-3.5622,-3.5622,-3.5622,-3.5622,-3.5622,-3.5622,-3.5622,-3.5622,-3.5622,-3.5622,-3.5622,-3.5622,-3.5622,-3.5622,-3.5622,-3.5622,-3.5622,-3.5622,-3.5622,-3.5622,-3.6028,-3.6291,-3.6291,-3.6803,-3.7097,-3.7097,-3.719,-3.719,-3.719,-3.7614,-3.7825,-3.7825,-3.7755,-3.7506,-3.7114,-3.6563,-3.6071,-3.4999,-3.4574,-3.42,-3.42,-3.4012,-3.3707,-3.3302,-3.3045,-3.2713,-3.1951,-3.166,-3.147,-3.1252,-3.119,-3.119,-3.119,-3.119,-3.1015,-3.0393,-3.0064,-2.9797,-2.9539,-2.9603,-2.9811,-3.0113,-3.0717,-3.1225,-3.1452,-3.1482,-3.1482,-3.1482,-3.1482,-3.1482,-3.1482,-3.1482,-3.1482,-3.1482,-3.191,-3.2272,-3.2586,-3.3002,-3.3531,-3.4186,-3.4186,-3.4544,-3.5207,-3.547,-3.5622,-3.5605,-3.5941,-3.6071,-3.6097,-3.6399,-3.6316,-3.6011,-3.5694,-3.5622,-3.565,-3.5941,-3.5854,-3.5667,-3.5985,-3.5854,-3.5622,-3.5622,-3.5622,-3.5622,-3.5622,-3.5622,-3.5622,-3.5622,-3.5622,-3.5622,-3.5622,-3.5622,-3.5622,-3.5622,-3.5622,-3.5622,-3.5622,-3.5622,-3.5622,-3.5622,-3.5854,-3.5985,-3.5667,-3.5622,-3.5622,-3.5622,-3.5622,-3.5622,-3.5622,-3.5898,-3.6071,-3.6071,-3.6563,-3.6882,-3.6882,-3.7323,-3.7614,-3.7614,-3.7895,-3.805,-3.805,-3.8285,-3.8382,-3.8382,-3.8065,-3.779,-3.7578,-3.6803,-3.6266,-3.5254,-3.4832,-3.4449,-3.4449,-3.4171,-3.3831,-3.3524,-3.3343,-3.3014,-3.2332,-3.1986,-3.1733,-3.1411,-3.1252,-3.119,-3.119,-3.119,-3.1055,-3.0617,-3.0393,-3.0277,-3.0323,-3.0566,-3.0918,-3.1304,-3.1438,-3.1482,-3.1482,-3.1482,-3.1482,-3.1482,-3.1482,-3.1482,-3.1482,-3.1697,-3.1796,-3.1796,-3.2532,-3.3002,-3.3145,-3.3633,-3.4235,-3.4894,-3.4894,-3.5144,-3.5622,-3.5622,-3.5694,-3.5854,-3.6224,-3.6498,-3.6643,-3.7076,-3.6943,-3.6563,-3.6165,-3.5941,-3.5898,-3.6457,-3.6374,-3.6097,-3.6481,-3.6374,-3.6054,-3.6054,-3.6054,-3.6054,-3.6054,-3.6054,-3.6054,-3.6054,-3.6054,-3.6054,-3.6054,-3.6054,-3.6054,-3.6054,-3.6054,-3.6054,-3.6054,-3.6054,-3.6054,-3.6054,-3.6374,-3.6481,-3.6079,-3.6054,-3.5924,-3.5667,-3.5739,-3.5898,-3.6011,-3.6416,-3.6603,-3.6603,-3.7097,-3.7396,-3.7396,-3.7843,-3.8099,-3.8099,-3.8496,-3.8707,-3.8707,-3.8707,-3.8707,-3.8707,-3.83,-3.8047,-3.7859,-3.7155,-3.6746,-3.5493,-3.5289,-3.5069,-3.5069,-3.4636,-3.4176,-3.4176,-3.367,-3.3184,-3.3154,-3.2433,-3.1789,-3.1789,-3.147,-3.119,-3.119,-3.119,-3.119,-3.119,-3.0658,-3.0793,-3.2134,-3.1819,-3.203,-3.3371,-3.2296,-3.1482,-3.1482,-3.1482,-3.1482,-3.1482,-3.1482,-3.1482,-3.1482,-3.216,-3.2547,-3.2547,-3.3235,-3.3887,-3.4528,-3.4576,-3.4941,-3.5577,-3.5577,-3.5577,-3.5622,-3.5622,-3.5898,-3.6392,-3.6374,-3.6724,-3.719,-3.7173,-3.7173,-3.7173,-3.7152,-3.6843,-3.6457,-3.6999,-3.719,-3.7135,-3.7173,-3.7173,-3.7135,-3.7135,-3.7135,-3.7135,-3.7135,-3.7135,-3.7135,-3.7135,-3.7135,-3.7135,-3.7135,-3.7135,-3.7135,-3.7135,-3.7135,-3.7135,-3.7135,-3.7135,-3.7135,-3.7135,-3.7173,-3.7173,-3.7135,-3.7135,-3.6803,-3.5739,-3.6054,-3.6563,-3.7114,-3.719,-3.719,-3.719,-3.7614,-3.7859,-3.7859,-3.8382,-3.8676,-3.8676,-3.8707,-3.8707,-3.8707,-3.8707,-3.8707,-3.8707,-3.8658,-3.8415,-3.7893,-3.7859,-3.7614,-3.5584,-3.5343,-3.5105,-3.5105,-3.4794,-3.4467,-3.4246,-3.4031,-3.375,-3.3284,-3.2934,-3.2631,-3.2298,-3.1897,-3.1603,-3.1603,-3.1372,-3.119,-3.119,-3.1015,-3.125,-3.2302,-3.2223,-3.2497,-3.3505,-3.3182,-3.2864,-3.2864,-3.2864,-3.2864,-3.2864,-3.2864,-3.2864,-3.2864,-3.313,-3.3235,-3.3235,-3.3937,-3.4382,-3.4624,-3.5052,-3.5571,-3.6139,-3.6139,-3.6333,-3.6666,-3.6666,-3.6746,-3.6943,-3.7268,-3.7488,-3.7685,-3.805,-3.7964,-3.772,-3.805,-3.7861,-3.7415,-3.7614,-3.747,-3.7248,-3.7578,-3.747,-3.719,-3.719,-3.719,-3.719,-3.719,-3.719,-3.719,-3.719,-3.719,-3.719,-3.719,-3.719,-3.719,-3.719,-3.719,-3.719,-3.719,-3.719,-3.719,-3.719,-3.747,-3.7649,-3.7649,-3.7396,-3.7058,-3.6706,-3.6843,-3.6999,-3.7173,-3.747,-3.7649,-3.7649,-3.815,-3.8433,-3.8433,-3.8596,-3.8707,-3.8707,-3.8707,-3.8707,-3.8707,-3.8707,-3.8707,-3.8707,-3.8707,-3.8627,-3.8415,-3.8065,-3.7825,-3.563,-3.546,-3.5277,-3.5277,-3.5053,-3.4793,-3.4574,-3.436,-3.408,-3.3643,-3.3372,-3.3124,-3.2809,-3.2366,-3.2004,-3.1825,-3.1565,-3.1351,-3.123,-3.119,-3.1611,-3.263,-3.2752,-3.3181,-3.4202,-3.4301,-3.4103,-3.3649,-3.3582,-3.3582,-3.3582,-3.3582,-3.3582,-3.3582,-3.3836,-3.3987,-3.3987,-3.464,-3.5065,-3.5232,-3.5873,-3.6357,-3.6684,-3.6684,-3.6865,-3.719,-3.719,-3.7285,-3.747,-3.779,-3.8013,-3.8216,-3.8578,-3.8496,-3.8216,-3.8578,-3.8465,-3.8183,-3.8183,-3.7998,-3.7791,-3.8083,-3.7964,-3.7756,-3.7756,-3.7756,-3.7756,-3.7756,-3.7756,-3.7756,-3.7756,-3.7756,-3.7756,-3.7756,-3.7756,-3.7756,-3.7756,-3.7756,-3.7756,-3.7756,-3.7756,-3.7756,-3.7756,-3.7998,-3.8183,-3.8183,-3.7929,-3.7667,-3.747,-3.7433,-3.7506,-3.7721,-3.7998,-3.8183,-3.8183,-3.824,-3.8267,-3.8267,-3.7991,-3.7845,-3.7845,-3.812,-3.8267,-3.8267,-3.856,-3.8707,-3.8707,-3.8707,-3.8707,-3.8707,-3.835,-3.8183,-3.5705,-3.5663,-3.5597,-3.5603,-3.5362,-3.5122,-3.5105,-3.4656,-3.4246,-3.4223,-3.3697,-3.3255,-3.3255,-3.2872,-3.2366,-3.1951,-3.1844,-3.1696,-3.1329,-3.1269,-3.1811,-3.3303,-3.3431,-3.4024,-3.5514,-3.5622,-3.5068,-3.3786,0.0,-3.3684,-3.3684,-3.3684,-3.3684,-3.3684,-3.4333,-3.464,-3.464,-3.5299,-3.5898,-3.6433,-3.6943,-3.721,-3.7228,-3.7228,-3.7248,-3.7266,-3.7266,-3.7542,-3.7946,-3.7946,-3.8234,-3.8707,-3.8707,-3.8707,-3.8707,-3.8707,-3.8707,-3.8707,-3.8707,-3.8707,-3.8707,-3.8707,-3.8707,-3.8707,-3.8707,-3.8707,-3.8707,-3.8707,-3.8707,-3.8707,-3.8707,-3.8707,-3.8707,-3.8707,-3.8707,-3.8707,-3.8707,-3.8707,-3.8707,-3.8707,-3.8707,-3.8707,-3.8707,-3.8707,-3.8707,-3.8707,-3.8707,-3.8515,-3.8032,-3.7946,-3.815,-3.8658,-3.8707,-3.8689,-3.8652,-3.7936,-3.7489,-3.7452,-3.6707,-3.6303,-3.6303,-3.7019,-3.7452,-3.7452,-3.823,-3.8634,-3.8634,-3.8689,-3.8707,-3.8707,-3.8707,-3.8707,-3.5848,-3.5755,-3.566,-3.5612,-3.5542,-3.5411,-3.5157,-3.4962,-3.4813,-3.4614,-3.4246,-3.3956,-3.3956,-3.3449,-3.2983,-3.2872,-3.255,-3.2282,-3.2179,-3.2162,-3.2739,-3.4263,-3.4112,-3.453,-3.6027,-3.581,-3.547,-3.5115,-3.5115,-3.5115,-3.5115,-3.5115,-3.5115,-3.5115,-3.527,-3.5362,-3.5362,-3.5924,-3.6249,-3.6433,-3.6943,-3.7396,-3.772,-3.772,-3.7929,-3.8318,-3.8318,-3.8401,-3.8515,-3.8515,-3.8596,-3.8707,-3.8707,-3.8707,-3.8707,-3.8707,-3.8707,-3.8707,-3.8707,-3.8707,-3.8707,-3.8707,-3.8707,-3.8707,-3.8707,-3.8707,-3.8707,-3.8707,-3.8707,-3.8707,-3.8707,-3.8707,-3.8707,-3.8707,-3.8707,-3.8707,-3.8707,-3.8707,-3.8707,-3.8707,-3.8707,-3.8707,-3.8707,-3.8707,-3.8707,-3.8707,-3.8707,-3.8658,-3.8496,-3.8515,-3.8546,-3.8676,-3.8707,-3.8469,-3.7845,-3.7606,-3.7221,-3.6633,-3.6413,-3.6303,-3.6303,-3.6486,-3.6597,-3.6597,-3.7386,-3.7808,-3.7808,-3.8414,-3.8707,-3.8707,-3.8707,-3.8707,-3.5937,-3.5868,-3.5768,-3.567,-3.5611,-3.5537,-3.5324,-3.519,-3.507,-3.4908,-3.4634,-3.4379,-3.4242,-3.3887,-3.3533,-3.3273,-3.2983,-3.2763,-3.2517,-3.2484,-3.3084,-3.4606,-3.4379,-3.4713,-3.6236,-3.5898,-3.5622,-3.5622,-3.5622,-3.5622,-3.5622,-3.5622,-3.5694,-3.5941,-3.5941,-3.6054,-3.6291,-3.6825,-3.7041,-3.7041,-3.7596,-3.8016,-3.8267,-3.8267,-3.8433,-3.8707,0.0,-3.8707,-3.8707,-3.8707,-3.8707,-3.8707,-3.8707,-3.8707,-3.8707,-3.8707,-3.8707,-3.8719,-3.8844,-3.8803,-3.8707,-3.8707,-3.8707,-3.8707,-3.8707,-3.8707,-3.8707,-3.8707,-3.8707,-3.8707,-3.8707,-3.8707,-3.8707,-3.8707,-3.8707,-3.8707,-3.8707,-3.8707,-3.8707,-3.8707,-3.8707,-3.8707,-3.8707,-3.8707,-3.8707,-3.8707,-3.8707,-3.8707,-3.8707,-3.8707,-3.8707,-3.8707,-3.8377,-3.7973,-3.7533,-3.6817,-3.6211,-3.5771,-3.5404,-3.5202,-3.5202,-3.555,-3.5734,-3.5734,-3.6541,-3.7129,-3.7507,-3.7936,-3.8358,-3.8707,-3.8707,-3.8707,-3.5996,-3.5957,-3.5876,-3.5749,-3.5669,-3.5603,-3.5545,-3.5339,-3.5138,-3.5138,-3.4908,-3.4593,-3.4334,-3.4218,-3.3975,-3.3372,-3.3273,-3.3136,-3.2745,-3.2681,-3.325,-3.4832,-3.4584,-3.4892,-3.6464,-3.6122,-3.581,-3.581,-3.581,-3.5766,-3.5694,-3.5766,-3.6011,-3.6498,-3.6498,-3.6724,-3.719,-3.7649,-3.7893,-3.7911,-3.8446,-3.8707,-3.8707,-3.8707,-3.8707,-3.8707,-3.8707,-3.8707,-3.8707,-3.8707,-3.8707,-3.8707,-3.8707,-3.8707,-3.8707,-3.875,-3.8762,-3.8773,-3.9063,-3.8999,-3.8822,-3.8762,-3.8719,-3.8707,-3.8707,-3.8707,-3.8707,-3.8707,-3.8707,-3.8707,-3.8707,-3.8707,-3.8707,-3.8707,-3.8707,-3.8707,-3.8707,-3.8707,-3.8707,-3.8707,-3.8707,-3.8707,-3.8707,-3.8707,-3.8707,-3.8707,-3.8707,-3.8707,-3.8707,-3.8707,-3.867,-3.856,-3.7918,-3.7404,-3.7184,-3.5844,-3.4935,-3.4844,-3.4192,-3.3807,-3.3807,-3.4486,-3.4825,-3.4825,-3.5697,-3.6468,-3.7165,-3.7276,-3.7734,-3.8542,-3.8542,-3.8597,-3.5996,-3.5996,-3.5957,-3.5876,-3.5772,-3.568,-3.5603,-3.5498,-3.5432,-3.5432,-3.5034,-3.4674,-3.4614,-3.4208,-3.3823,-3.3707,-3.3707,-3.368,-3.3578,-3.356,-3.4181,-3.5841,-3.5598,-3.5876,-3.7488,-3.7193,-3.6904,-3.6904,-3.6904,-3.6724,-3.6291,-3.6684,-3.696,-3.7076,-3.7058,-3.7114,-3.719,-3.7649,-3.7893,-3.7911,-3.8446,-3.8707,-3.8707,-3.8707,-3.8707,-3.8707,-3.8707,0.0,-3.8707,-3.8707,-3.8707,-3.8707,-3.8707,-3.8707,-3.8719,-3.8961,-3.9036,-3.909,-3.9389,-3.9481,-3.9383,-3.9117,-3.8884,-3.8707,-3.8707,-3.8707,-3.8707,-3.8707,-3.8707,-3.8707,-3.8707,-3.8707,-3.8707,-3.8707,-3.8707,-3.8707,-3.8707,-3.8707,-3.8707,-3.8707,-3.8707,-3.8707,-3.8707,-3.8707,-3.8707,-3.8707,-3.8707,-3.8707,-3.8707,-3.8707,-3.845,-3.7771,-3.7599,-3.6927,-3.5569,-3.5155,-3.4715,-3.4045,-3.388,-3.3807,-3.3807,-3.3935,-3.4009,-3.4009,-3.4816,-3.5284,-3.5459,-3.6156,-3.6909,-3.7698,-3.7698,-3.8065,-3.5996,-3.5996,-3.5976,-3.5918,-3.5848,-3.5776,-3.5624,-3.5584,-3.5545,-3.5526,-3.519,-3.487,-3.4733,-3.433,-3.3961,-3.3815,-3.3807,-3.3807,-3.3807,-3.3807,-3.4247,-3.5495,-3.5532,-3.5966,-3.7138,-3.7238,-3.719,-3.719,-3.7433,-3.736,-3.6843,-3.7285,-3.7578,-3.7578,-3.7826,-3.7982,-3.7982,-3.8183,-3.8318,-3.83,-3.8596,-3.8707,-3.8707,-3.8707,-3.8792,-3.8923,-3.8923,-3.9008,-3.9181,-3.9181,-3.9181,-3.9181,-3.9181,-3.9181,-3.9189,-3.9308,-3.9364,-3.9414,-3.9735,-3.9754,-3.9599,-3.9622,-3.9427,-3.9181,-3.9181,-3.9181,-3.9181,-3.9181,-3.9181,-3.9181,-3.9181,-3.9181,-3.9181,-3.9181,-3.9045,-3.8923,-3.8923,-3.8803,-3.8707,-3.8707,-3.8707,-3.8707,-3.8707,-3.8707,-3.8707,-3.8707,-3.8707,-3.856,-3.812,-3.8065,-3.7918,-3.7533,-3.6707,-3.5881,-3.5064,-3.4633,-3.4211,-3.3825,-3.3807,-3.3807,-3.3807,-3.3807,-3.3807,-3.3807,-3.4192,-3.4568,-3.499,-3.544,-3.6046,-3.689,-3.7323,-3.7698,-3.5996,-3.5996,-3.5996,-3.5937,-3.5918,-3.5845,-3.5658,-3.5618,-3.5584,-3.5526,-3.5239,-3.4944,-3.4734,-3.4398,-3.4043,-3.3842,-3.3807,-3.3807,-3.3807,-3.3807,-3.41,-3.4899,-3.5241,-3.5698,-3.6512,-3.7003,-3.7274,-3.7274,-3.7675,-3.7781,-3.7542,-3.7877,-3.8065,-3.8065,-3.8465,-3.8707,-3.8707,-3.8762,-3.8773,-3.8773,-3.8862,-3.8799,-3.8615,-3.8615,-3.8656,-3.8682,-3.8682,-3.8833,-3.9071,-3.9071,-3.9071,-3.9071,-3.9071,-3.9071,-3.9071,-3.9139,-3.9274,-3.9488,-3.9795,-3.987,-3.9821,-4.0101,-3.9922,-3.9599,-3.9599,-3.9599,-3.9599,-3.9599,-3.9599,-3.9599,-3.9599,-3.9599,-3.9576,-3.9529,-3.9257,-3.9008,-3.9008,-3.8844,-3.8707,-3.8707,-3.8707,-3.8707,-3.8707,-3.8707,-3.8652,-3.8469,-3.8432,-3.8157,-3.7331,-3.7074,-3.6945,-3.6945,-3.5789,-3.4917,-3.4752,-3.4174,-3.3807,-3.3807,-3.3807,-3.3807,-3.3807,-3.3807,-3.3807,-3.3807,-3.3807,-3.4119,-3.4734,-3.4734,-3.5183,-3.6046,-3.667,-3.7055,-3.5996,-3.5996,-3.5996,-3.5996,-3.5957,-3.5854,-3.5723,-3.5637,-3.5584,-3.5526,-3.5088,-3.4714,-3.4694,-3.4232,-3.3815,-3.3788,-3.3807,-3.3807,-3.3807,-3.3807,-3.41,-3.4899,-3.5017,-3.5402,-3.6245,-3.7021,-3.7479,-3.7479,-3.7747,-3.8089,-3.8541,-3.8596,-3.8627,-3.8627,-3.8658,-3.8707,-3.8707,-3.8933,-3.9044,-3.9072,-3.9383,-3.911,-3.8352,-3.8352,-3.7957,-3.7261,-3.7261,-3.7303,0.0,-3.7325,-3.7325,-3.7325,-3.7325,-3.7325,-3.7351,-3.7603,-3.8195,-3.8918,-3.9243,-3.9842,-4.0422,-4.0438,-4.0063,-3.9599,-3.9599,-3.9599,-3.9599,-3.9599,-3.9599,-3.9599,-3.9599,-3.9599,-3.951,-3.9212,-3.8952,-3.875,-3.875,-3.8719,-3.8707,-3.8707,-3.8707,-3.8707,-3.8707,-3.8707,-3.845,-3.7716,-3.7606,-3.7312,-3.6505,-3.5734,-3.521,-3.521,-3.5082,-3.4697,-3.3972,-3.3844,-3.3807,-3.3807,-3.3807,-3.3807,-3.3807,-3.3807,-3.3807,-3.3807,-3.3807,-3.3844,-3.3917,-3.3917,-3.4339,-3.5119,-3.5192,-3.5661,-3.5996,-3.5996,-3.5996,-3.5996,-3.5947,-3.5865,-3.5735,-3.5639,-3.5584,-3.5526,-3.507,-3.4694,-3.4694,-3.4208,-3.3807,0.0,0.0,-3.3807,-3.3807,-3.3807,-3.3917,-3.4247,-3.4697,-3.5137,-3.5495,-3.6285,-3.678,-3.678,-3.7044,-3.7262,-3.7479,-3.7498,-3.7498,-3.7498,-3.7337,-3.7257,-3.7257,-3.7534,-3.7657,-3.7657,-3.7943,-3.7913,-3.7593,-3.7593,-3.7492,-3.7336,-3.7336,-3.7452,0.0,-3.7637,-3.7637,-3.7637,-3.7637,-3.7637,-3.7655,-3.7759,-3.8019,-3.8326,-3.8477,-3.8719,-3.8988,-3.8988,-3.884,-3.8839,-3.9833,-4.0138,-4.0138,-4.0138,-4.0138,-4.0138,-4.0138,-4.0138,-4.0101,-3.9966,-3.9735,-3.9543,-3.9543,-3.9396,-3.9242,-3.9242,-3.9242,-3.9189,-3.899,-3.8672,-3.8245,-3.7603,-3.7239,-3.6639,-3.5652,-3.5192,-3.4807,-3.4339,-3.4284,-3.4156,-3.3825,-3.3807,-3.3807,-3.3807,-3.3807,-3.3807,-3.3807,-3.3807,-3.3807,-3.3807,-3.3807,-3.3807,-3.3807,-3.3807,-3.3972,-3.4302,-3.4752,-3.5174,-3.5996,-3.5996,-3.5996,-3.5996,-3.5956,-3.5862,-3.5728,-3.5651,-3.5584,-3.5526,-3.507,-3.4694,-3.4694,-3.4208,-3.3807,0.0,0.0,-3.3807,-3.3807,-3.3807,-3.3807,-3.3807,-3.4302,-3.4669,-3.4669,-3.5506,-3.6223,-3.6638,-3.6614,-3.6629,-3.6701,-3.6385,-3.6405,-3.6814,-3.6649,-3.6535,-3.6535,-3.6795,-3.6944,-3.6944,-3.7232,-3.7241,-3.6975,-3.6975,-3.6958,-3.6908,-3.6908,-3.7044,0.0,-3.7257,-3.7257,-3.7257,-3.7257,-3.7257,-3.7257,-3.7257,-3.7411,-3.7623,-3.7623,-3.7777,-3.8007,-3.8007,-3.8007,-3.8219,-3.9392,-3.9758,-3.9758,-3.9758,-3.9758,-3.9815,-4.0065,-4.0057,-4.0046,-4.0315,-4.0157,-3.9943,-3.9943,-3.9775,-3.9524,-3.9278,-3.9222,-3.9077,-3.859,-3.8188,-3.7737,-3.7116,-3.6708,-3.6087,-3.5043,-3.4907,-3.4685,-3.4136,-3.408,-3.403,-3.3928,-3.3928,-3.3979,-3.4062,-3.408,-3.408,-3.408,-3.408,-3.408,-3.408,-3.408,-3.408,-3.408,-3.3979,-3.3928,-3.3928,-3.443,-3.4752,-3.5996,-3.5996,-3.5996,-3.5996,-3.5956,-3.5853,-3.5718,-3.5641,-3.5584,-3.5526,-3.507,-3.4694,-3.4694,-3.4208,-3.3807,-3.3807,-3.3807,0.0,-3.3807,-3.3807,-3.3807,-3.3807,-3.3807,-3.3807,-3.3807,-3.484,-3.6062,-3.7376,-3.6747,0.0,-3.669,-3.5698,-3.5723,-3.7043,-3.7099,-3.7099,-3.7099,-3.7356,-3.7489,-3.7508,-3.7824,-3.7531,-3.6704,-3.6704,-3.6262,-3.5512,-3.5512,-3.5512,0.0,-3.5545,-3.5545,-3.5545,-3.5545,-3.5545,-3.5545,-3.5545,-3.6045,-3.6719,-3.6719,-3.7276,-3.8007,-3.8007,-3.8007,-3.8007,-3.8027,-3.8027,-3.8027,-3.8027,-3.8027,-3.8219,-3.9084,-3.9078,-3.9033,-3.991,-3.9859,-3.9599,-3.9599,-3.9599,-3.9354,-3.8482,-3.829,-3.8064,-3.725,-3.7118,-3.6836,-3.6029,-3.5918,-3.5616,-3.4806,-3.4713,-3.4713,-3.4694,-3.4694,-3.4551,-3.4223,-3.4218,-3.4334,-3.4674,-3.4694,-3.4694,-3.4694,-3.4694,-3.4694,-3.4694,-3.4694,-3.4694,-3.4694,-3.4357,-3.4218,-3.4176,-3.3928,-3.4247,-3.582,-3.5781,-3.5794,-3.5795,-3.5747,-3.5679,-3.5637,-3.5445,-3.5242,-3.5223,-3.4756,-3.4357,-3.4357,-3.4062,-3.3807,-3.3807,-3.3807,-3.3807,-3.3807,-3.3807,-3.385,-3.4043,-3.4284,-3.4416,-3.4416,-3.473,-3.5122,-3.5551,-3.5513,-3.5522,-3.5605,-3.5473,-3.5487,-3.5742,-3.5568,-3.5466,-3.5466,-3.5742,-3.5867,-3.5867,-3.6155,-3.6161,-3.5892,-3.5892,-3.5738,-3.5493,-3.5493,-3.5493,0.0,-3.5493,-3.5493,-3.5493,-3.5493,-3.5493,-3.5493,-3.5493,-3.5661,-3.5892,-3.5892,-3.6065,-3.6295,-3.6295,-3.6295,-3.6295,-3.6295,-3.7084,-3.8007,-3.8007,-3.8007,-3.8065,-3.8334,-3.8328,-3.8323,-3.8591,-3.858,-3.851,-3.851,-3.851,-3.8414,-3.8165,-3.8089,-3.7941,-3.7471,-3.7069,-3.663,-3.6,-3.559,-3.5192,-3.4752,-3.4694,-3.4694,-3.4694,-3.4694,-3.4653,-3.4551,-3.4551,-3.4572,-3.4694,-3.4694,-3.4694,-3.4694,-3.4694,-3.4694,-3.4694,-3.4694,-3.4694,-3.4694,-3.4593,-3.4551,-3.4529,-3.4442,-3.4433,-3.5724,-3.5705,-3.5691,-3.5707,-3.5639,-3.557,-3.5473,-3.5272,-3.507,-3.4963,-3.4553,-3.42,-3.42,-3.3986,-3.3807,-3.3807,-3.3807,-3.3807,-3.3807,-3.3876,-3.4043,-3.4357,-3.4572,-3.4734,-3.4832,-3.4851,-3.4908,-3.4999,-3.5174,-3.5239,-3.5239,-3.5417,-3.5432,-3.5258,-3.5088,-3.4999,-3.4999,-3.5174,-3.5239,-3.5239,-3.5432,-3.5493,-3.5493,-3.5493,-3.5493,-3.5493,-3.5493,-3.5493,0.0,-3.5493,-3.5493,-3.5493,-3.5493,-3.5493,-3.5493,-3.5493,-3.5493,-3.5493,-3.5493,-3.5493,-3.5493,-3.5493,-3.5493,-3.5493,-3.5493,-3.6238,-3.7065,-3.7065,-3.7065,-3.7142,-3.743,-3.7507,-3.7584,-3.7911,-3.8007,-3.8007,-3.8007,-3.8007,-3.7892,-3.7565,-3.7507,-3.7348,-3.6824,-3.6477,-3.6132,-3.5815,-3.5446,-3.519,-3.5016,-3.4999,-3.4999,-3.4999,-3.4999,-3.4999,-3.4999,-3.4908,-3.4889,-3.4999,-3.4999,-3.4999,-3.4999,-3.4999,-3.4999,-3.4999,-3.4999,-3.4999,-3.4999,-3.4908,-3.4793,-3.4694,-3.4694,-3.4572,0.0,-3.5699,-3.5699,-3.5699,-3.5614,-3.5492,-3.5249,-3.5116,0.0,0.0,0.0,-3.4171,-3.4171,-3.3961,-3.3807,-3.3807,-3.3807,-3.3807,-3.3807,-3.4018,-3.4334,-3.4632,-3.4694,-3.4832,-3.5088,-3.5122,-3.5223,-3.5493,-3.5493,-3.5493,-3.5493,-3.5493,-3.5493,-3.5493,-3.5493,-3.5493,-3.5493,-3.5493,-3.5493,-3.5493,-3.5493,-3.5493,-3.5493,-3.5493,-3.5493,0.0,-3.5493,-3.5493,0.0,-3.5493,-3.5493,-3.5493,-3.5493,-3.5493,-3.5493,-3.5493,-3.5493,-3.5493,-3.5493,-3.5493,-3.5493,-3.5493,-3.5493,-3.5493,-3.5493,-3.5493,-3.5493,-3.5493,-3.5493,-3.568,-3.643,-3.6622,-3.6815,-3.7623,-3.7815,-3.7815,-3.7815,-3.7815,-3.7584,-3.6776,-3.6622,-3.6392,-3.5641,-3.5493,-3.5493,-3.5493,-3.5493,-3.5493,-3.5493,-3.5493,-3.5493,-3.5493,-3.5493,-3.5493,-3.5493,-3.5273,-3.5223,-3.5493,-3.5493,-3.5493,-3.5493,-3.5493,-3.5493,-3.5493,-3.5493,-3.5493,-3.5493,-3.5239,-3.4999,-3.4773,-3.4773,-3.4753,-3.5545,0.0,-3.5565,-3.5565,-3.5379,-3.5192,0.0,0.0,0.0,0.0,0.0,0.0,0.0,-3.3842,-3.3807,-3.3807,-3.3807,-3.3807,-3.3807,-3.4018,-3.4223,-3.4311,-3.4735,-3.5016,-3.5088,-3.5289,-3.5432,-3.5493,-3.5493,-3.5493,-3.5493,-3.5493,-3.5493,-3.5493,-3.5493,-3.5493,-3.5493,-3.5493,-3.5493,-3.5493,-3.5493,-3.5493,-3.5493,-3.5493,-3.5493,-3.5493,-3.5493,0.0,-3.5493,-3.5493,-3.5493,-3.5493,-3.5493,-3.5493,-3.5493,-3.5493,-3.5493,-3.5493,-3.5493,-3.5493,-3.5493,-3.5493,-3.5493,-3.5493,-3.5493,-3.5493,-3.5493,-3.5493,-3.5493,-3.5532,-3.5738,-3.5795,-3.5834,-3.6045,-3.6103,-3.6103,-3.6103,-3.6103,-3.6026,-3.5834,-3.5795,-3.5718,-3.5532,-3.5493,-3.5493,-3.5493,-3.5493,-3.5493,-3.5493,-3.5493,-3.5493,-3.5493,-3.5493,-3.5493,-3.5493,-3.5446,-3.5432,-3.5493,-3.5493,-3.5493,-3.5493,-3.5493,-3.5493,-3.5493,-3.5493,-3.5493,-3.5493,-3.5432,-3.5369,-3.5304,-3.5304,-3.5207,-3.5166,-3.5301,-3.5455,-3.5339,-3.5219,-3.5032,-3.4749,0.0,0.0,0.0,0.0,0.0,0.0,-3.3807,-3.3807,-3.3807,-3.3807,-3.3842,-3.3961,-3.4099,-3.4265,-3.4401,-3.4832,-3.5105,0.0,-3.5335,-3.5493,-3.5493,-3.5493,-3.5493,-3.5493,-3.5493,-3.5493,-3.5493,-3.5493,-3.5493,-3.5493,-3.5493,-3.5493,-3.5493,-3.5545,-3.5565,-3.5565,-3.5584,-3.5603,-3.5603,-3.5603,0.0,-3.5603,-3.5603,-3.5603,-3.5603,-3.5603,-3.5603,-3.5603,-3.5603,-3.5603,-3.5603,-3.5603,-3.5603,-3.5603,-3.5603,-3.5603,-3.5603,-3.5565,-3.5565,-3.5545,-3.5526,-3.5493,-3.5493,-3.5493,-3.5493,-3.5493,-3.5493,-3.5493,-3.5493,-3.5493,-3.5493,-3.5493,-3.5493,-3.5493,-3.5493,-3.5493,-3.5493,-3.5493,-3.5493,-3.5493,-3.5493,-3.5493,-3.5493,-3.5493,-3.5493,-3.5493,-3.5493,-3.5493,-3.5493,-3.5493,-3.5493,-3.5493,-3.5493,-3.5493,-3.5493,-3.5493,-3.5493,-3.5493,-3.5493,-3.5493,-3.5493,-3.5493,-3.5493,-3.5493,-3.5432,-3.4764,-3.5066,-3.5381,-3.5119,-3.4997,-3.4817,-3.4323,0.0,0.0,0.0,0.0,0.0,0.0,-3.3762,-3.3807,-3.3807,-3.3807,-3.3876,-3.4099,-3.4147,-3.4242,-3.4548,-3.4813,-3.4981,-3.5034,-3.5289,-3.5446,-3.5493,-3.5493,-3.5493,-3.5493,-3.5493,-3.5493,-3.5493,-3.5493,-3.5493,-3.5493,-3.5493,-3.5493,-3.5493,-3.5584,-3.5603,-3.5603,-3.5676,-3.5701,-3.5701,0.0,0.0,-3.5701,-3.5701,-3.5701,-3.5701,-3.5701,-3.5701,-3.5701,-3.5701,-3.5701,-3.5701,-3.5701,-3.5701,-3.5701,-3.5701,-3.5701,-3.5682,-3.5624,-3.5624,-3.5603,-3.5545,-3.5526,-3.5493,-3.5493,-3.5493,-3.5493,-3.5493,-3.5493,-3.5493,-3.5493,-3.5493,-3.5493,-3.5493,-3.5493,-3.5493,-3.5493,-3.5493,-3.5493,-3.5493,-3.5493,-3.5493,-3.5493,-3.5493,-3.5493,-3.5493,-3.5493,-3.5493,-3.5493,-3.5493,-3.5493,-3.5493,-3.5493,-3.5493,-3.5493,-3.5493,-3.5493,-3.5493,-3.5493,-3.5493,-3.5493,-3.5493,-3.5493,-3.5493,-3.5493,-3.5493,-3.4711,-3.494,-3.5105,-3.4818,-3.4545,-3.4323,-3.4236,0.0,0.0,0.0,0.0,0.0,0.0,-3.3578,-3.3807,-3.3807,-3.3807,-3.3815,-3.3868,-3.385,-3.3876,-3.3928,-3.4171,-3.4445,-3.4734,-3.4999,-3.5258,-3.5493,-3.5493,-3.5493,-3.5493,-3.5493,-3.5493,-3.5493,-3.5493,-3.5493,-3.5493,-3.5493,-3.5493,-3.5493,-3.5584,-3.5603,-3.5584,-3.567,-3.5698,-3.5698,0.0,-3.5698,-3.5698,-3.5698,-3.5698,-3.5698,-3.5698,-3.5698,-3.5698,-3.5698,-3.5698,-3.5698,-3.5698,-3.5698,-3.5698,-3.5698,-3.5698,-3.5698,-3.5698,-3.5687,-3.568,-3.5603,-3.5545,-3.5493,-3.5493,-3.5493,-3.5493,-3.5493,-3.5493,-3.5493,-3.5493,-3.5493,-3.5493,-3.5493,-3.5493,-3.5493,-3.5493,-3.5493,-3.5493,-3.5493,-3.5493,-3.5493,-3.5493,-3.5493,-3.5493,-3.5493,-3.5493,-3.5493,-3.5493,-3.5493,-3.5493,-3.5493,-3.5493,-3.5493,-3.5493,-3.5493,-3.5493,-3.5493,-3.5493,-3.5493,-3.5493,-3.5493,-3.5493,-3.5493,-3.5493,-3.5493,-3.4246,-3.4301,-3.4371,-3.4254,-3.4333,-3.4402,0.0,0.0,0.0,0.0,0.0,0.0,0.0,-3.368,-3.3807,-3.3807,-3.3807,-3.3807,-3.3807,-3.3807,-3.3807,0.0,0.0,-3.4334,-3.4674,-3.4944,-3.5207,-3.5479,-3.5493,-3.5493,-3.5493,-3.5493,-3.5493,-3.5493,-3.5493,-3.5493,-3.5493,-3.5493,-3.5493,-3.5493,-3.5603,-3.5637,-3.565,-3.5797,-3.5851,-3.5851,0.0,-3.5851,-3.5851,-3.5851,-3.5851,-3.5851,-3.5851,-3.5851,-3.5851,-3.5851,-3.5851,-3.5851,-3.5851,-3.5851,-3.5851,-3.5851,-3.5851,-3.5861,-3.5813,-3.5814,-3.5784,-3.5628,-3.5579,-3.5565,-3.5526,-3.5493,-3.5493,-3.5493,-3.5493,-3.5493,-3.5493,-3.5493,-3.5493,-3.5493,-3.5493,-3.5493,-3.5493,-3.5493,-3.5493,-3.5493,-3.5493,-3.5493,-3.5493,-3.5493,-3.5493,-3.5493,-3.5493,-3.5493,-3.5493,-3.5493,-3.5493,-3.5493,-3.5493,-3.5493,-3.5493,-3.5493,-3.5493,-3.5493,-3.5493,-3.5493,-3.5493,-3.5493,-3.5493,-3.5493,-3.5493,-3.5493,-3.3752,-3.3715,-3.3728,-3.3544,-3.4011,0.0,0.0,0.0,0.0,0.0,0.0,0.0,0.0,-3.3578,-3.3652,-3.3652,-3.3734,-3.3807,-3.3807,-3.3807,-3.3807,-3.3807,-3.3986,-3.4265,-3.4653,-3.4889,-3.5138,-3.5479,-3.5493,-3.5493,-3.5493,-3.5493,-3.5493,-3.5493,-3.5493,-3.5493,-3.5493,-3.5526,-3.5526,-3.5493,-3.5641,-3.5701,-3.571,-3.5906,-3.5996,-3.5996,-3.5996,-3.5996,-3.5996,-3.5996,-3.5996,-3.5996,-3.5996,-3.5996,-3.5996,-3.5996,-3.5996,-3.5996,-3.5996,-3.5996,-3.5996,-3.5996,-3.5996,-3.5995,-3.5947,-3.592,-3.5901,-3.5718,-3.567,-3.5641,-3.5545,-3.5526,-3.5526,-3.5493,-3.5493,-3.5493,-3.5493,-3.5493,-3.5493,-3.5493,-3.5493,-3.5493,-3.5493,-3.5493,-3.5493,-3.5493,-3.5493,-3.5493,-3.5493,-3.5493,-3.5493,-3.5493,-3.5493,-3.5493,-3.5493,-3.5493,-3.5493,-3.5493,-3.5493,-3.5493,-3.5493,-3.5493,-3.5493,-3.5493,-3.5493,-3.5493,-3.5493,-3.5493,-3.5493,-3.5493,-3.5493,-3.5493,-3.335,-3.3405,-3.345,-3.2761,-3.322,0.0,-3.3807,-3.3807,0.0,-3.3331,0.0,0.0,0.0,-3.2952,-3.3243,-3.3243,-3.355,-3.3807,-3.3807,0.0,-3.3807,-3.3807,-3.3815,-3.4062,-3.4632,-3.4714,-3.4944,-3.546,-3.5493,-3.5493,-3.5493,-3.5493,-3.5493,-3.5493,-3.5493,-3.5493,-3.5493,-3.5565,-3.5565,-3.5493,-3.5641,-3.5701,-3.571,-3.5906,-3.5996,-3.5996,-3.5996,-3.5996,-3.5996,-3.5996,-3.5996,-3.5996,-3.5996,-3.5996,-3.5996,-3.5996,-3.5996,-3.5996,-3.5996,-3.5996,-3.5996,-3.5996,-3.5996,-3.5996,-3.5996,-3.5995,-3.5984,-3.5908,-3.5875,-3.5815,-3.5584,-3.5565,-3.5584,-3.5526,-3.5493,-3.5493,-3.5493,-3.5493,-3.5493,-3.5493,-3.5493,-3.5493,-3.5493,-3.5493,-3.5493,-3.5493,-3.5493,-3.5493,-3.5493,-3.5493,-3.5493,-3.5493,-3.5493,-3.5493,-3.5493,-3.5493,-3.5493,-3.5493,-3.5493,-3.5493,-3.5493,-3.5493,-3.5493,-3.5493,-3.5493,-3.5493,-3.5493,-3.5493,-3.5493,-3.5493,-3.5493,-3.5493,-3.3313,-3.3466,-3.3546,-3.2704,-3.2984,0.0,0.0,-3.3195,-3.3022,-3.3172,-3.3328,0.0,0.0,-3.284,-3.2745,-3.2745,-3.3136,-3.3437,-3.3437,-3.3634,-3.3807,-3.3807,-3.3807,-3.3954,-3.4357,-3.4572,-3.4851,-3.5223,-3.5417,-3.5493,-3.5493,-3.5493,-3.5493,-3.5493,-3.5493,-3.5493,-3.5493,-3.5584,-3.5603,-3.5565,-3.5738,-3.5804,-3.5831,-3.5942,-3.5996,-3.5996,-3.5996,-3.5996,-3.5996,-3.5996,-3.5996,-3.5996,-3.5996,-3.5996,-3.5996,-3.5996,-3.5996,-3.5996,-3.5996,-3.5996,-3.5996,-3.5996,-3.5996,-3.5996,-3.5996,-3.5996,-3.5995,-3.5916,-3.5926,-3.5907,-3.5679,-3.5639,-3.5661,-3.5641,-3.5603,-3.5565,-3.5565,-3.5545,-3.5493,-3.5493,-3.5493,-3.5493,-3.5493,-3.5493,-3.5493,-3.5493,-3.5493,-3.5493,-3.5493,-3.5493,-3.5493,-3.5493,-3.5493,-3.5493,-3.5493,-3.5493,-3.5493,-3.5493,-3.5493,-3.5493,-3.5493,-3.5493,-3.5493,-3.5493,-3.5493,-3.5493,-3.5493,-3.5493,-3.5493,-3.5493,-3.5493,-3.5493,-3.2912,-3.3075,-3.3175,-3.2316,0.0,0.0,-3.2745,-3.2614,-3.2599,-3.2928,-3.2855,-3.2769,-3.2755,0.0,0.0,0.0,-3.2681,-3.3045,-3.3184,-3.3437,-3.3652,-3.3762,-3.3807,-3.3902,-3.4152,-3.4508,-3.4793,-3.5088,-3.5354,-3.5493,-3.5493,-3.5493,-3.5493,-3.5493,-3.5493,-3.5493,-3.5493,-3.5603,-3.5637,-3.562,-3.583,-3.5911,-3.59,-3.5962,-3.5996,-3.5996,-3.5996,-3.5996,-3.5996,-3.5996,-3.5996,-3.5996,-3.5996,-3.5996,-3.5996,-3.5996,-3.5996,-3.5996,-3.5996,-3.5996,-3.5996,-3.5996,-3.5996,-3.5996,-3.5996,-3.5996,-3.5996,-3.5937,-3.5953,-3.5978,-3.5826,-3.5788,-3.5757,-3.5712,-3.5659,-3.5635,-3.563,-3.5584,-3.5545,-3.5545,-3.5526,-3.5493,-3.5493,-3.5493,-3.5493,-3.5493,-3.5493,-3.5493,-3.5493,-3.5493,-3.5493,-3.5493,-3.5493,-3.5493,-3.5493,-3.5493,-3.5493,-3.5493,-3.5493,-3.5493,-3.5493,-3.5493,-3.5493,-3.5493,-3.5493,-3.5493,-3.5493,-3.5493,-3.5493,-3.5493,-3.5493,-3.5493,-3.2055,-3.2148,-3.2303,0.0,0.0,0.0,-3.1681,-3.2148,-3.248,-3.251,-3.2121,-3.1789,-3.1789,-3.1789,0.0,-3.1771,-3.2196,-3.2648,-3.3154,-3.3214,-3.3361,-3.3734,-3.3807,-3.3902,-3.4171,-3.4508,-3.4793,-3.5088,-3.5354,-3.5493,-3.5493,-3.5493,-3.5493,-3.5493,-3.5493,-3.5493,-3.5493,-3.5641,-3.5689,-3.5703,-3.5913,-3.5963,-3.5894,-3.5966,-3.5996,-3.5996,-3.5996,-3.5996,-3.5996,-3.5996,-3.5996,-3.5996,-3.5996,-3.5996,-3.5996,-3.5996,-3.5996,-3.5996,-3.5996,-3.5996,-3.5996,-3.5996,-3.5996,-3.5996,-3.5996,-3.5996,-3.5996,-3.5996,-3.5996,-3.5993,-3.6006,-3.5942,-3.5875,-3.5727,-3.571,-3.569,-3.5701,-3.5641,-3.5603,-3.5603,-3.5565,-3.5493,-3.5493,-3.5493,-3.5493,-3.5493,-3.5493,-3.5493,-3.5493,-3.5493,-3.5493,-3.5493,-3.5493,-3.5493,-3.5493,-3.5493,-3.5493,-3.5493,-3.5493,-3.5493,-3.5493,-3.5493,-3.5493,-3.5493,-3.5493,-3.5493,-3.5493,-3.5493,-3.5493,-3.5493,-3.5493,-3.5493,-3.1988,-3.2148,0.0,-3.1405,0.0,0.0,0.0,-3.1497,0.0,0.0,-3.1696,-3.147,-3.1752,-3.1565,0.0,-3.1389,-3.2021,-3.255,-3.2681,-3.3225,-3.368,-3.3807,-3.3807,-3.3842,-3.3928,-3.4375,-3.4734,-3.4813,-3.5239,-3.5493,-3.5493,-3.5493,-3.5493,-3.5493,-3.5493,-3.5526,-3.5584,-3.5661,-3.5753,-3.5832,-3.595,-3.5986,-3.597,-3.5992,-3.5996,-3.5996,-3.5996,-3.5996,-3.5996,-3.5996,-3.5996,-3.5996,-3.5996,-3.5996,-3.5996,-3.5996,-3.5996,-3.5996,-3.5996,-3.5996,-3.5996,-3.5996,-3.5996,-3.5996,-3.5996,-3.5996,-3.5996,-3.5996,-3.5996,-3.5996,-3.6007,-3.5993,-3.5957,-3.5929,-3.5867,-3.5843,-3.5838,-3.5749,-3.5679,-3.5676,-3.5661,-3.5641,-3.5641,-3.5641,-3.5622,-3.5584,-3.5584,-3.5565,-3.5526,-3.5493,-3.5493,-3.5493,-3.5493,-3.5493,-3.5493,-3.5493,-3.5493,-3.5493,-3.5493,-3.5493,-3.5493,-3.5493,-3.5493,-3.5493,-3.5493,-3.5493,-3.5493,-3.5493,-3.5493,-3.5493,-3.5493,-3.5493,-3.1872,-3.2021,0.0,-3.1557,-3.1506,-3.1506,-3.128,0.0,0.0,0.0,-3.1365,-3.1252,-3.1507,-3.1351,0.0,-3.119,-3.1787,-3.2282,-3.2484,-3.3105,-3.3606,-3.3762,-3.3807,-3.3842,-3.3935,-3.4398,-3.4734,-3.4851,-3.5273,-3.5493,-3.5493,-3.5493,-3.5493,-3.5493,-3.5493,-3.5545,-3.5603,-3.5674,-3.5782,-3.5905,-3.5977,-3.5996,-3.5996,-3.5996,-3.5996,-3.5996,-3.5996,-3.5996,-3.5996,-3.5996,-3.5996,-3.5996,-3.5996,-3.5996,-3.5996,-3.5996,-3.5996,-3.5996,-3.5996,-3.5996,-3.5996,-3.5996,-3.5996,-3.5996,-3.5996,-3.5996,-3.5996,-3.5996,-3.5996,-3.5996,-3.5996,-3.5996,-3.5996,-3.5996,-3.5976,-3.5937,-3.5937,-3.5864,-3.5788,-3.5784,-3.5737,-3.5704,-3.5704,-3.5704,-3.5684,-3.5646,-3.5637,-3.5641,-3.5584,-3.5584,-3.5584,-3.5584,-3.5565,-3.5545,-3.5545,-3.5526,-3.5493,-3.5493,-3.5493,-3.5493,-3.5493,-3.5493,-3.5493,-3.5493,-3.5493,-3.5493,-3.5493,-3.5493,-3.5493,-3.5493,-3.5493,-3.5493,-3.1771,-3.173,-3.1739,-3.1759,-3.1472,0.0,-3.119,-3.119,-3.119,-3.119,0.0,-3.119,-3.119,-3.119,-3.119,-3.119,-3.1565,-3.2022,-3.2451,-3.2952,-3.339,-3.3762,-3.3807,-3.3902,-3.4152,-3.4508,-3.4793,-3.5088,-3.5354,-3.5493,-3.5493,-3.5493,-3.5493,-3.5493,-3.5526,-3.5545,-3.5622,-3.567,-3.5775,-3.59,-3.597,-3.5996,-3.5996,-3.5996,-3.5996,-3.5996,-3.5996,-3.5996,-3.5996,-3.5996,-3.5996,-3.5996,-3.5996,-3.5996,-3.5996,-3.5996,-3.5996,-3.5996,-3.5996,-3.5996,-3.5996,-3.5996,-3.5996,-3.5996,-3.5996,-3.5996,-3.5996,-3.5996,-3.5996,-3.5996,-3.5996,-3.5996,-3.5996,-3.5996,-3.5996,-3.5996,-3.5996,-3.5957,-3.5918,-3.5918,-3.5806,-3.5729,-3.5729,-3.5729,-3.5729,-3.5729,-3.5718,-3.5714,-3.5714,-3.5714,-3.5714,-3.5714,-3.5643,-3.5611,-3.5603,-3.5565,-3.5526,-3.5526,-3.5493,-3.5493,-3.5493,-3.5493,-3.5493,-3.5493,-3.5493,-3.5493,-3.5493,-3.5493,-3.5493,-3.5493,-3.5493,-3.5493,-3.1331,-3.1341,0.0,-3.1316,-3.128,-3.119,-3.119,-3.119,-3.119,-3.119,-3.119,-3.119,-3.119,-3.119,-3.119,-3.119,-3.186,-3.2366,-3.2484,-3.3196,-3.3707,-3.3788,-3.3807,-3.3902,-3.4152,-3.4508,-3.4793,-3.5088,-3.5354,-3.5493,-3.5493,-3.5493,-3.5493,-3.5493,-3.5565,-3.5622,-3.568,-3.5798,-3.5891,0.0,-3.5993,-3.5996,-3.5996,-3.5996,-3.5996,-3.5996,-3.5996,-3.5996,-3.5996,-3.5996,-3.5996,-3.5996,-3.5996,-3.5996,-3.5996,-3.5996,-3.5996,-3.5996,-3.5996,-3.5996,-3.5996,-3.5996,-3.5996,-3.5996,-3.5996,-3.5996,-3.5996,-3.5996,-3.5996,-3.5996,-3.5996,-3.5996,-3.5996,-3.5996,-3.5996,-3.5996,-3.5996,-3.5996,-3.5976,-3.5976,-3.5955,-3.593,-3.593,-3.593,-3.5911,-3.5852,-3.5777,-3.5702,-3.5702,-3.5702,-3.5702,-3.5702,-3.5702,-3.5679,-3.5688,-3.5622,-3.5584,-3.5584,-3.5545,-3.5493,-3.5493,-3.5493,-3.5493,-3.5493,-3.5493,-3.5493,-3.5493,-3.5493,-3.5493,-3.5493,-3.5493,-3.5493,-3.1438,0.0,0.0,-3.1219,0.0,-3.119,-3.119,-3.119,-3.1224,-3.1455,-3.1331,-3.119,-3.119,-3.119,-3.1252,-3.1449,-3.2056,-3.2583,-3.2809,-3.339,-3.3807,-3.3807,-3.3807,-3.3979,-3.442,-3.4612,-3.4851,-3.5273,-3.5432,-3.5493,-3.5493,-3.5493,-3.5526,-3.5565,-3.5584,-3.5661,-3.5795,-3.5872,-3.593,-3.5996,-3.5996,-3.5996,-3.5996,-3.5996,-3.5996,-3.5996,-3.5996,-3.5996,-3.5996,-3.5996,-3.5996,-3.5996,-3.5996,-3.5996,-3.5996,-3.5996,-3.5996,-3.5996,-3.5996,-3.5996,-3.5996,-3.5996,-3.5996,-3.5996,-3.5996,-3.5996,-3.5996,-3.5996,-3.5996,-3.5996,-3.5996,-3.5996,-3.5996,-3.5996,-3.5996,-3.5996,-3.5996,-3.5996,-3.5996,-3.5996,-3.5996,-3.5996,-3.5996,-3.5996,-3.5996,-3.5957,-3.5886,-3.5841,-3.5841,-3.5841,-3.5841,-3.5841,-3.5802,-3.5802,-3.5794,-3.5688,-3.5662,-3.5655,-3.5622,-3.5603,-3.5603,-3.5565,-3.5545,-3.5493,-3.5493,-3.5493,-3.5493,-3.5493,-3.5493,-3.5493,-3.5493,-3.5493,-3.1613,0.0,-3.119,-3.119,-3.119,0.0,-3.119,-3.1224,-3.1382,-3.1715,-3.1523,-3.1331,-3.1399,-3.1348,-3.1436,-3.1858,-3.2265,-3.2648,-3.3136,-3.355,-3.3807,-3.3807,-3.3842,-3.4087,-3.4653,-3.4734,-3.4963,-3.546,-3.5493,-3.5493,-3.5493,-3.5526,-3.5545,-3.5603,-3.5641,-3.5738,-3.5892,-3.5912,-3.5947,-3.5996,-3.5996,-3.5996,-3.5996,-3.5996,-3.5996,-3.5996,-3.5996,-3.5996,-3.5996,-3.5996,-3.5996,-3.5996,-3.5996,-3.5996,-3.5996,-3.5996,-3.5996,-3.5996,-3.5996,-3.5996,-3.5996,-3.5996,-3.5996,-3.5996,-3.5996,-3.5996,-3.5996,-3.5996,-3.5996,-3.5996,-3.5996,-3.5996,-3.5996,-3.5996,-3.5996,-3.5996,-3.5996,-3.5996,-3.5996,-3.5996,-3.5996,-3.5996,-3.5996,-3.5996,-3.5996,-3.5996,-3.5996,-3.5996,-3.5996,-3.5996,-3.5996,-3.5996,-3.5957,-3.5918,-3.5918,-3.5806,-3.5728,-3.5731,-3.57,-3.5695,-3.5695,-3.5631,-3.5566,-3.5526,-3.5526,-3.5493,-3.5493,-3.5493,-3.5493,-3.5493,-3.5493,-3.5493,-3.128,0.0,-3.119,0.0,-3.119,-3.119,0.0,0.0,-3.1754,0.0,-3.1771,-3.1839,-3.2264,-3.1981,-3.188,-3.2317,-3.2439,-3.2648,-3.3136,-3.355,-3.3807,-3.3807,-3.4012,-3.4288,-3.4653,-3.4908,-3.5155,-3.5479,-3.5493,-3.5493,-3.5493,-3.5565,-3.5603,-3.5603,-3.5776,-3.5872,-3.5892,-3.5955,-3.5992,-3.5996,-3.5996,-3.5996,-3.5996,-3.5996,-3.5996,-3.5996,-3.5996,-3.5996,-3.5996,-3.5996,-3.5996,-3.5996,-3.5996,-3.5996,-3.5996,-3.5996,-3.5996,-3.5996,-3.5996,-3.5996,-3.5996,-3.5996,-3.5996,-3.5996,-3.5996,-3.5996,-3.5996,-3.5996,-3.5996,-3.5996,-3.5996,-3.5996,-3.5996,-3.5996,-3.5996,-3.5996,-3.5996,-3.5996,-3.5996,-3.5996,-3.5996,-3.5996,-3.5996,-3.5996,-3.5996,-3.5996,-3.5996,-3.5996,-3.5996,-3.5996,-3.5996,-3.5996,-3.5996,-3.5996,-3.5996,-3.5917,-3.5875,-3.5868,-3.5752,-3.5706,-3.5706,-3.5639,-3.5596,-3.5584,-3.5545,-3.5493,-3.5493,-3.5493,-3.5493,-3.5493,-3.5493,-3.5493,-3.119,-3.119,-3.119,0.0,-3.119,-3.119,-3.119,-3.1506,-3.1871,-3.2135,-3.2385,-3.2559,-3.2506,-3.2332,-3.2358,-3.2844,-3.2867,-3.3045,-3.3494,-3.3831,-3.4018,-3.4018,-3.4288,-3.4593,-3.4908,-3.5016,-3.5226,-3.5532,-3.5565,-3.5584,-3.5622,-3.5641,-3.5699,-3.5776,-3.5853,-3.5925,-3.5963,-3.5984,-3.5977,-3.5939,-3.5979,-3.5932,-3.5838,-3.5953,-3.5996,-3.5996,-3.5996,-3.5996,-3.5996,-3.5996,-3.5996,-3.5996,-3.5996,-3.5996,-3.5996,-3.5996,-3.5996,-3.5996,-3.5996,-3.5996,-3.5996,-3.5996,-3.5996,-3.5996,-3.5996,-3.5996,-3.5996,-3.5996,-3.5996,-3.5996,-3.5996,-3.5996,-3.5996,-3.5996,-3.5996,-3.5996,-3.5996,-3.5996,-3.5996,-3.5996,-3.5996,-3.5996,-3.5996,-3.5996,-3.5996,-3.5996,-3.5996,-3.5996,-3.5996,-3.5996,-3.5996,-3.5996,-3.5996,-3.5996,-3.5996,-3.5976,-3.5957,-3.5957,-3.5908,-3.5874,-3.5874,-3.5794,-3.5764,-3.5757,-3.5603,-3.5493,-3.5493,-3.5493,-3.5493,-3.5493,-3.5493,-3.5493,-3.119,0.0,-3.119,-3.119,-3.119,-3.119,0.0,0.0,-3.2098,0.0,-3.2948,-3.3258,-3.2893,-3.2738,-3.2819,-3.3277,-3.3314,-3.3439,-3.385,-3.4165,-3.4334,-3.4334,-3.4614,-3.4908,-3.5091,-3.5176,-3.5346,-3.5608,-3.5624,-3.5654,-3.5693,-3.5734,-3.5795,-3.5892,-3.5902,-3.5923,-3.5962,-3.594,-3.5899,-3.5859,-3.5905,-3.5856,-3.571,-3.5899,-3.5962,-3.5976,-3.5996,-3.5996,-3.5996,-3.5996,-3.5996,-3.5996,-3.5996,-3.5996,-3.5996,-3.5996,-3.5996,-3.5996,-3.5996,-3.5996,-3.5996,-3.5996,-3.5996,-3.5996,-3.5996,-3.5996,-3.5996,-3.5996,-3.5996,-3.5996,-3.5996,-3.5996,-3.5996,-3.5996,-3.5996,-3.5996,-3.5996,-3.5996,-3.5996,-3.5996,-3.5996,-3.5996,-3.5996,-3.5996,-3.5996,-3.5996,-3.5996,-3.5996,-3.5996,-3.5996,-3.5996,-3.5996,-3.5996,-3.5996,-3.5996,-3.5996,-3.5996,-3.5996,-3.5996,-3.5996,-3.5996,-3.5938,-3.5891,-3.5905,-3.5675,-3.5547,-3.5565,-3.5545,-3.5545,-3.5545,-3.5526,-3.5493,-3.119,-3.119,0.0,-3.119,-3.119,-3.119,0.0,0.0,-3.2483,-3.2469,-3.3176,-3.377,-3.3752,-3.3405,-3.3286,-3.3689,-3.367,-3.3729,-3.4128,-3.4445,-3.4674,-3.4674,-3.4907,-3.5127,-3.519,-3.5423,-3.5608,-3.5699,-3.5689,-3.5689,-3.5689,-3.5817,-3.5892,-3.5892,-3.5907,-3.5907,-3.5907,-3.5782,-3.571,-3.5709,-3.5712,-3.5715,-3.5696,-3.5828,-3.5915,-3.5918,-3.5976,-3.5996,-3.5996,-3.5996,-3.5996,-3.5996,-3.5996,-3.5996,-3.5996,-3.5996,-3.5996,-3.5996,-3.5996,-3.5996,-3.5996,-3.5996,-3.5996,-3.5996,-3.5996,-3.5996,-3.5996,-3.5996,-3.5996,-3.5996,-3.5996,-3.5996,-3.5996,-3.5996,-3.5996,-3.5996,-3.5996,-3.5996,-3.5996,-3.5996,-3.5996,-3.5996,-3.5996,-3.5996,-3.5996,-3.5996,-3.5996,-3.5996,-3.5996,-3.5996,-3.5996,-3.5996,-3.5996,-3.5996,-3.5996,-3.5996,-3.5996,-3.5996,-3.5996,-3.5996,-3.5996,-3.5937,-3.5895,-3.5886,-3.5757,-3.5679,-3.5699,-3.5641,-3.5603,-3.5603,-3.5545,-3.5493,-3.119,0.0,0.0,-3.119,-3.119,-3.128,-3.1523,-3.2071,-3.2607,-3.2871,-3.3542,-3.3999,-3.3825,-3.3697,-3.37,-3.4023,-3.4013,-3.4111,-3.4467,-3.481,-3.5022,-3.5022,-3.5308,-3.5488,-3.553,-3.562,-3.5716,-3.5809,-3.5835,-3.5846,-3.5897,-3.5909,-3.5892,-3.5892,-3.5818,-3.5783,-3.5757,-3.5719,-3.5681,-3.5643,-3.5676,-3.565,-3.5585,-3.5714,-3.5766,-3.5786,-3.5894,-3.5957,-3.5996,-3.5996,-3.5996,-3.5996,-3.5996,-3.5996,-3.5996,-3.5996,-3.5996,-3.5996,-3.5996,-3.5996,-3.5996,-3.5996,-3.5996,-3.5996,-3.5996,-3.5996,-3.5996,-3.5996,-3.5996,-3.5996,-3.5996,-3.5996,-3.5996,-3.5996,-3.5996,-3.5996,-3.5996,-3.5996,-3.5996,-3.5996,-3.5996,-3.5996,-3.5996,-3.5996,-3.5996,-3.5996,-3.5996,-3.5996,-3.5996,-3.5996,-3.5996,-3.5996,-3.5996,-3.5996,-3.5996,-3.5996,-3.5996,-3.5996,-3.5996,-3.5996,-3.5996,-3.5976,-3.597,-3.5968,-3.5924,-3.583,-3.5708,-3.5688,-3.5657,-3.5661,-3.5641,-3.5641,-3.119,0.0,0.0,0.0,-3.119,-3.128,-3.1523,-3.2059,-3.2592,-3.2911,-3.356,-3.4039,-3.3948,-3.3932,-3.3983,-3.4176,-3.4386,-3.4604,-3.4845,-3.5153,-3.5376,-3.5379,-3.5547,-3.5712,-3.5751,-3.5762,-3.5795,-3.589,-3.5899,0.0,-3.5908,-3.5855,-3.5816,-3.5795,-3.5715,-3.5667,-3.5622,-3.5641,-3.5622,-3.5584,-3.5622,-3.5603,-3.5493,-3.5622,-3.5674,-3.5668,-3.5786,-3.5893,-3.5996,-3.5996,-3.5996,-3.5996,-3.5996,-3.5996,-3.5996,-3.5996,-3.5996,-3.5996,-3.5996,-3.5996,-3.5996,-3.5996,-3.5996,-3.5996,-3.5996,-3.5996,-3.5996,-3.5996,-3.5996,-3.5996,-3.5996,-3.5996,-3.5996,-3.5996,-3.5996,-3.5996,-3.5996,-3.5996,-3.5996,-3.5996,-3.5996,-3.5996,-3.5996,-3.5996,-3.5996,-3.5996,-3.5996,-3.5996,-3.5996,-3.5996,-3.5996,-3.5996,-3.5996,-3.5996,-3.5996,-3.5996,-3.5996,-3.5996,-3.5996,-3.5996,-3.5996,-3.5996,-3.5996,-3.5996,-3.601,-3.5938,-3.5802,-3.5782,-3.5781,-3.5778,-3.5709,-3.5689,0.0,0.0,0.0,-3.119,-3.119,-3.119,-3.1207,0.0,-3.2475,-3.251,-3.3195,-3.3876,-3.4136,-3.4214,-3.4226,-3.4226,-3.4768,-3.5208,-3.5209,-3.5493,-3.5693,-3.5714,-3.571,-3.5752,-3.5881,-3.5907,-3.5908,-3.59,-3.5892,-3.5852,-3.5709,-3.5696,-3.5678,-3.5597,-3.5603,-3.5584,-3.5493,-3.5493,-3.5493,-3.5493,-3.5493,-3.5493,-3.5493,-3.5584,-3.5603,-3.5597,-3.5668,-3.5802,-3.5996,-3.5996,-3.5996,-3.5996,-3.5996,-3.5996,-3.5996,-3.5996,-3.5996,-3.5996,-3.5996,-3.5996,-3.5996,-3.5996,-3.5996,-3.5996,-3.5996,-3.5996,-3.5996,-3.5996,-3.5996,-3.5996,-3.5996,-3.5996,-3.5996,-3.5996,-3.5996,-3.5996,-3.5996,-3.5996,-3.5996,-3.5996,-3.5996,-3.5996,-3.5996,-3.5996,-3.5996,-3.5996,-3.5996,-3.5996,-3.5996,-3.5996,-3.5996,-3.5996,-3.5996,-3.5996,-3.5996,-3.5996,-3.5996,-3.5996,-3.5996,-3.5996,-3.5996,-3.5996,-3.5996,-3.5996,-3.5996,-3.5996,-3.5996,-3.5937,-3.5903,-3.5911,-3.5775,-3.571,-3.119,0.0,0.0,0.0,0.0,0.0,-3.1557,0.0,-3.2194,-3.2865,-3.335,-3.371,-3.3873,-3.4431,-3.4786,-3.4579,-3.4887,-3.5206,-3.5461,-3.5611,-3.5737,-3.5825,-3.5891,-3.5921,-3.5978,-3.5923,-3.5896,0.0,-3.5815,-3.574,-3.5705,-3.5647,-3.5598,-3.5526,-3.5545,-3.5526,-3.5493,-3.5493,-3.5493,-3.5493,-3.5493,-3.5493,-3.5493,-3.5526,-3.5565,-3.5603,-3.563,-3.5693,-3.5795,-3.5896,-3.5957,-3.5996,-3.5996,-3.5996,-3.5996,-3.5996,-3.5996,-3.5996,-3.5996,-3.5996,-3.5996,-3.5996,-3.5996,-3.5996,-3.5996,-3.5996,-3.5996,-3.5996,-3.5996,-3.5996,-3.5996,-3.5996,-3.5996,-3.5996,-3.5996,-3.5996,-3.5996,-3.5996,-3.5996,-3.5996,-3.5996,-3.5996,-3.5996,-3.5996,-3.5996,-3.5996,-3.5996,-3.5996,-3.5996,-3.5996,-3.5996,-3.5996,-3.5996,-3.5996,-3.5996,-3.5996,-3.5996,-3.5996,-3.5996,-3.5996,-3.5996,-3.5996,-3.5996,-3.5996,-3.5996,-3.5996,-3.5996,-3.5976,-3.5975,-3.5966,-3.5927,-3.5927,-3.119,-3.119,-3.119,-3.119,0.0,0.0,-3.1698,-3.1964,-3.2311,0.0,-3.3459,-3.3752,-3.3944,-3.4506,-3.4924,-3.488,-3.5089,-3.5361,-3.5601,-3.5723,-3.5827,-3.592,-3.5985,-3.5996,-3.5996,-3.5926,-3.5872,-3.5815,-3.5718,-3.5661,-3.5622,-3.5584,-3.5545,-3.5493,-3.5493,-3.5493,-3.5493,-3.5493,-3.5493,-3.5493,-3.5493,-3.5493,-3.5493,-3.5493,-3.5526,-3.5565,-3.5565,-3.5603,-3.5649,-3.5729,-3.5845,-3.5957,-3.5957,-3.5976,-3.5996,-3.5996,-3.5996,-3.5996,-3.5996,-3.5996,-3.5996,-3.5996,-3.5996,-3.5996,-3.5996,-3.5996,-3.5996,-3.5996,-3.5996,-3.5996,-3.5996,-3.5996,-3.5996,-3.5996,-3.5996,-3.5996,-3.5996,-3.5996,-3.5996,-3.5996,-3.5996,-3.5996,-3.5996,-3.5996,-3.5996,-3.5996,-3.5996,-3.5996,-3.5996,-3.5996,-3.5996,-3.5996,-3.5996,-3.5996,-3.5996,-3.5996,-3.5996,-3.5996,-3.5996,-3.5996,-3.5996,-3.5996,-3.5996,-3.5996,-3.5996,-3.5996,-3.5996,-3.5996,-3.5996,-3.5996,-3.5996,-3.5996,-3.119,-3.119,-3.119,-3.119,-3.119,0.0,-3.1647,-3.2051,-3.2504,0.0,-3.3394,-3.377,-3.4091,-3.442,-3.4729,-3.4964,-3.5264,-3.5526,-3.568,-3.5801,-3.5917,-3.5976,-3.5996,-3.5996,-3.5995,-3.5935,-3.5817,-3.5699,-3.5641,-3.5565,-3.5493,-3.5493,-3.5493,-3.5493,-3.546,-3.5479,-3.5493,-3.546,-3.546,-3.5493,-3.5493,-3.5493,-3.5493,-3.5493,-3.5493,-3.5493,-3.5493,-3.5545,-3.5603,-3.5603,-3.5706,-3.5873,-3.5898,-3.5937,-3.5996,-3.5996,-3.5996,-3.5996,-3.5996,-3.5996,-3.5996,-3.5996,-3.5996,-3.5996,-3.5996,-3.5996,-3.5996,-3.5996,-3.5996,-3.5996,-3.5996,-3.5996,-3.5996,-3.5996,-3.5996,-3.5996,-3.5996,-3.5996,-3.5996,-3.5996,-3.5996,-3.5996,-3.5996,-3.5996,-3.5996,-3.5996,-3.5996,-3.5996,-3.5996,-3.5996,-3.5996,-3.5996,-3.5996,-3.5996,-3.5996,-3.5996,-3.5996,-3.5996,-3.5996,-3.5996,-3.5996,-3.5996,-3.5996,-3.5996,-3.5996,-3.5996,-3.5996,-3.5996,-3.5996,-3.5996,-3.5996,-3.5996,-3.119,-3.119,-3.119,-3.119,-3.119,0.0,-3.1314,-3.1375,-3.166,0.0,-3.2702,-3.2966,-3.3752,-3.4109,-3.4308,-3.4377,-3.4831,-3.5282,-3.5584,-3.5687,-3.5771,-3.5917,-3.5976,-3.601,-3.5997,-3.5833,-3.5718,-3.5707,-3.5603,-3.5526,-3.5493,-3.5493,-3.5493,-3.5493,-3.5289,-3.5289,-3.5493,-3.5289,-3.5289,-3.5493,-3.5493,-3.5493,-3.5493,-3.5493,-3.5493,-3.5493,-3.5493,-3.5526,-3.5526,-3.5526,-3.5605,-3.5746,-3.5854,-3.5918,-3.5937,-3.5976,-3.5996,-3.5996,-3.5996,-3.5996,-3.5996,-3.5996,-3.5996,-3.5996,-3.5996,-3.5996,-3.5996,-3.5996,-3.5996,-3.5996,-3.5996,-3.5996,-3.5996,-3.5996,-3.5996,-3.5996,-3.5996,-3.5996,-3.5996,-3.5996,-3.5996,-3.5996,-3.5996,-3.5996,-3.5996,-3.5996,-3.5996,-3.5996,-3.5996,-3.5996,-3.5996,-3.5996,-3.5996,-3.5996,-3.5996,-3.5996,-3.5996,-3.5996,-3.5996,-3.5996,-3.5996,-3.5996,-3.5996,-3.5996,-3.5996,-3.5996,-3.5996,-3.5996,-3.5996,-3.5996,-3.5996,-3.5996,-3.119,-3.119,-3.119,-3.119,-3.119,0.0,0.0,-3.1512,-3.1696,-3.2343,-3.2685,-3.2966,-3.3405,-3.3862,-3.4209,-3.4209,-3.4701,-3.516,-3.5337,-3.5547,-3.5745,-3.5877,-3.5957,-3.6007,-3.5996,-3.582,-3.5676,-3.5611,-3.5545,-3.5493,-3.5493,-3.5493,-3.5432,-3.5304,-3.5174,-3.5105,-3.5105,-3.4963,-3.4963,-3.5105,-3.5105,-3.5105,-3.5105,-3.5239,-3.5304,-3.5304,-3.5446,-3.5493,-3.5493,-3.5493,-3.5545,-3.5611,-3.5715,-3.581,-3.5898,-3.5937,-3.5976,-3.5996,-3.5996,-3.5996,-3.5996,-3.5996,-3.5996,-3.5996,-3.5996,-3.5996,-3.5996,-3.5996,-3.5996,-3.5996,-3.5996,-3.5996,-3.5996,-3.5996,-3.5996,-3.5996,-3.5996,-3.5996,-3.5996,-3.5996,-3.5996,-3.5996,-3.5996,-3.5996,-3.5996,-3.5996,-3.5996,-3.5996,-3.5996,-3.5996,-3.5996,-3.5996,-3.5996,-3.5996,-3.5996,-3.5996,-3.5996,-3.5996,-3.5996,-3.5996,-3.5996,-3.5996,-3.5996,-3.5996,-3.5996,-3.5996,-3.5996,-3.5996,-3.5996,-3.5996,-3.5996,-3.5996,-3.119,-3.119,-3.119,-3.119,-3.119,-3.1297,0.0,0.0,0.0,-3.2281,-3.2666,-3.2998,-3.3186,-3.3633,0.0,-3.4109,0.0,0.0,0.0,-3.5369,0.0,-3.5818,-3.5917,-3.5987,-3.5976,-3.5811,-3.5641,-3.5501,-3.5493,-3.5493,-3.5493,-3.5446,-3.532,-3.5105,-3.4999,-3.4851,-3.4694,-3.4632,-3.4632,-3.4694,-3.4694,-3.4694,-3.4694,-3.4926,-3.5053,-3.5105,-3.532,-3.5446,-3.5493,-3.5493,-3.5493,-3.5526,-3.5584,-3.5708,-3.5862,-3.5897,-3.5937,-3.5996,-3.5996,-3.5996,-3.5996,-3.5996,-3.5996,-3.5996,-3.5996,-3.5996,-3.5996,-3.5996,-3.5996,-3.5996,-3.5996,-3.5996,-3.5996,-3.5996,-3.5996,-3.5996,-3.5996,-3.5996,-3.5996,-3.5996,-3.5996,-3.5996,-3.5996,-3.5996,-3.5996,-3.5996,-3.5996,-3.5996,-3.5996,-3.5996,-3.5996,-3.5996,-3.5996,-3.5996,-3.5996,-3.5996,-3.5996,-3.5996,-3.5996,-3.5996,-3.5996,-3.5996,-3.5996,-3.5996,-3.5996,-3.5996,-3.5996,-3.5996,-3.5996,-3.5996,-3.5996,-3.5996,-3.119,-3.119,-3.119,-3.119,-3.119,-3.1207,-3.128,0.0,-3.1365,-3.1805,0.0,-3.2213,-3.3047,0.0,0.0,0.0,-3.4115,-3.4408,-3.4691,-3.504,-3.5348,-3.5607,-3.5809,-3.5909,-3.5918,-3.5775,-3.5643,-3.5507,-3.5493,-3.5493,-3.5493,-3.5273,-3.5122,-3.5105,-3.4595,-3.4423,-3.4694,-3.4401,-3.4401,-3.4694,-3.4694,-3.4694,-3.4694,-3.4734,-3.4889,-3.5105,-3.5122,-3.5289,-3.5493,-3.5493,-3.5493,-3.5526,-3.5584,-3.5643,-3.5751,-3.5851,-3.5937,-3.5996,-3.5996,-3.5996,-3.5996,-3.5996,-3.5996,-3.5996,-3.5996,-3.5996,-3.5996,-3.5996,-3.5996,-3.5996,-3.5996,-3.5996,-3.5996,-3.5996,-3.5996,-3.5996,-3.5996,-3.5996,-3.5996,-3.5996,-3.5996,-3.5996,-3.5996,-3.5996,-3.5996,-3.5996,-3.5996,-3.5996,-3.5996,-3.5996,-3.5996,-3.5996,-3.5996,-3.5996,-3.5996,-3.5996,-3.5996,-3.5996,-3.5996,-3.5996,-3.5996,-3.5996,-3.5996,-3.5996,-3.5996,-3.5996,-3.5996,-3.5996,-3.5996,-3.5996,-3.5996,-3.5996,-3.119,-3.119,-3.119,-3.119,-3.119,-3.119,-3.119,-3.119,-3.1224,-3.1438,0.0,0.0,0.0,0.0,0.0,0.0,-3.4042,-3.425,0.0,0.0,-3.5254,-3.5565,0.0,0.0,-3.5906,-3.5854,-3.5738,-3.5584,-3.5565,-3.5545,-3.5493,-3.5383,-3.5273,-3.5105,-3.4695,-3.4445,-3.4401,-3.4117,-3.4037,-3.4184,-3.4184,-3.426,-3.4423,-3.4593,-3.4851,-3.5105,-3.5254,-3.5403,-3.5493,-3.5493,-3.5493,-3.5493,-3.5545,-3.5584,-3.5637,-3.5743,-3.5845,-3.5957,-3.5996,-3.5996,-3.5996,-3.5996,-3.5996,-3.5996,-3.5996,-3.5996,-3.5996,-3.5996,-3.5996,-3.5996,-3.5996,-3.5996,-3.5996,-3.5996,-3.5996,-3.5996,-3.5996,-3.5996,-3.5996,-3.5996,-3.5996,-3.5996,-3.5996,-3.5996,-3.5996,-3.5996,-3.5996,-3.5996,-3.5996,-3.5996,-3.5996,-3.5996,-3.5996,-3.5996,-3.5996,-3.5996,-3.5996,-3.5996,-3.5996,-3.5996,-3.5996,-3.5996,-3.5996,-3.5996,-3.5996,-3.5996,-3.5996,-3.5996,-3.5996,-3.5996,-3.5996,-3.5996,-3.119,0.0,0.0,0.0,0.0,0.0,-3.119,-3.119,-3.119,-3.119,-3.1438,0.0,0.0,0.0,-3.3176,-3.3715,0.0,-3.412,-3.42,-3.4656,-3.5107,-3.5426,0.0,0.0,0.0,-3.5891,-3.5822,-3.563,-3.5592,-3.5584,-3.5493,-3.5432,-3.5304,-3.5105,-3.4851,-3.4572,-3.4334,-3.4141,-3.4055,-3.4055,-3.4055,-3.416,-3.4357,-3.4593,-3.4851,-3.5105,-3.5304,-3.5432,-3.5493,-3.5493,-3.5493,-3.5493,-3.5493,-3.5545,-3.5572,-3.5669,-3.5807,-3.5937,-3.5976,-3.5996,-3.5996,-3.5996,-3.5996,-3.5996,-3.5996,-3.5996,-3.5996,-3.5996,-3.5996,-3.5996,-3.5996,-3.5996,-3.5996,-3.5996,-3.5996,-3.5996,-3.5996,-3.5996,-3.5996,-3.5996,-3.5996,-3.5996,-3.5996,-3.5996,-3.5996,-3.5996,-3.5996,-3.5996,-3.5996,-3.5996,-3.5996,-3.5996,-3.5996,-3.5996,-3.5996,-3.5996,-3.5996,-3.5996,-3.5996,-3.5996,-3.5996,-3.5996,-3.5996,-3.5996,-3.5996,-3.5996,-3.5996,-3.5996,-3.5996,-3.5996,-3.5996,-3.5996,0.0,0.0,0.0,-3.119,0.0,0.0,0.0,0.0,-3.119,-3.119,-3.1207,-3.1504,-3.235,-3.2502,0.0,0.0,-3.3815,0.0,0.0,-3.4508,-3.4813,-3.5088,-3.5461,0.0,0.0,-3.582,-3.5815,0.0,-3.5604,-3.5584,-3.5493,-3.5239,-3.5105,-3.5105,-3.4851,-3.4694,-3.4674,-3.4674,-3.4674,-3.4674,-3.4674,-3.4674,-3.4674,-3.4713,-3.4851,-3.5105,-3.5105,-3.5273,-3.5493,-3.5493,-3.5493,-3.5493,-3.5493,-3.5493,-3.5526,-3.5655,-3.5842,-3.5996,-3.5996,-3.5996,-3.5996,-3.5996,-3.5996,-3.5996,-3.5996,-3.5996,-3.5996,-3.5996,-3.5996,-3.5996,-3.5996,-3.5996,-3.5996,-3.5996,-3.5996,-3.5996,-3.5996,-3.5996,-3.5996,-3.5996,-3.5996,-3.5996,-3.5996,-3.5996,-3.5996,-3.5996,-3.5996,-3.5996,-3.5996,-3.5996,-3.5996,-3.5996,-3.5996,-3.5996,-3.5996,-3.5996,-3.5996,-3.5996,-3.5996,-3.5996,-3.5996,-3.5996,-3.5996,-3.5996,-3.5996,-3.5996,-3.5996,-3.5996,-3.5996,-3.5996,-3.5996,-3.5996,0.0,0.0,-3.119,-3.119,0.0,0.0,0.0,0.0,0.0,0.0,-3.119,-3.1456,-3.236,0.0,0.0,0.0,0.0,-3.3842,0.0,-3.4375,-3.4793,-3.507,-3.543,-3.5693,0.0,0.0,0.0,0.0,-3.5718,0.0,-3.5584,-3.5436,-3.5369,-3.5369,-3.5105,-3.4963,-3.4963,-3.4774,-3.4694,-3.4694,-3.4694,-3.4793,-3.4963,-3.4963,-3.5105,-3.5369,-3.5369,-3.5417,-3.5493,-3.5493,-3.5493,-3.5493,-3.5493,-3.5545,-3.5592,-3.5669,-3.5748,-3.581,-3.5954,-3.5996,-3.5996,-3.5996,-3.5996,-3.5996,-3.5996,-3.5996,-3.5996,-3.5996,-3.5996,-3.5996,-3.5996,-3.5996,-3.5996,-3.5996,-3.5996,-3.5996,-3.5996,-3.5996,-3.5996,-3.5996,-3.5996,-3.5996,-3.5996,-3.5996,-3.5996,-3.5996,-3.5996,-3.5996,-3.5996,-3.5996,-3.5996,-3.5996,-3.5996,-3.5996,-3.5996,-3.5996,-3.5996,-3.5996,-3.5996,-3.5996,-3.5996,-3.5996,-3.5996,-3.5996,-3.5996,-3.5996,-3.5996,-3.5996,-3.5996,-3.5996,-3.5996,-3.5996,-3.119,-3.119,0.0,-3.119,-3.119,0.0,-3.119,0.0,-3.1249,0.0,0.0,-3.1528,-3.2553,0.0,0.0,0.0,0.0,-3.3842,0.0,-3.4375,-3.4793,-3.507,-3.5411,-3.5651,-3.5811,-3.5868,-3.5898,-3.5898,-3.583,-3.5727,0.0,0.0,-3.5545,-3.5545,-3.5339,-3.5239,-3.5239,-3.507,-3.4981,-3.4981,-3.4981,-3.5088,-3.5239,-3.5239,-3.5339,-3.5493,-3.5493,-3.5493,-3.5493,-3.5493,-3.5526,-3.5545,-3.5545,-3.5584,-3.5649,-3.5678,-3.5748,-3.5834,-3.5954,-3.5996,-3.5996,-3.5996,-3.5996,-3.5996,-3.5996,-3.5996,-3.5996,-3.5996,-3.5996,-3.5996,-3.5996,-3.5996,-3.5996,-3.5996,-3.5996,-3.5996,-3.5996,-3.5996,-3.5996,-3.5996,-3.5996,-3.5996,-3.5996,-3.5996,-3.5996,-3.5996,-3.5996,-3.5996,-3.5996,-3.5996,-3.5996,-3.5996,-3.5996,-3.5996,-3.5996,-3.5996,-3.5996,-3.5996,-3.5996,-3.5996,-3.5996,-3.5996,-3.5996,-3.5996,-3.5996,-3.5996,-3.5996,-3.5996,-3.5996,-3.5996,-3.5996,-3.5996]}]]